[[{"header":{"parameterUnit":"m.s-1","parameterCategory":1,"la1":30.6,"la2":29.2853,"lo1":-89.7004,"lo2":-87.6739,"dy":0.0162,"dx":0.0183,"nx":112,"ny":82,"refTime":"2023-04-16T12:00:00:Z","depth":0,"parameterNumber":2,"parameterNumberName":"U-component_of_WINDS"},"data":[0.0,0.0,0.0,0.0,0.0,0.0,0.0,0.0,0.0,0.0,0.0,0.0,0.0,0.0,0.0,0.0,0.0,0.0,0.0,0.0,0.0,0.0,0.0,0.0,0.0,0.0,0.0,0.0,0.0,0.0,0.0,0.0,0.0,0.0,0.0,0.0,0.0,0.0,0.0,0.0,0.0,0.0,0.0,0.0,0.0,0.0,0.0,0.0,0.0,0.0,0.0,0.0,0.0,0.0,0.0,0.0,0.0,0.0,0.0,0.0,0.0,0.0,0.0,0.0,0.0,0.0,0.0,0.0,0.0,0.0,0.0,0.0,0.0,0.0,0.0,0.0,0.0,0.0,0.0,0.0,0.0,0.0,0.0,0.0,0.0,0.0,0.0,0.0,0.0,0.0,4.5364,4.9853,5.862,6.4156,6.4156,6.4934,6.2002,5.3982,0.0,0.0,0.0,0.0,0.0,0.0,0.0,0.0,0.0,0.0,0.0,0.0,0.0,0.0,0.0,0.0,0.0,0.0,0.0,0.0,0.0,0.0,0.0,0.0,0.0,0.0,0.0,0.0,0.0,0.0,0.0,0.0,0.0,0.0,0.0,0.0,0.0,0.0,0.0,0.0,0.0,0.0,0.0,0.0,0.0,0.0,0.0,0.0,0.0,0.0,0.0,0.0,0.0,0.0,0.0,0.0,0.0,0.0,0.0,0.0,0.0,0.0,0.0,0.0,0.0,0.0,0.0,0.0,0.0,0.0,0.0,0.0,0.0,0.0,0.0,0.0,0.0,0.0,0.0,0.0,0.0,0.0,0.0,0.0,0.0,0.0,0.0,0.0,0.0,0.0,0.0,0.0,0.0,0.0,0.0,0.0,0.0,0.0,0.0,0.0,0.0,0.0,0.0,0.0,4.7608,5.4401,6.0984,6.4874,6.4874,6.3528,6.0446,5.5209,0.0,0.0,0.0,0.0,0.0,0.0,0.0,0.0,0.0,0.0,0.0,0.0,0.0,0.0,0.0,0.0,0.0,0.0,0.0,0.0,0.0,0.0,0.0,0.0,0.0,0.0,0.0,0.0,0.0,0.0,0.0,0.0,0.0,0.0,0.0,0.0,0.0,0.0,0.0,0.0,0.0,0.0,0.0,0.0,0.0,0.0,0.0,0.0,0.0,0.0,0.0,0.0,0.0,0.0,0.0,0.0,0.0,0.0,0.0,0.0,0.0,0.0,0.0,0.0,0.0,0.0,0.0,0.0,0.0,0.0,0.0,0.0,0.0,0.0,0.0,0.0,0.0,0.0,0.0,0.0,0.0,0.0,0.0,0.0,0.0,0.0,0.0,0.0,0.0,0.0,0.0,0.0,0.0,0.0,0.0,0.0,0.0,0.0,0.0,0.0,0.0,0.0,0.0,4.7728,5.087,5.7094,6.1792,6.4485,6.4485,6.3647,6.0715,5.5029,5.3743,0.0,0.0,0.0,0.0,0.0,0.0,0.0,0.0,0.0,0.0,0.0,0.0,0.0,0.0,0.0,0.0,0.0,0.0,0.0,0.0,0.0,0.0,0.0,0.0,0.0,0.0,0.0,0.0,0.0,0.0,0.0,0.0,0.0,0.0,0.0,0.0,0.0,0.0,0.0,0.0,0.0,0.0,0.0,0.0,0.0,0.0,0.0,0.0,0.0,0.0,0.0,0.0,0.0,0.0,0.0,0.0,0.0,0.0,0.0,0.0,0.0,0.0,0.0,0.0,0.0,0.0,0.0,0.0,0.0,0.0,0.0,0.0,0.0,0.0,0.0,0.0,0.0,0.0,0.0,0.0,0.0,0.0,0.0,0.0,0.0,0.0,0.0,0.0,0.0,0.0,0.0,0.0,0.0,0.0,0.0,0.0,0.0,0.0,0.0,0.0,0.0,0.0,5.1229,5.3832,5.88,6.2121,6.4006,6.4006,6.2989,6.0027,5.4551,5.2546,0.0,0.0,0.0,0.0,0.0,0.0,0.0,0.0,0.0,0.0,0.0,0.0,0.0,0.0,0.0,0.0,0.0,0.0,0.0,0.0,0.0,0.0,0.0,0.0,0.0,0.0,0.0,0.0,0.0,0.0,0.0,0.0,0.0,0.0,0.0,0.0,0.0,0.0,0.0,0.0,0.0,0.0,0.0,0.0,0.0,0.0,0.0,0.0,0.0,0.0,0.0,0.0,0.0,0.0,0.0,0.0,0.0,0.0,0.0,0.0,0.0,0.0,0.0,0.0,0.0,0.0,0.0,0.0,0.0,0.0,0.0,0.0,0.0,0.0,0.0,0.0,0.0,0.0,0.0,0.0,0.0,0.0,0.0,0.0,0.0,0.0,0.0,0.0,0.0,0.0,0.0,0.0,0.0,0.0,0.0,0.0,0.0,0.0,0.0,0.0,0.0,0.0,5.2456,5.5538,5.9578,6.2421,6.4006,6.4006,6.0057,5.6615,5.4341,4.9553,0.0,0.0,0.0,0.0,0.0,0.0,0.0,0.0,0.0,0.0,0.0,0.0,0.0,0.0,0.0,0.0,0.0,0.0,0.0,0.0,0.0,0.0,0.0,0.0,0.0,0.0,0.0,0.0,0.0,0.0,0.0,0.0,0.0,0.0,0.0,0.0,0.0,0.0,0.0,0.0,0.0,0.0,0.0,0.0,0.0,0.0,0.0,0.0,0.0,0.0,0.0,0.0,0.0,0.0,0.0,0.0,0.0,0.0,0.0,0.0,0.0,0.0,0.0,0.0,0.0,0.0,0.0,0.0,0.0,0.0,0.0,0.0,0.0,0.0,0.0,0.0,0.0,0.0,0.0,0.0,0.0,0.0,0.0,0.0,0.0,0.0,0.0,0.0,0.0,0.0,0.0,0.0,0.0,0.0,0.0,0.0,0.0,0.0,0.0,0.0,0.0,0.0,5.2815,5.5897,0.0,6.2331,6.3438,6.3438,6.1463,5.8321,5.3862,0.0,0.0,0.0,0.0,0.0,0.0,0.0,0.0,0.0,0.0,0.0,0.0,0.0,0.0,0.0,0.0,0.0,0.0,0.0,0.0,0.0,0.0,0.0,0.0,0.0,0.0,0.0,0.0,0.0,0.0,0.0,0.0,0.0,0.0,0.0,0.0,0.0,0.0,0.0,0.0,0.0,0.0,0.0,0.0,0.0,0.0,0.0,0.0,0.0,0.0,0.0,0.0,0.0,0.0,0.0,0.0,0.0,0.0,0.0,0.0,0.0,0.0,0.0,0.0,0.0,0.0,0.0,0.0,0.0,0.0,0.0,0.0,0.0,0.0,0.0,0.0,0.0,0.0,0.0,0.0,0.0,0.0,0.0,0.0,0.0,0.0,0.0,0.0,0.0,0.0,0.0,0.0,0.0,0.0,0.0,0.0,0.0,0.0,0.0,0.0,0.0,0.0,5.0661,5.3144,5.6226,0.0,6.2301,6.3079,6.3079,6.0745,5.7633,5.3743,0.0,0.0,0.0,0.0,0.0,0.0,0.0,0.0,0.0,0.0,0.0,0.0,0.0,0.0,0.0,0.0,0.0,0.0,0.0,0.0,0.0,0.0,0.0,0.0,0.0,0.0,0.0,0.0,0.0,0.0,0.0,0.0,0.0,0.0,0.0,0.0,0.0,0.0,0.0,0.0,0.0,0.0,0.0,0.0,0.0,0.0,0.0,0.0,0.0,0.0,0.0,0.0,0.0,0.0,0.0,0.0,0.0,0.0,0.0,0.0,0.0,0.0,0.0,0.0,0.0,0.0,0.0,0.0,0.0,0.0,0.0,0.0,0.0,0.0,0.0,0.0,0.0,0.0,0.0,0.0,0.0,0.0,0.0,0.0,0.0,0.0,0.0,0.0,0.0,0.0,0.0,0.0,0.0,0.0,0.0,0.0,0.0,0.0,0.0,0.0,0.0,0.0,5.069,5.3533,5.6705,6.0685,6.2301,6.3079,6.3079,5.7034,5.3533,0.0,0.0,0.0,0.0,0.0,0.0,0.0,0.0,0.0,0.0,0.0,0.0,0.0,0.0,0.0,0.0,0.0,0.0,0.0,0.0,0.0,0.0,0.0,0.0,0.0,0.0,0.0,0.0,0.0,0.0,0.0,0.0,0.0,0.0,0.0,0.0,0.0,0.0,0.0,0.0,0.0,0.0,0.0,0.0,0.0,0.0,0.0,0.0,0.0,0.0,0.0,0.0,0.0,0.0,0.0,0.0,0.0,0.0,0.0,0.0,0.0,0.0,0.0,0.0,0.0,0.0,0.0,0.0,0.0,0.0,0.0,0.0,0.0,0.0,0.0,0.0,0.0,0.0,0.0,0.0,0.0,0.0,0.0,0.0,0.0,0.0,0.0,0.0,0.0,0.0,0.0,0.0,0.0,0.0,0.0,0.0,0.0,0.0,0.0,0.0,0.0,0.0,0.0,5.0152,5.3264,5.6526,6.0027,6.2002,6.3079,6.3079,5.9548,5.6466,5.4341,0.0,0.0,0.0,0.0,0.0,0.0,0.0,0.0,0.0,0.0,0.0,0.0,0.0,0.0,0.0,0.0,0.0,0.0,0.0,0.0,0.0,0.0,0.0,0.0,0.0,0.0,0.0,0.0,0.0,0.0,0.0,0.0,0.0,0.0,0.0,0.0,0.0,0.0,0.0,0.0,0.0,0.0,0.0,0.0,0.0,0.0,0.0,0.0,0.0,0.0,0.0,0.0,0.0,0.0,0.0,0.0,0.0,0.0,0.0,0.0,0.0,0.0,0.0,0.0,0.0,0.0,0.0,0.0,0.0,0.0,0.0,0.0,0.0,0.0,0.0,0.0,0.0,0.0,0.0,0.0,0.0,0.0,0.0,0.0,0.0,0.0,0.0,0.0,0.0,0.0,0.0,0.0,0.0,0.0,0.0,0.0,0.0,0.0,0.0,0.0,0.0,0.0,5.0212,5.2815,5.5867,5.9668,6.1642,6.278,6.3049,6.0386,5.7304,5.4012,0.0,0.0,0.0,0.0,0.0,0.0,0.0,0.0,0.0,0.0,0.0,0.0,0.0,0.0,0.0,0.0,0.0,0.0,0.0,0.0,0.0,0.0,0.0,0.0,0.0,0.0,0.0,0.0,0.0,0.0,0.0,0.0,0.0,0.0,0.0,0.0,0.0,0.0,0.0,0.0,0.0,0.0,0.0,0.0,0.0,0.0,0.0,0.0,0.0,0.0,0.0,0.0,0.0,0.0,0.0,0.0,0.0,0.0,0.0,0.0,0.0,0.0,0.0,0.0,0.0,0.0,0.0,0.0,0.0,0.0,0.0,0.0,0.0,0.0,0.0,0.0,0.0,0.0,0.0,0.0,0.0,0.0,0.0,0.0,0.0,0.0,0.0,0.0,0.0,0.0,0.0,0.0,0.0,0.0,0.0,0.0,0.0,0.0,0.0,0.0,0.0,0.0,5.0631,5.2276,5.488,5.9488,6.1194,6.2301,6.3019,6.0146,5.6885,5.3563,0.0,0.0,0.0,0.0,0.0,0.0,0.0,0.0,0.0,0.0,0.0,0.0,0.0,0.0,0.0,0.0,0.0,0.0,0.0,0.0,0.0,0.0,0.0,0.0,0.0,0.0,0.0,0.0,0.0,0.0,0.0,0.0,0.0,0.0,0.0,0.0,0.0,0.0,0.0,0.0,0.0,0.0,0.0,0.0,0.0,0.0,0.0,0.0,0.0,0.0,0.0,0.0,0.0,0.0,0.0,0.0,0.0,0.0,0.0,0.0,4.5669,0.0,0.0,0.0,0.0,0.0,0.0,0.0,0.0,0.0,0.0,0.0,0.0,0.0,0.0,0.0,0.0,0.0,0.0,0.0,0.0,0.0,0.0,0.0,0.0,0.0,0.0,0.0,0.0,0.0,0.0,0.0,0.0,0.0,0.0,0.0,0.0,0.0,0.0,0.0,0.0,0.0,5.0062,5.1588,5.4192,5.883,6.0505,6.1792,6.2989,6.0984,5.8261,5.497,5.1319,0.0,0.0,0.0,0.0,0.0,0.0,0.0,0.0,0.0,0.0,0.0,0.0,0.0,0.0,0.0,0.0,0.0,0.0,0.0,0.0,0.0,0.0,0.0,0.0,0.0,0.0,0.0,0.0,0.0,0.0,0.0,0.0,0.0,0.0,0.0,0.0,0.0,0.0,0.0,0.0,0.0,0.0,0.0,0.0,0.0,0.0,0.0,0.0,0.0,0.0,0.0,0.0,0.0,0.0,0.0,0.0,0.0,0.0,0.0,0.0,4.6989,0.0,0.0,0.0,0.0,0.0,0.0,0.0,0.0,0.0,0.0,0.0,0.0,0.0,0.0,0.0,0.0,0.0,0.0,0.0,0.0,0.0,0.0,0.0,0.0,0.0,0.0,0.0,0.0,0.0,0.0,0.0,0.0,0.0,0.0,0.0,0.0,0.0,0.0,0.0,0.0,4.9853,5.1452,5.3905,5.7768,5.9638,6.1044,6.2061,6.0864,5.868,5.5388,5.2636,0.0,0.0,0.0,0.0,0.0,0.0,0.0,0.0,0.0,0.0,0.0,0.0,0.0,0.0,0.0,0.0,0.0,0.0,0.0,0.0,0.0,0.0,0.0,0.0,0.0,0.0,0.0,0.0,0.0,0.0,0.0,0.0,0.0,0.0,0.0,0.0,0.0,0.0,0.0,0.0,0.0,0.0,0.0,0.0,0.0,0.0,0.0,0.0,0.0,0.0,0.0,0.0,0.0,5.3687,5.5108,5.6325,5.7036,5.6799,5.5615,5.3112,5.0405,4.7936,5.027,0.0,0.0,0.0,0.0,0.0,0.0,0.0,0.0,0.0,0.0,0.0,0.0,0.0,0.0,0.0,0.0,0.0,0.0,0.0,0.0,0.0,0.0,0.0,0.0,5.389,5.3721,5.2469,0.0,0.0,0.0,0.0,0.0,0.0,0.0,0.0,0.0,0.0,0.0,5.0213,5.1634,5.3714,5.7028,5.8787,6.0116,6.1044,6.0685,5.9069,5.5897,5.4461,5.1828,0.0,0.0,0.0,0.0,0.0,0.0,0.0,0.0,0.0,0.0,0.0,0.0,0.0,0.0,0.0,0.0,0.0,0.0,0.0,0.0,0.0,0.0,0.0,0.0,0.0,0.0,0.0,0.0,0.0,0.0,0.0,0.0,4.4282,4.4282,0.0,0.0,0.0,0.0,0.0,0.0,0.0,0.0,0.0,0.0,0.0,0.0,0.0,5.1183,5.2334,5.4532,5.5446,5.5141,5.7273,5.8389,5.8592,5.9336,5.9945,6.0385,6.0013,0.0,5.1555,5.1319,0.0,0.0,0.0,0.0,0.0,0.0,0.0,0.0,0.0,0.0,0.0,0.0,0.0,0.0,0.0,0.0,0.0,0.0,0.0,0.0,0.0,0.0,5.4194,5.4397,5.5412,5.6325,0.0,5.5141,5.4093,5.3484,5.2707,0.0,0.0,0.0,0.0,0.0,0.0,0.0,5.1801,5.1911,5.368,5.8146,5.8442,5.9129,6.0954,6.1553,6.0655,5.7902,5.6496,5.473,5.2366,4.8267,0.0,0.0,0.0,0.0,0.0,0.0,0.0,0.0,0.0,0.0,0.0,0.0,0.0,0.0,0.0,0.0,0.0,0.0,0.0,0.0,0.0,0.0,0.0,0.0,0.0,0.0,0.0,0.0,0.0,4.6143,4.7056,4.5399,4.7327,4.7868,0.0,0.0,0.0,0.0,0.0,0.0,0.0,0.0,0.0,5.2739,5.46,5.5716,5.5953,5.822,5.9573,6.0114,6.1907,6.299,6.3429,6.414,6.4681,6.5019,6.5019,6.3024,5.9607,5.6765,5.4363,5.2435,0.0,0.0,0.0,0.0,4.9965,5.0168,4.9593,4.9627,4.9932,5.0168,0.0,0.0,0.0,0.0,0.0,0.0,0.0,0.0,0.0,0.0,5.7679,5.7679,5.8829,5.9945,5.9945,5.9099,5.7509,0.0,5.3822,5.3551,5.3518,0.0,0.0,0.0,0.0,5.0098,5.1613,5.3213,5.5325,5.8497,5.8993,5.9845,6.1493,6.1549,6.1044,5.9877,5.8201,5.6555,5.494,5.1498,4.9194,0.0,0.0,0.0,0.0,0.0,0.0,0.0,0.0,0.0,0.0,0.0,0.0,0.0,0.0,0.0,0.0,0.0,0.0,0.0,0.0,0.0,0.0,0.0,0.0,0.0,0.0,0.0,0.0,4.8173,4.9289,4.6346,4.9763,5.0777,0.0,0.0,0.0,0.0,0.0,0.0,5.2198,5.3991,5.5615,5.7103,5.9302,6.0351,6.0182,6.2448,6.4241,6.5527,6.6812,6.7793,6.8538,6.9282,6.9519,6.935,6.9519,6.8774,6.7015,6.2178,5.8423,5.5716,5.5141,5.4126,5.2942,5.2942,5.2807,5.2672,5.2841,5.2773,5.257,5.2435,5.2503,5.2367,5.0879,0.0,0.0,0.0,0.0,5.5243,5.5615,5.8321,6.1061,6.1434,6.2685,6.3802,6.3802,6.2922,6.0858,0.0,5.5412,5.4938,5.4194,0.0,0.0,0.0,0.0,5.1333,5.2368,5.4848,5.7331,5.9346,5.9757,6.0392,6.1671,6.1304,6.1104,6.1104,5.9877,5.862,5.7483,5.473,5.2127,4.9853,0.0,0.0,0.0,0.0,0.0,0.0,0.0,0.0,0.0,0.0,0.0,0.0,0.0,0.0,0.0,0.0,0.0,0.0,0.0,0.0,0.0,0.0,0.0,0.0,0.0,0.0,0.0,0.0,0.0,4.709,5.1928,0.0,0.0,0.0,0.0,5.0947,5.2942,5.4532,5.5446,5.7543,5.9438,6.096,6.3159,6.4986,6.6339,6.8605,7.0128,7.0939,7.1684,7.2462,7.3172,7.3916,7.3883,7.324,7.395,7.3443,7.1616,6.5696,6.2753,6.1738,5.9573,5.9573,6.0486,5.8355,5.7103,5.6325,5.4938,5.4025,5.3653,5.504,5.5953,5.6258,5.4769,5.4837,0.0,0.0,5.6089,5.7002,5.8423,6.1061,6.37,6.5087,6.6542,6.7624,6.7624,6.5933,6.3328,0.0,5.7645,5.6461,5.5716,0.0,5.3112,5.2335,5.345,5.4633,5.5407,5.7033,5.9054,6.1205,6.0614,6.0307,6.0989,6.1031,6.1104,6.1104,6.1613,6.1583,6.0894,5.7723,5.5329,5.3952,4.9523,0.0,0.0,0.0,0.0,0.0,0.0,0.0,0.0,0.0,0.0,0.0,0.0,0.0,0.0,0.0,0.0,0.0,0.0,0.0,0.0,0.0,0.0,0.0,0.0,0.0,0.0,0.0,0.0,5.3612,5.858,0.0,5.619,5.5615,5.5716,5.619,5.6968,5.8592,6.1298,6.3091,6.5392,6.8368,6.9654,7.1041,7.2529,7.3341,7.3883,7.4119,7.439,7.4661,7.4897,7.5202,7.5168,7.4931,7.5202,7.4728,7.3646,7.1548,6.8538,6.5019,6.2787,6.167,6.1264,6.0926,6.0317,5.9708,5.9641,5.9133,5.8457,5.7983,5.7679,5.7408,5.6867,5.69,5.7205,5.7712,5.9066,6.0622,6.1637,6.4106,6.6609,6.7624,6.8301,6.8808,6.9282,6.8402,6.6948,6.5087,6.2009,5.9302,5.8051,5.7002,5.5919,5.4668,5.4972,5.5581,5.6325,5.8152,6.0348,6.2546,6.2605,6.2586,6.2861,6.2136,6.1338,6.0556,6.0266,6.0057,5.9817,5.7842,5.5957,5.4251,5.1319,4.8955,0.0,0.0,0.0,0.0,0.0,0.0,0.0,0.0,0.0,0.0,0.0,0.0,0.0,0.0,0.0,0.0,0.0,0.0,0.0,0.0,0.0,0.0,0.0,0.0,0.0,0.0,5.8441,5.9259,6.4218,6.6167,6.2674,6.2178,6.2144,6.2415,6.2888,6.4444,6.7421,6.8774,7.0703,7.3443,7.4255,7.51,7.6082,7.6352,7.6487,7.6487,7.6487,7.6487,7.6487,7.6724,7.6724,7.6487,7.6758,7.642,7.5709,7.5202,7.2935,6.9586,6.7387,6.5764,6.4715,6.4918,6.4377,6.3531,6.3497,6.3193,6.2516,6.1028,6.0351,6.0114,5.9844,5.9945,6.0317,6.1061,6.2516,6.4038,6.4816,6.6812,6.8808,6.935,6.9654,6.9992,7.0466,6.9992,6.9316,6.8774,6.5696,6.2584,6.0825,5.9911,5.8896,5.7408,5.7205,5.7543,5.8558,6.0182,6.2009,6.4038,6.4214,6.4178,6.4285,6.2909,6.1563,6.0425,5.9315,5.868,5.8441,5.7363,5.6077,5.4581,5.1708,4.9254,4.7279,0.0,0.0,0.0,0.0,0.0,0.0,0.0,0.0,0.0,0.0,0.0,0.0,0.0,0.0,0.0,0.0,0.0,0.0,0.0,0.0,0.0,0.0,0.0,5.3348,5.8104,6.1989,6.3593,6.8353,7.0295,6.742,6.9147,7.0128,6.9417,7.0703,7.2157,7.3578,7.4356,7.51,7.5845,7.6623,7.7063,7.7063,7.7773,7.8111,7.8111,7.8111,7.8111,7.8145,7.8889,7.8788,7.8111,7.8855,7.8754,7.7908,7.642,7.5777,7.554,7.3308,7.1988,7.1278,7.0534,6.9282,6.776,6.6305,6.5797,6.5561,6.414,6.4174,6.4613,6.3903,6.4174,6.4884,6.5595,6.6339,6.7083,6.7793,6.9079,7.0229,7.0229,7.077,7.1312,7.1312,7.0737,7.0229,7.0229,6.847,6.6271,6.4038,6.3024,6.2009,6.0452,6.0216,0.0,6.2245,6.3091,6.4106,6.5561,6.5334,6.4992,6.4901,6.3189,6.1671,6.0927,5.9075,5.7633,5.7004,5.6376,5.5748,5.5119,5.0601,4.7309,4.5364,0.0,0.0,0.0,0.0,0.0,0.0,0.0,0.0,0.0,0.0,0.0,0.0,0.0,0.0,0.0,0.0,0.0,0.0,0.0,0.0,0.0,0.0,5.723,5.6989,6.2179,6.7074,6.9916,7.4232,7.6638,7.5845,7.5811,7.5743,7.5574,7.5912,7.6555,7.7502,7.7773,7.845,7.9701,7.9972,8.0344,8.0885,8.1088,8.119,8.119,8.119,8.119,8.119,8.1426,8.1088,8.0378,8.0581,7.9972,7.8754,7.8348,7.7841,7.7063,7.4289,7.3071,7.28,7.2056,7.0838,6.9417,6.847,6.8166,6.8098,6.7692,6.7692,6.7827,6.7624,6.7692,6.7895,6.8098,6.8707,6.9316,6.9519,7.0263,7.1007,7.1007,7.1176,7.1312,7.1312,7.1142,7.1007,7.1007,7.05,6.935,6.7083,6.6068,6.5087,6.3599,6.2922,0.0,6.3159,6.3835,6.485,6.6339,6.6862,6.6711,6.5783,6.423,6.185,5.8363,5.6241,5.4835,5.4351,5.3623,5.3204,5.3025,4.9912,4.7788,0.0,0.0,0.0,0.0,0.0,0.0,0.0,0.0,0.0,0.0,0.0,0.0,0.0,0.0,0.0,0.0,0.0,0.0,0.0,0.0,0.0,0.0,5.9235,6.329,6.4486,6.7862,7.1651,7.5873,7.8481,8.0233,8.0851,8.0547,8.0175,7.987,7.9837,8.004,8.0479,8.0479,8.0885,8.1731,8.1765,8.1968,8.2408,8.2408,8.2408,8.2408,8.2408,8.2408,8.2408,8.2069,8.1697,8.1291,8.1291,8.0648,7.9566,7.9566,7.9126,0.0,0.0,0.0,0.0,0.0,7.2124,7.1007,7.0297,6.9823,6.9519,6.9214,6.9316,6.9553,6.9553,6.9789,7.0026,7.0026,7.0331,7.0669,7.0669,7.0973,7.1312,7.1312,7.1312,7.1312,7.1312,7.1312,7.1312,7.1312,7.1312,0.0,6.9553,6.8707,6.7827,6.6677,6.5831,6.5358,6.5358,6.573,6.6305,6.7184,6.7963,6.8109,6.7335,6.5667,0.0,0.0,0.0,5.3991,5.2072,5.1588,0.0,0.0,0.0,4.9045,4.8117,0.0,0.0,0.0,4.4885,4.4796,0.0,0.0,0.0,0.0,0.0,0.0,0.0,0.0,0.0,0.0,0.0,0.0,0.0,0.0,0.0,0.0,6.414,6.9113,7.3612,7.4405,7.6199,8.0918,8.1617,8.23,8.3621,8.3761,8.349,8.2847,8.2712,8.2678,8.2678,0.0,0.0,0.0,0.0,8.2678,8.2678,8.2678,8.2678,8.2678,8.2678,8.2678,8.2644,8.1968,8.1629,8.1528,8.1528,8.1122,8.0445,8.0445,8.0006,7.9261,7.8348,7.7063,7.554,7.4221,7.3206,7.2428,7.1684,0.0,0.0,6.9586,6.9789,7.0297,7.0297,7.077,7.1312,7.1312,7.1312,7.1312,7.1312,7.1312,7.1312,7.1312,7.1312,7.1312,7.1312,7.1312,7.1312,7.1312,7.1312,7.1312,7.1312,7.0703,6.9958,6.9316,6.8538,6.803,6.803,6.803,6.8064,6.8132,0.0,0.0,6.9214,6.7335,6.5246,6.2979,5.8542,5.436,5.0817,5.0543,5.0451,5.0451,5.096,5.0601,4.9374,4.8865,4.8267,4.7608,4.6741,4.6292,0.0,0.0,0.0,0.0,0.0,0.0,0.0,0.0,0.0,0.0,0.0,0.0,0.0,0.0,0.0,6.3531,6.8774,7.3747,7.828,8.0444,8.169,8.2171,8.3819,8.4993,8.5351,8.5351,8.5283,8.5148,8.4539,8.42,8.42,8.42,8.42,8.42,8.42,8.42,8.42,8.42,8.42,8.42,0.0,0.0,8.42,8.4031,8.3659,8.305,8.305,8.2644,8.1968,8.1968,8.1528,8.0682,7.8754,7.7063,7.5676,7.5371,7.4424,7.3172,7.2428,7.209,7.1853,7.1109,7.0973,7.1109,7.1109,7.121,0.0,7.1312,7.1312,7.1312,7.1312,7.1312,7.1312,7.1312,7.1312,7.1312,7.1312,7.1312,7.1312,7.1312,7.1312,7.1312,7.1312,7.0703,7.0128,6.9992,6.935,6.8876,6.8876,6.8876,6.9113,6.9688,6.9891,6.9992,6.9992,6.8499,6.6283,6.3272,5.8186,5.4727,5.3402,5.2332,5.1828,5.1828,5.1439,5.084,5.0062,5.0451,5.0301,4.9613,4.7369,4.6022,0.0,0.0,0.0,0.0,0.0,0.0,0.0,0.0,0.0,0.0,0.0,5.4803,0.0,0.0,6.3937,6.8808,7.3375,7.7604,8.1325,8.3456,8.4505,8.4133,8.5114,8.5926,8.6298,8.6332,8.6332,8.6332,8.5993,8.5621,8.5215,8.5215,8.5046,8.464,8.464,8.464,8.464,8.464,8.464,8.464,8.464,8.464,8.4606,8.4234,8.3862,8.349,8.349,8.3084,8.2408,8.2408,8.1765,8.0682,7.9938,7.872,7.7367,7.6995,7.5879,7.4525,7.4187,7.3578,7.2834,7.209,7.1853,7.1785,7.1413,7.1312,7.1312,7.1312,7.1312,7.1312,7.1312,7.1312,7.1312,7.1312,7.1312,7.1312,7.1312,7.1312,7.1312,7.1312,7.1312,7.1312,7.1312,7.1007,7.0737,7.0737,7.0432,7.006,6.9688,6.9992,7.0195,7.0195,7.0534,7.0737,7.0737,6.9011,6.6791,6.4332,6.0629,5.7809,5.6248,5.4945,5.4036,5.3683,5.3384,5.3204,5.3204,5.3533,5.3354,5.2665,5.102,4.9374,0.0,0.0,0.0,0.0,0.0,0.0,0.0,0.0,5.4634,5.7509,5.8795,6.0486,6.3971,6.6508,6.9485,7.368,7.7401,8.0682,8.3355,8.5046,8.6061,8.6196,8.623,8.6467,8.7076,8.711,8.711,8.711,8.6974,8.6636,8.6027,8.5993,8.5723,8.508,8.4911,8.4911,8.508,8.4776,8.4708,8.4843,8.4708,8.464,8.4606,8.3998,8.3727,8.3727,8.3727,8.3389,8.2813,8.2543,8.1697,8.0648,8.0953,8.0344,7.9228,7.8483,7.7333,7.6115,7.598,7.5033,7.3815,7.3071,7.2732,7.2462,7.1751,7.1515,7.1481,7.1345,7.1312,7.1312,7.1312,7.1312,7.1345,7.1481,7.1515,7.1548,7.1718,7.1751,7.1684,7.1548,7.1515,7.1481,7.1345,7.1312,7.1312,7.1312,7.1312,7.1109,7.0466,7.0939,7.1075,7.0466,7.0939,7.1312,7.1312,6.9485,6.7719,6.629,6.4001,6.1816,5.9791,5.8122,5.692,5.6405,5.6251,5.6286,5.6555,5.6675,5.6346,5.5538,5.488,5.3174,5.1319,5.0541,5.0845,5.345,5.4194,5.5378,0.0,0.0,5.9911,6.2279,6.3869,6.5561,6.803,7.0804,7.3781,7.6961,8.004,8.2611,8.4268,8.5824,8.7008,8.7685,8.7753,8.7786,8.7854,8.7888,8.7888,8.7888,8.7279,8.6873,8.6771,8.6771,8.6738,8.667,8.5993,8.596,8.6636,8.5317,8.4979,8.5655,8.4945,8.464,8.464,8.4539,8.4505,8.4505,8.4505,8.4437,8.4268,8.2949,8.2306,8.2035,8.0784,8.0209,8.0006,7.9261,7.845,7.7638,7.6995,7.6183,7.5337,7.4593,7.3916,7.324,7.2496,7.2293,7.2157,7.1481,7.1312,7.1312,7.1312,7.1312,7.1481,7.2124,7.2293,7.2462,7.3105,7.324,7.3037,7.2394,7.2293,7.209,7.1413,7.1312,7.1312,7.1312,7.1312,7.1278,7.121,7.1278,7.1278,7.121,7.1278,7.1312,7.1312,7.0466,6.9891,6.9613,6.7112,6.5462,6.5279,6.2231,6.0625,6.0515,5.994,5.9009,5.7902,5.8501,5.8112,5.6855,5.6226,5.4521,5.3585,5.3585,0.0,0.0,5.7848,6.0283,6.2178,6.3328,6.4783,6.7489,6.9553,7.1582,7.3849,7.598,7.8077,0.0,8.1968,8.3727,8.5689,8.6501,8.7177,8.7922,8.8361,8.8801,8.9241,8.9275,8.9275,8.9275,8.9004,8.8463,8.7583,8.755,8.7347,8.6941,8.6602,8.6602,8.6907,8.6264,8.6129,8.6433,8.5655,8.5317,8.5283,8.4843,8.464,8.464,8.464,8.437,8.3964,8.3761,8.3186,8.2408,8.2205,8.1866,8.1393,8.0648,7.9904,7.9228,7.8923,7.8314,7.7401,7.5777,7.5033,7.4492,7.2868,7.2394,7.2259,7.1515,7.1312,7.1312,7.1312,7.1616,7.2022,7.2326,7.2732,7.3105,7.3409,7.3477,7.3409,7.3105,7.3037,7.28,7.209,7.1954,7.1785,7.1379,7.1312,7.1312,7.1312,7.1312,7.1312,7.1312,7.1312,7.1312,7.1312,7.1041,7.0838,7.0838,6.9749,6.8769,6.7961,6.616,6.4498,6.2922,6.2196,6.117,5.9877,6.0146,5.9787,5.883,5.856,5.7453,5.5175,0.0,0.0,5.8964,6.2347,6.5561,6.6406,6.8132,7.0331,7.2935,7.4897,7.6724,7.8551,8.0107,8.1528,8.2813,8.3828,8.508,8.6941,8.7211,8.7347,8.7651,8.7989,8.8531,8.9512,8.9985,9.0222,9.0222,9.0391,9.0053,8.897,8.8734,8.8361,8.7854,8.7414,8.7313,8.7516,8.711,8.6907,8.6907,8.6129,8.5655,8.5452,8.4877,8.464,8.464,8.464,8.4302,8.3828,8.4167,8.3693,8.2746,8.3084,8.2881,8.2374,8.2035,8.1291,8.0513,8.0513,7.9904,7.8855,7.7164,7.6487,7.5946,7.3916,7.3308,7.3071,7.1954,7.1616,7.1616,7.1616,7.1988,7.2496,7.2902,7.3409,7.3849,7.4052,7.4086,7.4052,7.3815,7.3781,7.3578,7.2834,7.2699,7.2529,7.1988,7.1921,7.1751,7.1379,7.1312,7.1312,7.1312,7.1312,7.1312,7.1312,7.1312,7.1312,7.1312,7.1312,7.0882,6.9822,6.8913,6.7525,6.5574,6.4685,6.3424,6.1982,6.1982,6.1338,6.0086,6.0086,5.9578,0.0,0.0,5.9979,6.4343,6.7726,7.0737,7.3612,7.5473,7.7029,7.8551,7.9498,8.0276,8.1054,8.2408,8.3659,8.4437,8.5824,8.7076,8.7854,8.7955,8.7719,8.7042,8.6332,8.6467,0.0,8.9376,9.0222,9.0222,9.0865,9.1237,9.1203,9.0527,9.0121,9.0121,8.87,8.8294,8.9004,8.7617,8.6907,8.6907,8.6129,8.5384,8.4674,8.464,8.464,8.464,8.464,8.4606,8.4539,8.3828,8.3524,8.3389,8.2712,8.2441,8.2509,8.3186,8.2509,8.1257,8.1257,8.031,7.9092,7.9025,7.8517,7.7638,7.6082,7.5608,7.5134,7.2969,7.236,7.236,7.236,7.2394,7.2766,7.4187,7.4559,7.4762,7.5473,7.5642,7.5439,7.4728,7.4593,7.4322,7.3578,7.3443,7.3443,7.3443,7.3409,7.2902,7.1481,7.1312,7.1312,7.1312,7.1312,7.1312,7.1312,7.1312,7.1312,7.1312,7.1312,7.1312,7.1222,6.9916,6.9184,6.9088,6.7741,6.6058,6.4026,6.4026,6.2656,6.0086,6.0086,6.0057,5.8355,0.0,6.5764,6.9248,7.2766,7.5743,7.7266,7.8754,7.9803,7.9837,8.004,8.0141,7.987,8.1054,8.2272,8.3016,8.5283,8.7177,8.7888,8.8835,8.8632,8.6433,8.7245,0.0,0.0,0.0,0.0,9.0831,9.1609,9.1812,9.1338,9.1541,9.1237,9.0256,8.9715,8.9342,8.9072,8.8125,8.7617,8.7617,8.6366,8.5384,8.464,8.464,8.464,8.464,8.464,8.464,8.4606,8.4336,8.4234,8.4234,8.3964,8.3862,8.3896,8.4167,8.3625,8.2746,8.2746,8.2103,8.1156,8.0141,7.9329,7.845,7.6961,7.6115,7.5439,7.4221,7.351,7.3105,7.3105,7.3105,7.3375,7.439,7.4627,7.4796,7.554,7.6115,7.6251,7.5473,7.5777,7.5709,7.4458,7.4221,7.4221,7.4221,7.3815,7.3308,7.28,7.2326,7.2022,7.2022,7.1616,7.1312,7.1312,7.1312,7.1312,7.1312,7.1312,7.1312,7.1312,7.0882,7.0136,6.9217,6.8797,6.7745,6.6194,6.517,6.4089,6.2686,6.182,6.1194,6.2854,6.6745,7.0737,7.4289,7.7401,7.9769,8.0513,8.1596,8.2103,8.0851,8.0378,7.9803,7.8551,7.8653,7.9498,8.1325,8.3253,8.5317,8.7651,8.8361,8.8023,8.6366,8.6941,8.6839,0.0,0.0,0.0,9.0324,9.1947,9.2522,9.1744,9.2421,9.215,9.0628,9.0357,8.985,8.9106,8.8632,8.8125,8.7583,8.6095,8.5114,8.464,8.464,8.464,8.464,8.464,8.464,8.464,8.464,8.464,8.464,8.464,8.464,8.464,8.464,8.4133,8.3456,8.3186,8.2611,8.1799,8.0581,7.987,7.9261,7.8044,7.7333,7.6657,7.5371,7.4661,7.4221,7.395,7.3883,7.4086,7.483,7.4999,7.5202,7.5946,7.6555,7.6826,7.6555,7.6927,7.6893,7.5642,7.5202,7.4999,7.4999,7.4593,7.4187,7.3916,7.324,7.28,7.28,7.236,7.1988,7.1718,7.1684,7.1582,7.1345,7.1312,7.1312,7.1312,7.1312,7.0882,6.9949,6.9949,6.9313,6.7874,6.6958,6.567,6.4057,6.3171,6.2354,6.8842,7.2124,7.4999,7.9329,8.1562,8.2813,8.3456,8.4065,8.3862,8.1596,8.0378,7.9058,0.0,0.0,7.5743,7.9363,8.0344,8.2408,8.7448,8.7042,8.6467,0.0,0.0,0.0,0.0,0.0,0.0,8.9038,0.0,9.3199,9.2522,9.3267,9.2962,9.1338,9.0628,8.9884,8.9106,8.9038,8.8294,8.6839,8.5384,8.4674,8.464,8.464,8.464,8.464,8.464,8.464,8.464,8.464,8.464,8.464,8.464,8.464,8.464,8.464,8.4133,8.3389,8.2678,8.19,8.1156,8.0479,8.0242,8.0073,7.9397,7.916,7.8653,7.6487,7.5811,7.5608,7.4897,7.4661,7.4796,7.5574,7.5743,7.5912,7.6758,7.6995,7.7198,7.7874,7.7976,7.7773,7.7029,7.6284,7.5743,7.5709,7.5709,7.5439,7.4762,7.4018,7.3544,7.3477,7.3443,7.3138,7.2394,7.2326,7.2056,7.1345,7.1312,7.1312,7.1312,7.1312,7.1312,7.1312,7.1312,7.0666,6.9313,6.9217,6.7519,6.4302,6.4333,6.3531,7.2326,7.6724,8.0682,8.2949,8.464,8.5655,8.5283,8.4065,8.2205,7.9397,7.6014,7.2732,0.0,0.0,0.0,7.6521,8.2441,0.0,9.0121,9.1609,0.0,0.0,0.0,8.9647,8.7617,8.8429,0.0,0.0,9.1947,9.2895,9.3267,9.4518,9.4011,9.1372,9.1102,9.0391,8.9106,8.8531,8.7516,8.6061,8.5689,8.5182,8.464,8.464,8.464,8.464,8.464,8.464,8.464,8.464,8.464,8.464,8.464,8.464,8.464,8.464,8.4133,8.3389,8.2678,8.19,8.1257,8.1054,8.0648,8.0175,7.9972,7.9532,7.8991,7.8416,7.7435,7.6555,7.6352,7.5473,7.4965,7.6284,7.6149,7.6082,7.7435,7.8145,7.845,7.8044,7.7976,7.7773,7.7029,7.6724,7.6386,7.5777,7.5709,7.5642,7.5439,7.4796,7.4119,7.3544,7.3003,7.2394,7.165,7.1582,7.1515,7.1312,7.1312,7.1312,7.1312,7.1312,7.1312,7.1312,7.1312,7.1098,7.0791,6.9727,6.8796,6.7914,6.6876,6.5659,7.7029,8.0919,8.4167,8.5351,8.6027,8.5892,8.3795,8.2103,7.9566,7.4593,7.1312,0.0,0.0,0.0,0.0,0.0,0.0,0.0,9.0324,9.2489,9.3199,0.0,9.2421,0.0,9.0121,9.0696,9.1643,0.0,9.2895,9.3131,9.3571,9.4992,9.4417,9.1406,9.1305,9.0594,8.9106,8.8361,8.7414,8.6264,8.5926,8.5384,8.464,8.464,8.464,8.464,0.0,8.464,8.464,8.464,8.464,8.464,8.464,8.464,8.464,8.464,8.4133,8.3389,8.2678,8.19,8.1224,8.0919,8.0547,8.0209,8.0209,7.9904,7.9532,7.9194,7.8517,7.7807,7.7468,7.6724,7.6318,7.7164,7.7029,7.7029,7.8213,7.8822,7.9092,7.8991,7.8686,7.8348,7.7942,7.7604,7.7232,7.6758,7.642,7.6217,7.6217,7.5574,7.4931,7.4492,7.4086,7.3544,7.2834,7.2766,7.2631,7.2293,7.1954,7.1785,7.1785,7.1481,7.1312,7.1312,7.1312,7.1312,7.1312,7.0482,6.9822,6.9217,6.8405,6.7368,8.2069,8.4742,8.6636,8.7211,8.6771,8.5215,8.1359,7.9397,7.6284,6.8977,0.0,6.4546,6.1061,6.3057,6.6779,7.1481,0.0,8.3592,8.9782,9.1947,9.3199,9.4079,9.4248,9.3977,9.3098,9.303,9.3571,9.489,9.4315,9.3876,9.3876,9.5093,9.4417,9.1406,9.1203,9.0493,8.9106,8.8361,8.7617,8.6907,8.6129,8.5384,8.464,8.464,8.464,8.464,8.464,8.464,8.464,8.464,8.464,8.464,8.464,8.464,8.464,8.464,8.4133,8.3422,8.278,8.2069,8.1291,8.0479,8.0209,8.0209,8.0209,8.0209,8.0073,7.9431,7.9194,7.8957,7.8314,7.8044,7.801,7.8111,7.8145,7.8348,7.9092,7.9261,7.9431,8.0073,7.9701,7.9228,7.9126,7.8585,7.8111,7.801,7.7367,7.6893,7.6893,7.6183,7.5676,7.5574,7.554,7.527,7.4525,7.4458,7.4187,7.3544,7.2902,7.2563,7.2563,7.1921,7.1548,7.1447,7.1447,7.1413,7.1312,7.1312,7.0666,6.9537,6.9537,6.8797,8.5621,8.8192,9.0222,8.9748,8.9072,8.738,8.3016,7.8111,0.0,0.0,6.211,5.8693,5.6224,5.9708,6.4816,7.0567,0.0,0.0,0.0,0.0,9.5702,0.0,0.0,0.0,0.0,0.0,0.0,0.0,0.0,9.5398,9.5398,9.5669,9.4417,9.1406,9.0729,8.9985,8.9106,8.8361,8.7617,8.6907,8.6129,8.5384,8.464,8.464,8.464,8.464,8.464,0.0,8.464,8.464,8.464,8.464,8.464,8.464,8.464,8.464,8.4133,8.349,8.3355,8.2813,8.2002,8.0648,8.0209,8.0209,8.0209,8.0209,8.0175,8.004,7.9566,7.9092,7.8957,7.845,7.8145,7.8754,7.8923,7.9126,7.987,8.0006,8.004,8.0175,8.0107,7.9837,7.9228,7.8991,7.872,7.8077,7.7367,7.6893,7.6893,7.6183,7.5473,7.4864,7.4796,7.4492,7.3747,7.368,7.3612,7.351,7.3375,7.3308,7.3308,7.3172,7.2834,7.2225,7.2225,7.1921,7.1312,7.1312,7.1188,7.0916,7.0916,7.017,8.8903,9.0797,9.2319,9.1541,8.9647,8.6264,7.9803,0.0,0.0,0.0,5.7374,5.5141,5.3687,0.0,0.0,0.0,0.0,0.0,0.0,0.0,0.0,0.0,0.0,0.0,0.0,0.0,0.0,0.0,0.0,9.6785,9.6379,9.5263,9.3605,9.1372,9.0594,8.985,8.9106,8.8734,8.8023,8.6907,8.6535,8.5757,8.464,8.464,8.464,8.464,8.464,8.464,8.464,8.464,8.464,8.464,8.464,8.464,8.464,8.464,8.4403,8.4031,8.3625,8.3253,8.278,8.1697,8.1088,8.075,8.075,8.075,8.075,8.075,8.0784,8.075,8.0344,7.9972,7.9701,7.9667,7.9667,7.9769,8.0107,8.0209,8.0209,8.0209,8.0513,8.0648,8.031,8.0242,8.0107,7.9769,7.8754,7.7908,7.7502,7.6792,7.6048,7.527,7.5168,7.5033,7.4661,7.4627,7.4627,7.4627,7.4289,7.4052,7.4052,7.368,7.3308,7.2969,7.2597,7.2225,7.1887,7.1515,7.1312,7.1312,7.1312,7.0916,9.1575,9.3233,9.4552,9.3605,9.0357,8.5215,7.6995,7.1007,0.0,0.0,5.3518,5.257,5.1961,0.0,0.0,0.0,0.0,0.0,0.0,0.0,0.0,0.0,0.0,0.0,0.0,0.0,0.0,0.0,0.0,0.0,9.692,9.4924,9.3131,9.1575,9.0831,9.0019,8.9106,8.8937,8.8192,8.6907,8.6738,8.596,8.464,8.464,8.464,8.464,8.464,8.464,8.464,8.464,8.464,8.464,8.464,8.464,8.464,8.464,8.464,8.4539,8.3964,8.3727,8.3659,8.3084,8.2272,8.1528,8.1528,8.1528,8.1528,8.1528,8.1832,8.2069,8.1629,8.1291,8.0919,8.0344,8.0209,8.0209,8.0209,8.0209,8.0242,8.0412,8.0885,8.1325,8.1494,8.1528,8.146,8.1291,8.0175,7.9058,7.8314,7.7604,7.6893,7.6251,7.5879,7.5777,7.5946,7.5946,7.6014,7.6183,7.5642,7.5337,7.5337,7.4627,7.4153,7.395,7.324,7.2732,7.2394,7.1988,7.1684,7.1548,7.1548,7.1548,9.3165,9.5939,9.824,9.6819,9.2658,8.6738,7.8551,0.0,0.0,5.5175,5.1894,5.0371,5.0304,0.0,0.0,0.0,0.0,7.1921,0.0,0.0,0.0,0.0,0.0,0.0,0.0,0.0,0.0,0.0,0.0,0.0,9.6886,9.5432,9.3909,9.2353,9.1575,9.0527,8.9106,8.8429,8.7685,8.6907,8.623,8.5452,8.464,8.464,8.464,8.464,8.464,8.464,0.0,8.464,8.464,8.464,8.464,8.464,8.464,8.464,8.464,8.4606,8.4539,8.4539,8.4505,8.4437,8.3456,8.2306,8.2306,8.2306,8.2306,8.2306,8.1866,8.1528,8.2137,8.1325,8.0276,8.0209,8.0209,8.0209,8.0209,8.0209,8.0412,8.1054,8.1224,8.1494,8.2171,8.2306,8.2069,8.1393,8.0615,7.9837,7.9092,7.8348,7.7874,7.7773,7.6521,7.598,7.6724,7.6792,7.7063,7.7739,7.7705,7.7671,7.7671,7.6961,7.6251,7.5506,7.4796,7.3747,7.2394,7.3003,7.2935,7.2293,7.2293,7.2293,9.3436,9.6954,9.9424,9.7935,9.2624,8.5621,7.7401,0.0,6.0622,5.3585,5.071,4.956,4.9999,5.0574,5.2604,0.0,5.9235,0.0,7.3409,0.0,0.0,0.0,0.0,0.0,0.0,0.0,0.0,0.0,0.0,0.0,9.6853,9.5499,9.4214,9.3165,9.1947,9.0797,8.9782,8.9004,8.8294,8.755,8.6805,8.6061,8.5317,8.4843,8.464,8.464,8.464,8.464,0.0,8.464,8.464,8.464,8.464,8.464,8.464,8.464,8.464,8.464,8.464,8.464,8.464,8.464,8.4234,8.3659,8.3219,8.2746,8.2509,8.2949,8.3186,8.3253,8.3118,8.1968,8.075,8.031,8.0209,8.0209,8.0209,8.0209,8.0412,8.1156,8.1663,8.2205,8.2949,8.305,8.2813,8.2069,8.1325,8.0445,7.9261,7.8855,7.8483,7.8044,7.7029,7.6724,7.7502,7.7164,7.7198,7.7942,7.7976,7.7976,7.7976,7.7705,7.7198,7.6454,7.5676,7.4762,7.3713,7.3138,7.2902,7.3037,7.2597,7.2631,9.1812,9.6244,9.9322,9.8273,9.2421,8.4742,0.0,6.7726,5.9404,5.2604,5.0033,4.9154,4.9661,5.0181,5.1401,5.4194,5.5382,5.8919,6.7489,7.1413,0.0,0.0,0.0,0.0,0.0,0.0,0.0,0.0,0.0,0.0,9.6548,9.5161,9.4146,9.3605,9.2083,9.0966,9.0222,8.9444,8.8734,8.7989,8.7245,8.6501,8.5757,8.4979,8.464,8.464,8.464,8.464,0.0,8.464,8.464,8.464,8.464,8.464,8.464,8.464,8.4471,8.4336,8.4539,8.4471,8.4336,8.4539,8.4471,8.4234,8.393,8.3456,8.3186,8.3693,8.42,8.4336,8.3152,8.2238,8.1359,8.0412,8.0209,8.0209,8.0209,8.0209,8.0412,8.1156,8.19,8.2644,8.3355,8.3693,8.3592,8.2847,8.2272,8.1494,8.0242,7.9904,7.9566,7.9025,7.8111,7.7773,7.828,7.7841,7.7874,7.8585,7.8653,7.8653,7.8653,7.8213,7.7739,7.7232,7.6217,7.5337,7.4627,7.3781,7.3544,7.3815,7.3308,7.3206,8.7922,9.3503,9.8037,9.8003,9.2421,8.4742,7.6487,6.7726,5.9404,5.2604,5.0033,4.9018,4.9018,5.0292,5.1494,5.2194,5.6129,6.118,6.7116,7.2394,0.0,0.0,0.0,0.0,0.0,0.0,0.0,0.0,0.0,0.0,9.5804,9.4383,9.3605,9.3571,9.2083,9.0966,9.0222,8.9444,8.8734,8.7989,8.7245,8.6501,8.5757,8.4979,8.464,8.464,8.464,8.464,0.0,8.464,8.464,8.464,8.464,8.464,8.464,8.464,8.4167,8.3625,8.437,8.4133,8.3625,8.437,8.4133,8.3659,8.4403,8.4606,8.4606,8.4606,8.4606,8.4099,8.1866,8.1832,8.2035,8.0547,8.0209,8.0209,8.0209,8.0209,8.0412,8.1156,8.19,8.2644,8.3355,8.4133,8.437,8.3592,8.349,8.3219,8.2475,8.1731,8.1257,8.1257,7.9938,7.9092,7.9092,7.9092,7.9397,8.0141,8.0175,8.0175,8.0175,7.8754,7.7976,7.7976,7.6487,7.5337,7.4627,7.5337,7.5303,7.4593,7.4593,7.4187,7.8382,8.3186,8.711,8.6095,8.2137,7.6893,7.0703,6.4343,5.8118,5.2401,5.0033,4.9018,4.9018,4.9433,5.0788,5.4127,5.5824,5.8647,6.4106,0.0,0.0,0.0,0.0,0.0,0.0,0.0,0.0,0.0,0.0,0.0,9.5093,9.3605,9.303,9.3571,9.2083,9.0966,9.0222,8.9444,8.897,8.8734,8.7482,8.6771,8.6501,8.6028,8.5887,8.5887,8.5887,8.5887,8.5786,8.4995,8.464,8.464,8.464,8.464,8.464,8.464,8.4471,8.4302,8.4539,8.4471,8.4302,8.4539,8.4471,8.4302,8.4539,8.4268,8.3964,8.4471,8.464,8.4234,8.2509,8.2238,8.2035,8.0547,8.0209,8.0209,8.0209,8.0209,8.0412,8.1156,8.19,8.2644,8.3355,8.4133,8.437,8.3625,8.349,8.3219,8.2509,8.2205,8.1866,8.1325,8.0885,8.0412,7.9904,7.9397,7.9431,8.0141,8.0209,8.0209,8.0209,7.9261,7.8517,7.801,7.7029,7.6149,7.5337,7.51,7.483,7.4627,7.5134,7.4965,0.0,7.5709,7.9295,7.8653,7.5709,0.0,6.7049,6.1738,5.6528,5.2131,5.0033,4.9046,4.9316,4.988,5.1038,5.3604,5.543,5.8012,6.213,0.0,0.0,0.0,0.0,0.0,0.0,0.0,0.0,0.0,0.0,0.0,9.4349,9.3098,9.2522,9.2725,9.1541,9.0662,9.0222,8.9173,8.8666,8.8666,8.7177,8.6501,8.6433,8.6472,8.6414,8.6414,8.6414,8.6672,0.0,8.524,8.489,8.524,8.4819,8.464,8.464,8.464,8.4437,8.4234,8.4539,8.4437,8.4234,8.4539,8.464,8.464,8.464,8.4302,8.4031,8.4505,8.464,8.4268,8.278,8.2408,8.2035,8.0547,8.0412,8.0615,8.0615,8.0615,8.075,8.119,8.19,8.2543,8.3016,8.393,8.4471,8.3998,8.393,8.3761,8.3287,8.3016,8.2644,8.2171,8.1866,8.1528,8.1088,8.0107,7.9701,8.0175,8.0209,8.0209,8.0209,7.9498,7.8889,7.8416,7.7671,7.6927,7.6149,7.5405,7.5033,7.5033,7.5473,7.5439,0.0,6.9958,0.0,0.0,0.0,0.0,6.4613,5.9539,0.0,5.1758,4.9999,4.9229,4.9965,5.1185,5.2021,5.1732,5.5233,5.884,6.1251,6.717,0.0,0.0,0.0,0.0,0.0,0.0,0.0,0.0,0.0,0.0,9.3655,9.2725,9.1947,9.1352,9.0493,9.0121,9.0121,8.87,8.8023,8.8057,8.6501,8.5824,8.5932,8.6366,8.6512,0.0,8.6575,8.7305,8.8133,8.5684,8.5447,8.6316,8.5066,8.464,8.464,8.464,8.4167,8.3659,8.4302,8.4133,8.3693,8.4403,8.464,8.464,8.464,8.464,8.464,8.464,8.464,8.4268,8.278,8.2408,8.2035,8.0547,8.075,8.1257,8.1224,8.1291,8.1359,8.1291,8.1934,8.2475,8.2475,8.3693,8.464,8.464,8.464,8.464,8.464,8.3998,8.3558,8.349,8.2881,8.2475,8.2408,8.1088,8.0276,8.0276,8.0242,8.0209,8.0209,7.9498,7.9126,7.9126,7.8382,7.7638,7.6961,7.6183,7.5777,7.5777,7.5743,7.5709,5.5446,0.0,6.0047,5.9641,5.9336,5.8592,0.0,0.0,0.0,0.0,0.0,0.0,0.0,5.0758,5.1822,5.5742,5.7294,5.9592,6.4252,0.0,0.0,0.0,0.0,0.0,0.0,0.0,0.0,0.0,0.0,9.4073,9.4111,9.1908,9.1125,9.1913,9.0206,8.9342,8.9342,8.8463,8.826,8.8801,8.6738,8.6095,8.6711,8.743,8.7769,8.7861,8.8754,8.927,8.939,8.6961,8.6152,8.6316,8.5066,8.464,8.464,8.464,8.4505,8.4302,8.3896,8.4031,8.4403,8.4573,8.464,8.464,8.464,8.464,8.464,8.464,8.464,8.4268,8.278,8.2408,8.2035,8.0547,8.075,8.1122,8.0581,8.1359,8.1968,8.1393,8.234,8.3253,8.3253,8.3998,8.464,8.464,8.464,8.464,8.464,8.4471,8.4133,8.3558,8.3355,8.3016,8.2475,8.1562,8.1021,8.1021,8.0513,8.0209,8.0209,7.9498,7.9126,7.9126,7.8382,7.7908,7.7739,7.6995,7.6623,7.6589,7.598,7.5709,5.1792,5.3213,5.46,5.4194,5.4397,5.4499,0.0,0.0,0.0,0.0,0.0,0.0,0.0,0.0,0.0,5.5419,5.8029,6.2292,0.0,0.0,0.0,0.0,0.0,0.0,0.0,0.0,0.0,0.0,0.0,9.3827,9.4203,9.2282,9.1349,9.2131,9.0391,8.9158,8.8564,8.7854,8.7516,8.755,8.5993,8.5739,8.6748,8.7725,8.8526,8.9085,8.976,9.0284,9.0637,8.7677,8.6769,8.7056,8.524,8.464,8.464,8.464,8.464,8.4573,8.4167,8.4302,8.464,8.464,8.464,8.464,8.464,8.464,8.464,8.464,8.464,8.4268,8.278,8.2408,8.2137,8.0953,8.1257,8.1799,8.1731,8.234,8.278,8.2374,8.2949,8.349,8.349,8.4133,8.464,8.464,8.464,8.464,8.464,8.464,8.4471,8.4065,8.3998,8.3862,8.3456,8.2441,8.1663,8.1291,8.0615,8.0209,8.0209,7.9837,7.96,7.96,7.8889,7.8483,7.8483,7.7773,7.7232,7.6893,7.6454,7.6048,5.1319,5.2334,5.3247,5.2909,5.2807,5.2807,0.0,0.0,0.0,0.0,0.0,0.0,0.0,0.0,0.0,0.0,0.0,0.0,0.0,0.0,0.0,0.0,0.0,0.0,0.0,0.0,0.0,0.0,0.0,9.36,9.4178,9.2686,9.1957,9.2367,9.0603,8.9191,8.7946,8.7152,8.6467,8.596,8.5046,8.5308,8.6587,8.7748,8.8877,9.0078,0.0,0.0,9.1546,8.8277,8.7398,8.7952,8.5684,8.4819,8.464,8.464,8.464,8.464,8.464,8.4539,8.4471,8.4573,8.464,8.464,8.464,8.464,8.464,8.464,8.464,8.4302,8.2915,8.2509,8.2205,8.146,8.1866,8.2543,8.305,8.3321,8.3456,8.3355,8.3422,8.349,8.349,8.4133,8.464,8.464,8.464,8.464,8.464,8.464,8.464,8.464,8.464,8.464,8.464,8.3355,8.2272,8.1494,8.0648,8.0209,8.0209,8.0209,8.0209,8.0209,7.96,7.9295,7.9295,7.8517,7.7841,7.7232,7.6995,7.6521,5.1792,5.23,5.2029,5.0168,4.9695,4.9695,0.0,0.0,0.0,0.0,0.0,0.0,0.0,0.0,0.0,0.0,0.0,0.0,0.0,0.0,0.0,0.0,0.0,0.0,0.0,0.0,0.0,0.0,0.0,9.2406,9.3968,9.16,9.1158,9.3299,9.0476,8.8531,8.7706,8.6568,8.623,8.6704,8.5283,8.5616,8.7419,8.7994,8.8841,9.0123,0.0,9.162,9.1694,9.0087,8.8928,8.8043,8.6707,8.5515,8.464,8.464,8.464,8.464,8.464,8.42,8.3761,8.4403,8.464,8.464,8.464,8.464,8.464,8.464,8.464,8.4437,8.3558,8.2881,8.2205,8.146,8.1866,8.2272,8.1731,8.2611,8.3321,8.2712,8.3084,8.349,8.349,8.4133,8.464,8.464,8.464,8.464,8.464,8.464,8.464,8.464,8.464,8.464,8.464,8.3828,8.3016,8.2272,8.0953,8.0209,8.0209,8.0209,8.0209,8.0209,8.0073,8.004,8.004,7.9295,7.8889,7.8754,7.7468,7.6826,5.0913,5.0811,5.0574,5.0744,5.1116,5.1319,0.0,0.0,0.0,0.0,0.0,0.0,0.0,0.0,0.0,0.0,0.0,0.0,0.0,0.0,0.0,0.0,0.0,0.0,0.0,0.0,0.0,0.0,9.1575,9.1446,9.3272,9.1794,9.1458,9.2917,9.0474,8.8627,8.7627,8.6025,8.5317,8.5655,8.4945,8.5823,8.796,8.8129,8.9185,9.0984,0.0,9.1803,9.1694,9.0522,8.9306,8.8043,8.6865,8.5684,8.464,8.464,8.464,8.464,8.464,8.4403,8.4167,8.4505,8.464,8.464,8.464,8.464,8.464,8.464,8.464,8.4437,8.3693,8.3253,8.2915,8.2577,8.2746,8.3016,8.3084,8.3287,8.3389,8.305,8.2949,8.3016,8.3422,8.3795,8.4167,8.4573,8.464,8.464,8.464,8.464,8.464,8.464,8.464,8.464,8.464,8.393,8.3186,8.2475,8.1021,8.0378,8.0784,8.0412,8.0209,8.0209,8.0209,8.0209,8.0209,7.987,7.9498,7.9092,7.8416,7.7874,5.027,4.9965,4.9965,5.1826,0.0,0.0,0.0,0.0,0.0,0.0,0.0,0.0,0.0,0.0,0.0,0.0,0.0,0.0,0.0,0.0,0.0,0.0,0.0,0.0,0.0,0.0,0.0,9.188,9.0696,9.0657,9.2459,9.1635,9.1586,9.2573,9.0667,8.8961,8.7708,8.5926,8.489,8.464,8.464,8.5719,8.7769,8.8043,8.939,9.1435,9.1694,9.1803,9.173,9.0793,8.9558,8.8133,8.7246,8.5887,8.464,8.464,8.464,8.464,8.464,8.464,8.4606,8.4403,8.4471,8.4606,8.4403,8.4471,8.464,8.464,8.464,8.4505,8.3896,8.3625,8.3456,8.3287,8.3355,8.3558,8.3795,8.3659,8.3456,8.3287,8.278,8.2577,8.3152,8.3389,8.3693,8.4268,8.4505,8.464,8.464,8.464,8.464,8.464,8.464,8.464,8.464,8.393,8.3321,8.2949,8.1528,8.0885,8.1257,8.075,8.0445,8.0445,8.0276,8.0209,8.0209,8.0209,7.9904,7.9363,7.9194,7.8822,5.0777,5.1082,5.1251,0.0,0.0,0.0,0.0,0.0,0.0,0.0,0.0,0.0,0.0,0.0,0.0,0.0,0.0,0.0,0.0,0.0,0.0,0.0,0.0,0.0,0.0,0.0,9.1034,9.0425,8.9613,9.001,9.1682,9.0326,9.0581,9.3013,9.1067,8.9377,8.8149,8.69,8.5684,8.464,8.464,8.524,8.6575,8.7712,8.8963,9.0168,9.1324,9.1803,9.1803,9.1694,9.0284,8.8223,8.8204,8.6741,8.464,8.464,8.464,8.464,8.464,8.464,8.4505,8.3795,8.4065,8.4505,8.3795,8.4065,8.464,8.464,8.464,8.4606,8.4539,8.4031,8.3321,8.2644,8.3016,8.3152,8.1799,8.2577,8.3287,8.2611,8.2441,8.2441,8.2475,8.305,8.3524,8.3558,8.4167,8.464,8.464,8.464,8.464,8.464,8.464,8.464,8.464,8.393,8.3761,8.4437,8.3084,8.1968,8.1325,8.1224,8.119,8.119,8.0547,8.0209,8.0209,8.0209,8.0175,8.0107,7.9431,7.9092,5.0371,5.1183,5.2198,0.0,0.0,0.0,0.0,0.0,0.0,0.0,0.0,0.0,0.0,0.0,0.0,0.0,0.0,0.0,0.0,0.0,0.0,0.0,0.0,0.0,0.0,9.0433,8.9312,8.8269,8.7888,8.8145,8.9088,8.9319,8.9927,9.1146,9.0465,8.9878,8.9342,8.7434,8.6152,8.5684,8.4995,8.524,8.6414,8.7712,8.8877,9.0159,9.1285,9.1803,9.1803,9.1803,9.0364,8.8043,8.6547,8.5447,8.464,8.464,8.464,8.464,8.464,8.464,8.4573,8.4302,8.4403,8.4573,8.4302,8.4403,8.464,8.464,8.464,8.464,8.464,8.4403,8.4133,8.3862,8.3998,8.4031,8.349,8.3422,8.3422,8.3152,8.234,8.1866,8.234,8.2644,8.2983,8.3422,8.4133,8.464,8.464,8.464,8.464,8.464,8.464,8.464,8.464,8.437,8.4133,8.393,8.2543,8.2002,8.2644,8.1359,8.0818,8.1291,8.0581,8.0209,8.0209,8.0209,8.0209,8.0175,7.9904,7.9769,4.9695,5.0304,5.1285,5.2807,0.0,0.0,0.0,0.0,0.0,0.0,0.0,0.0,0.0,0.0,0.0,0.0,0.0,0.0,0.0,0.0,0.0,0.0,0.0,0.0,9.1194,8.9652,8.8398,8.7561,8.6888,8.6909,8.7562,8.8475,8.9324,8.9924,9.04,9.0436,9.0078,8.8402,8.7116,8.6414,8.5617,8.5412,8.5852,8.7246,8.8453,8.9594,9.0842,9.1436,9.1436,9.1436,8.9857,8.7246,8.5539,8.4551,8.4302,8.4539,8.464,8.464,8.464,8.4471,8.4234,8.3998,8.4065,8.4234,8.3998,8.4268,8.464,8.464,8.464,8.464,8.464,8.464,8.4573,8.4336,8.4437,8.4505,8.4031,8.3896,8.3795,8.3558,8.2678,8.2069,8.2374,8.2611,8.2847,8.3118,8.3998,8.464,8.464,8.464,8.464,8.464,8.464,8.464,8.464,8.464,8.4403,8.3896,8.2678,8.2441,8.3456,8.2035,8.1359,8.1629,8.0919,8.0412,8.0209,8.0209,8.0209,8.0209,8.0209,8.0209,4.8815,4.8511,4.8308,0.0,0.0,0.0,0.0,0.0,0.0,0.0,0.0,0.0,0.0,0.0,0.0,0.0,0.0,0.0,0.0,0.0,0.0,0.0,9.1988,9.1558,9.2268,9.0094,8.8736,8.8635,8.6915,8.6329,8.7527,8.7948,8.8754,8.9888,9.1136,9.1249,9.0006,8.997,8.8805,8.6379,8.6379,8.5751,8.4679,8.6253,8.748,8.8277,8.988,9.0592,9.0592,9.0592,8.8734,8.5817,8.5342,8.4486,8.3592,8.4336,8.4606,8.4606,8.4606,8.4133,8.3355,8.2644,8.2881,8.3355,8.2644,8.3456,8.4606,8.464,8.464,8.464,8.464,8.4606,8.4437,8.3659,8.4065,8.4234,8.2746,8.3592,8.4403,8.3659,8.349,8.3253,8.2543,8.3016,8.3253,8.2543,8.3693,8.464,8.464,8.464,8.464,8.464,8.464,8.464,8.464,8.464,8.464,8.464,8.393,8.349,8.349,8.349,8.3152,8.2408,8.1663,8.0919,8.0209,8.0209,8.0209,8.0209,8.0209,8.0209,5.0371,5.0405,0.0,0.0,0.0,0.0,0.0,0.0,0.0,0.0,0.0,0.0,0.0,0.0,0.0,0.0,0.0,0.0,0.0,0.0,8.9662,9.0813,9.1348,9.138,9.0809,8.929,8.804,8.7107,8.5718,8.5158,8.5407,8.7196,8.8065,8.7848,8.988,9.0521,8.9605,8.8698,8.7987,8.7201,8.5601,8.4755,8.4679,8.6253,8.7072,8.7462,8.908,8.9784,8.9676,8.8868,8.7438,8.5746,8.4844,8.3697,8.2813,8.3558,8.3524,8.3152,8.3659,8.3355,8.2712,8.2475,8.2543,8.278,8.3084,8.349,8.393,8.4471,8.464,8.464,8.464,8.4234,8.3761,8.3558,8.4065,8.437,8.3389,8.393,8.4573,8.4336,8.3862,8.3422,8.3219,8.3355,8.3422,8.3219,8.3998,8.464,8.464,8.464,8.464,8.464,8.464,8.464,8.464,8.464,8.464,8.464,8.4403,8.4065,8.3524,8.2475,8.1832,8.1629,8.0885,8.0412,8.0209,8.0209,8.0209,8.0209,8.0209,8.0209,5.0405,0.0,0.0,0.0,0.0,0.0,0.0,0.0,0.0,0.0,0.0,0.0,0.0,0.0,0.0,0.0,0.0,0.0,0.0,0.0,8.7549,8.8915,8.9984,9.051,9.0243,8.9497,8.8437,8.7246,8.5953,8.5066,8.4606,8.6137,8.7009,8.6966,8.8606,8.9459,8.9417,8.869,8.8087,8.7545,8.5711,8.4647,8.4421,8.5623,8.6223,8.6647,8.8244,8.894,8.8833,8.7814,8.6722,8.5549,8.4703,8.3616,8.2681,8.2987,8.278,8.2475,8.2915,8.2577,8.1968,8.1968,8.1968,8.2035,8.2475,8.2813,8.3152,8.3625,8.3761,8.3761,8.3761,8.3422,8.3152,8.3422,8.3862,8.4065,8.3592,8.4099,8.464,8.464,8.4268,8.3862,8.3558,8.3727,8.3828,8.3524,8.4133,8.464,8.464,8.464,8.464,8.464,8.464,8.464,8.464,8.464,8.464,8.464,8.464,8.4302,8.3524,8.2644,8.2035,8.1731,8.1021,8.0479,8.0209,8.0209,8.0209,8.0209,8.0209,8.0209,0.0,0.0,0.0,0.0,0.0,0.0,0.0,0.0,0.0,0.0,0.0,0.0,0.0,0.0,0.0,0.0,0.0,0.0,0.0,0.0,8.4957,8.7304,8.8274,8.9253,9.041,9.0134,8.9414,8.8189,8.6941,8.5646,8.4581,8.4927,8.5705,8.6754,8.7311,8.8095,8.9087,8.9087,8.8545,8.7414,8.6216,8.5003,8.4005,8.4386,8.495,8.5827,8.7338,8.7949,8.7802,8.7178,8.6174,8.5057,8.473,8.384,8.276,8.2444,8.2308,8.2205,8.2272,8.1832,8.119,8.119,8.119,8.119,8.1257,8.1765,8.2306,8.2408,8.2408,8.2408,8.2408,8.2374,8.2475,8.3152,8.3389,8.349,8.3422,8.4031,8.464,8.464,8.464,8.4403,8.3727,8.4167,8.4403,8.3693,8.42,8.464,8.464,8.464,8.464,8.464,8.464,8.464,8.464,8.464,8.464,8.464,8.464,8.4302,8.3625,8.3456,8.305,8.2306,8.1562,8.0851,8.0209,8.0209,8.0209,8.0209,8.0209,8.0209,0.0,0.0,0.0,0.0,0.0,0.0,0.0,0.0,0.0,0.0,0.0,0.0,0.0,0.0,0.0,0.0,0.0,0.0,0.0,8.2652,8.4123,8.6025,8.7285,8.8418,8.9566,8.8789,8.8005,8.7726,8.5792,8.4454,8.4196,8.4412,8.4658,8.5162,8.6199,8.6752,8.6591,8.6554,8.6485,8.6132,8.4419,8.3254,8.289,8.3236,8.3754,8.4535,8.5771,8.5967,8.5416,8.5857,8.5007,8.351,8.3996,8.3032,8.1263,8.1776,8.1444,8.075,8.1325,8.1054,8.0445,8.0445,8.0445,8.0547,8.1088,8.1393,8.1663,8.2238,8.2408,8.2408,8.2408,8.1968,8.1562,8.1731,8.2644,8.3321,8.278,8.3693,8.464,8.464,8.464,8.4573,8.4403,8.4505,8.4573,8.4403,8.4539,8.464,8.464,8.464,8.464,8.464,8.464,8.464,8.464,8.464,8.464,8.464,8.464,8.4539,8.4403,8.3253,8.2306,8.1528,8.0818,8.0344,8.0209,8.0209,8.0209,8.0209,8.0209,8.0209,0.0,0.0,0.0,0.0,0.0,0.0,0.0,0.0,0.0,0.0,0.0,0.0,0.0,0.0,0.0,0.0,0.0,0.0,7.9701,8.0842,8.2052,8.2801,8.494,8.6585,8.7412,8.8104,8.82,8.766,8.6524,8.5534,8.4936,8.4064,8.4026,8.4895,8.4702,8.4593,8.4682,8.5013,8.5013,8.4646,8.3448,8.2263,8.1191,8.191,8.2665,8.3657,8.471,8.4976,8.4646,8.5049,8.463,8.37,8.3552,8.3029,8.2234,8.1548,8.1164,8.1034,8.0817,8.0513,8.0209,8.0209,8.0209,8.0209,8.0242,8.0242,8.0344,8.0716,8.0818,8.0919,8.1257,8.1054,8.075,8.075,8.1629,8.234,8.1968,8.305,8.4065,8.4065,8.437,8.464,8.464,8.464,8.464,8.464,8.464,8.464,8.464,8.464,8.464,8.464,8.464,8.464,8.464,8.464,8.464,8.464,8.464,8.464,8.464,8.3524,8.2746,8.234,8.1257,8.0716,8.0716,8.0378,8.0209,8.0209,8.0209,8.0209,0.0,0.0,0.0,0.0,0.0,0.0,0.0,0.0,0.0,0.0,0.0,0.0,0.0,0.0,0.0,0.0,0.0,7.9397,7.8145,7.9025,7.979,7.974,8.2331,8.4409,8.4953,8.7195,8.8143,8.7177,8.6908,8.6388,8.5579,8.355,8.3244,8.4943,8.3101,8.2356,8.3214,8.3728,8.3654,8.2994,8.254,8.1204,7.9301,8.0126,8.1132,8.2349,8.3296,8.3741,8.3801,8.4058,8.4095,8.3918,8.3265,8.3298,8.3462,8.1383,8.0927,8.1343,8.0232,7.9803,7.9837,7.9972,7.9904,7.9735,7.9261,7.9025,7.8957,7.9058,7.9126,7.9295,8.0006,8.0209,8.0209,8.0209,8.0648,8.1122,8.1257,8.234,8.3355,8.349,8.4099,8.464,8.464,8.464,8.464,8.464,8.464,8.4573,8.4437,8.4539,8.4573,8.4437,8.4539,8.464,8.464,8.464,8.464,8.464,8.464,8.464,8.464,8.4031,8.3693,8.3693,8.2103,8.1291,8.1291,8.0547,8.0209,8.0209,8.0209,8.0209,0.0,0.0,0.0,0.0,0.0,0.0,0.0,0.0,0.0,0.0,0.0,0.0,0.0,0.0,0.0,0.0,7.8653,7.8213,7.801,7.8145,7.8633,7.9602,8.0926,8.2201,8.3257,8.446,8.5165,8.4991,8.4064,8.3759,8.4325,8.161,8.1348,8.4191,8.1782,8.1031,8.237,8.1782,8.1452,8.1342,8.0327,7.924,7.8044,7.7453,7.8071,7.9471,7.9935,8.0276,8.0534,8.1929,8.2113,8.1636,8.2861,8.2825,8.1842,8.0633,8.0036,7.9787,7.8701,7.828,7.8382,7.9058,7.8822,7.8382,7.8957,7.8653,7.828,7.8923,7.9126,7.9295,8.0006,8.0209,8.0209,8.0209,8.0276,8.0513,8.1156,8.1968,8.2746,8.3389,8.4099,8.464,8.464,8.464,8.464,8.464,8.464,8.4403,8.3727,8.42,8.437,8.3727,8.4234,8.464,8.464,8.464,8.464,8.464,8.464,8.464,8.464,8.4539,8.4471,8.4471,8.2374,8.1291,8.1291,8.0547,8.0209,8.0209,8.0209,8.0209,0.0,0.0,0.0,0.0,0.0,0.0,0.0,0.0,0.0,0.0,0.0,0.0,0.0,0.0,0.0,7.6758,7.7367,7.7536,7.6284,7.7198,7.7832,7.7451,7.9193,8.0465,8.072,8.2104,8.3256,8.3845,8.3431,8.3332,8.3696,8.1819,8.1234,8.2315,8.0582,7.9865,8.0204,8.0277,8.0314,8.0314,7.9852,7.9064,7.7983,7.6636,7.6576,7.7602,7.8457,7.9158,7.9837,8.0534,8.0645,8.0388,8.1122,8.1629,8.1845,8.0721,8.042,8.0386,7.9235,7.849,7.8044,7.8382,7.8247,7.7976,7.7908,7.7638,7.7435,7.7773,7.8145,7.8653,7.9397,7.9904,8.0209,8.0209,8.0209,8.0276,8.0615,8.1257,8.2103,8.3287,8.3761,8.4133,8.4539,8.464,8.464,8.464,8.464,8.4336,8.3592,8.3795,8.3862,8.3524,8.3795,8.4167,8.4573,8.464,8.464,8.464,8.464,8.464,8.464,8.42,8.3998,8.3998,8.3016,8.2509,8.2509,8.1359,8.1021,8.1426,8.1021,8.1021,0.0,0.0,0.0,0.0,0.0,0.0,0.0,0.0,0.0,0.0,0.0,0.0,0.0,0.0,7.6352,7.4864,7.5879,7.6318,7.483,7.6048,7.6758,7.5811,7.7514,7.8659,7.8318,7.988,8.1272,8.2007,8.2311,8.259,8.281,8.1559,8.0908,8.0984,7.9493,7.8695,7.8589,7.8993,7.9286,7.947,7.925,7.8727,7.7809,7.63,7.5858,7.6391,7.6947,7.7973,7.9176,7.9396,7.9507,7.9507,7.969,8.0534,8.1469,8.0549,8.0462,8.0678,7.9756,7.8741,7.785,7.8054,7.7827,7.7333,7.6995,7.6758,7.669,7.7063,7.757,7.8213,7.916,7.9803,8.0209,8.0209,8.0209,8.0209,8.0209,8.0784,8.1663,8.2983,8.3219,8.3524,8.4471,8.4471,8.4403,8.4606,8.464,8.4336,8.3592,8.3659,8.3625,8.3253,8.3558,8.393,8.4302,8.4505,8.464,8.464,8.464,8.464,8.464,8.3896,8.349,8.349,8.3321,8.3219,8.3219,8.1934,8.1562,8.2103,8.1562,8.1494,0.0,0.0,0.0,0.0,0.0,0.0,0.0,0.0,0.0,0.0,0.0,0.0,0.0,7.324,7.3916,7.4525,7.4119,7.3916,7.4525,7.4728,7.4999,7.5642,7.6107,7.6418,7.6314,7.7566,7.842,7.842,7.9384,8.0314,8.1085,7.938,7.9203,8.091,7.8436,7.7534,7.8589,7.7818,7.7855,7.8662,7.7818,7.7304,7.7014,7.6151,7.5826,7.5757,7.49,7.5654,7.7524,7.8332,7.8662,7.8736,7.9507,7.9837,7.992,7.9568,7.9432,7.9467,7.9159,7.8266,7.749,7.8252,7.7227,7.5946,7.669,7.6352,7.6082,7.7536,7.7942,7.8314,7.9769,8.0175,8.0209,8.0209,8.0209,8.0209,8.0209,8.0784,8.1528,8.2306,8.2475,8.2915,8.437,8.4031,8.3795,8.4505,8.464,8.4336,8.3592,8.4133,8.4031,8.2611,8.3727,8.4302,8.3625,8.42,8.464,8.464,8.464,8.464,8.464,8.3896,8.349,8.349,8.2813,8.2475,8.2475,8.1663,8.1291,8.1359,8.1291,8.0953,0.0,0.0,0.0,0.0,0.0,0.0,0.0,0.0,0.0,0.0,0.0,0.0,7.1751,7.2665,7.3274,7.2597,7.3037,7.3409,7.3206,7.4018,7.4695,7.4965,7.5068,7.5207,7.5414,7.5487,7.6021,7.7305,7.7792,7.8413,7.9433,7.8784,7.8528,7.8626,7.7687,7.7358,7.7781,7.7488,7.7488,7.7781,7.7451,7.7228,7.713,7.6239,7.6161,7.6728,7.5718,7.6027,7.7341,7.7671,7.7781,7.7818,7.8075,7.8552,7.9003,7.893,7.8763,7.8675,7.9066,7.8044,7.6625,7.7509,7.6839,7.5743,7.6048,7.5912,7.5912,7.6995,7.7638,7.8213,7.9228,7.987,8.0209,8.0209,8.0209,8.0209,8.0209,8.0412,8.0818,8.1528,8.1697,8.2171,8.3659,8.3659,8.3761,8.4505,8.464,8.4336,8.3592,8.3727,8.3524,8.2509,8.2881,8.3084,8.2813,8.349,8.3896,8.3896,8.437,8.464,8.464,8.3456,8.278,8.278,8.2069,8.1934,8.2408,8.1663,8.1528,8.2002,8.1494,8.1663,0.0,0.0,0.0,0.0,0.0,0.0,0.0,0.0,0.0,0.0,0.0,7.0737,7.121,7.209,7.2428,7.1481,7.2124,7.2665,7.2428,7.324,7.395,7.4221,7.4018,7.3889,7.4116,7.3756,7.4066,7.5505,7.6194,0.0,7.7632,7.8024,7.7892,7.7341,7.7304,7.7304,7.7304,7.7304,7.7304,7.7304,7.7304,7.7304,7.7243,7.6628,7.6628,7.7243,7.6264,7.6197,7.6793,7.7181,7.7082,7.6856,7.7181,7.7671,7.8222,7.8479,7.8464,7.8441,7.9271,7.8298,7.6775,7.7263,7.663,7.5709,7.5709,7.5709,7.5879,7.6657,7.7232,7.7841,7.8855,7.9667,8.0209,8.0209,8.0209,8.0209,8.0209,8.0209,8.0412,8.1156,8.1088,8.1393,8.2881,8.3118,8.3389,8.4133,8.4471,8.4437,8.393,8.3659,8.3219,8.2475,8.2408,8.2306,8.2069,8.2915,8.349,8.349,8.3964,8.4234,8.4234,8.2813,8.2035,8.2035,8.1291,8.1156,8.1663,8.1426,8.1528,8.2035,8.1765,8.234,0.0,0.0,0.0,0.0,0.0,0.0,0.0,0.0,0.0,0.0,6.7963,6.9485,7.1007,7.1312,7.1312,7.1312,7.1312,7.1548,7.2259,7.2394,7.2665,7.3375,7.2834,7.2394,7.2394,7.264,7.2797,7.2797,7.461,7.5718,7.5787,7.6728,7.7304,7.7304,7.7304,7.7304,7.7268,7.7268,7.7268,7.7268,7.7268,7.7304,7.7304,7.7304,7.7304,7.7243,7.6264,7.5823,7.5855,7.6793,7.6628,7.5891,7.6856,7.7243,7.7414,7.8259,7.8552,7.8662,7.947,7.8852,7.7779,7.7815,7.6851,7.5737,7.5737,7.5676,7.5879,7.6657,7.6893,7.7232,7.8686,7.9634,8.0175,8.0175,8.0175,8.0209,8.0209,8.0209,8.0412,8.1122,8.0682,8.0648,8.2137,8.2408,8.2644,8.3389,8.4133,8.464,8.464,8.3964,8.3219,8.2475,8.2408,8.2069,8.1325,8.2577,8.3422,8.3422,8.3456,8.349,8.349,8.2069,8.1291,8.1325,8.0581,8.0209,8.0209,8.0919,8.1257,8.1257,8.2069,8.278,5.1014,0.0,0.0,0.0,0.0,0.0,0.0,0.0,0.0,6.4005,6.6034,6.8064,7.0128,7.0939,7.1312,7.1312,7.1312,7.1379,7.1582,7.2056,7.2462,7.2665,7.2529,7.2394,7.2394,7.1953,7.1969,0.0,7.3332,7.431,7.5718,7.6728,7.7304,7.7304,7.7304,7.7047,7.646,7.6423,7.6423,7.6423,7.6423,7.6754,7.7304,7.7304,7.7304,7.7243,7.7019,7.6498,7.5787,7.5299,7.5369,7.5823,7.6094,7.6628,7.7341,7.7598,7.7671,7.7781,7.8626,7.8104,7.7272,7.7882,7.7178,7.6011,7.6011,7.5822,7.5879,7.6657,7.6893,7.713,7.8044,7.9228,8.0073,7.9532,7.9803,8.0209,8.0209,8.0209,8.0242,8.0445,8.0344,8.0513,8.1426,8.2069,8.2644,8.3389,8.4133,8.464,8.464,8.3964,8.3219,8.2475,8.1934,8.1291,8.0547,8.1359,8.19,8.19,8.2408,8.2949,8.349,8.2069,8.1528,8.2103,8.0851,8.0209,8.0209,8.0412,8.0513,8.0513,8.1832,8.2509,0.0,0.0,0.0,0.0,0.0,0.0,5.4432,5.5886,5.7915,0.0,6.2042,6.4444,6.732,6.847,6.9282,7.0229,7.0398,7.0601,7.121,7.1684,7.1954,7.1954,7.1954,7.1954,7.1954,7.1548,7.1546,7.2142,7.2582,7.3694,7.5718,7.633,7.671,7.6827,7.6827,7.6423,7.5616,7.5616,7.5616,7.5616,7.5946,7.635,7.6827,7.7157,7.7304,7.7243,7.6856,7.633,7.5718,7.4234,7.4535,7.5787,7.5787,7.6396,7.7304,7.7304,7.7304,7.7378,7.7892,7.7575,7.6944,7.7449,7.7067,7.6217,7.614,7.6011,7.5959,7.6245,7.6657,7.6995,7.7435,7.8416,7.916,7.8754,7.8957,7.9363,7.9667,7.9735,7.9837,8.0141,8.0209,8.0344,8.075,8.146,8.2103,8.2509,8.349,8.4167,8.4167,8.349,8.2881,8.2475,8.146,8.0648,8.0242,8.0885,8.1291,8.1291,8.1697,8.2137,8.2543,8.146,8.1021,8.146,8.0648,8.0209,8.0209,8.0209,8.0344,8.0682,8.1866,8.2577,0.0,0.0,0.0,0.0,0.0,0.0,5.2864,5.3043,5.3957,0.0,5.7476,5.9979,6.3565,6.4884,6.6068,6.803,6.8639,6.9383,7.0973,7.1278,7.1278,7.121,7.1278,7.1312,7.1312,7.1312,7.1312,7.1312,7.2193,7.3466,7.5118,7.5469,7.569,7.5825,7.5886,7.5579,7.4771,7.4771,7.4771,7.4808,7.5506,7.5873,7.5983,7.6827,7.7194,7.7133,7.6294,7.5959,7.5787,7.3928,7.4158,7.5787,7.5649,7.633,7.7304,7.7304,7.7304,7.7304,7.7304,7.7166,7.6903,7.6903,7.6732,7.6533,7.6203,7.6089,7.6016,7.5816,7.6284,7.6893,7.6792,7.7367,7.7976,7.7874,7.7942,7.8179,7.8957,7.9126,7.9329,8.0073,8.0209,8.0209,8.0209,8.0784,8.1291,8.1291,8.2475,8.3389,8.3389,8.2746,8.2272,8.2272,8.1021,8.0209,8.0209,8.0784,8.1156,8.1156,8.1156,8.119,8.1291,8.0581,8.0242,8.031,8.0242,8.0209,8.0209,8.0209,8.0547,8.119,8.2035,8.2746,0.0,0.0,0.0,0.0,0.0,0.0,5.4212,5.3844,5.4093,0.0,5.7408,5.8896,6.1467,6.3024,6.3903,6.3734,6.5696,6.7996,7.0128,7.0939,7.1075,7.0466,7.0939,7.1312,7.1312,7.1312,7.1312,7.1312,7.2193,7.2406,7.163,7.3619,7.4555,7.3993,7.4763,7.4771,7.3927,7.3927,7.3927,7.3927,7.4074,7.4515,7.5175,7.5983,7.635,7.6387,7.6825,7.7019,7.692,7.5718,7.544,7.5718,7.4903,7.5685,7.7304,7.7304,7.7304,7.7304,7.7304,7.7291,7.7239,7.7239,7.7026,7.6805,7.6498,7.6314,7.6016,7.5816,7.6284,7.6758,7.6082,7.6961,7.7841,7.7266,7.757,7.8179,7.8957,7.9126,7.9329,8.0073,8.0209,8.0209,8.0209,8.0784,8.1291,8.1291,8.2035,8.2611,8.2611,8.1968,8.1494,8.1494,8.0716,8.0209,8.0209,8.031,8.0412,8.0412,8.0412,8.0682,8.1257,8.0581,8.0479,8.1054,8.0479,8.0209,8.0209,8.0209,8.0276,8.0445,8.1799,8.2475,0.0,0.0,0.0,5.6097,0.0,0.0,0.0,5.2912,5.2672,5.3788,5.4296,5.5378,5.8017,5.9133,6.0114,6.1603,6.2753,6.4241,6.6542,6.8436,6.9485,6.9079,6.9383,6.962,6.962,6.9992,7.0195,7.0195,7.0652,7.0835,7.058,7.1839,7.2656,7.29,7.3389,7.3435,7.3083,7.3083,7.3083,7.312,7.3487,7.3891,7.4331,7.5139,7.5506,7.5542,7.635,7.6717,7.6656,7.6016,7.5787,7.5718,7.5192,7.5959,7.7304,7.7304,7.7304,7.7304,7.7304,7.7304,7.7304,7.7304,7.7212,7.7129,7.7271,7.7062,7.671,7.6587,7.6386,7.6217,7.5811,7.6251,7.6758,7.6386,7.6589,7.7164,7.8314,7.8551,7.8889,8.0006,8.0209,8.0209,8.0209,8.0513,8.075,8.075,8.1359,8.1832,8.1832,8.1528,8.1291,8.1291,8.0648,8.0209,8.0209,8.0209,8.0209,8.0209,8.0209,8.0378,8.0716,8.0412,8.0378,8.075,8.0378,8.0209,8.0209,8.0209,8.0209,8.0242,8.1325,8.2069,0.0,0.0,0.0,0.0,0.0,5.5638,0.0,0.0,0.0,5.1657,5.1657,0.0,0.0,0.0,0.0,5.9133,0.0,0.0,0.0,6.441,0.0,6.7184,6.7015,6.7049,6.7624,6.803,6.8402,6.8842,6.847,6.8659,6.9566,6.9807,7.0394,7.1339,7.1536,7.1791,7.2055,7.2055,7.2129,7.2275,7.2936,7.3303,7.3487,7.4294,7.4661,7.4735,7.5689,7.6093,7.6106,7.6069,7.6094,7.6094,7.5891,7.633,7.7019,7.7243,7.7304,7.7304,7.7304,7.7304,7.7304,7.7304,7.7401,7.7587,7.8053,7.8015,7.7633,7.7424,7.669,7.5926,7.5771,7.5709,7.5709,7.5709,7.5709,7.6082,7.7468,7.7874,7.8348,7.9532,7.9904,8.004,8.0175,8.0209,8.0209,8.0209,8.0716,8.1088,8.1088,8.1088,8.1088,8.1088,8.0547,8.0209,8.0209,8.0209,8.0209,8.0209,8.0209,8.0209,8.0209,8.0209,8.0209,8.0209,8.0209,8.0209,8.0209,8.0209,8.0276,8.0412,8.1156,8.19,0.0,0.0,0.0,0.0,5.786,0.0,0.0,0.0,5.3989,5.3347,0.0,0.0,0.0,0.0,0.0,0.0,0.0,0.0,5.6731,5.8592,6.1264,6.458,6.3802,6.4038,6.6677,6.5831,6.5933,6.7895,6.6203,6.5474,6.6248,6.7065,6.7605,6.7862,6.873,6.9576,7.0367,7.0367,7.0734,7.1468,7.1541,7.1945,7.2679,7.345,7.3817,7.3927,7.5432,7.6093,7.6166,7.6814,7.7118,7.7019,7.6197,7.5891,7.6094,7.6956,7.7304,7.7304,7.7304,7.7304,7.7304,7.7304,7.7648,7.8095,7.8169,7.8477,7.8577,7.7563,7.7248,7.6927,7.596,7.5709,7.5709,7.5709,7.5709,7.5946,7.6826,7.7536,7.8044,7.8213,7.8788,7.9431,8.0073,8.0209,8.0209,8.0209,8.0276,8.031,8.031,8.031,8.031,8.031,8.0242,8.0209,8.0209,8.0209,8.0209,8.0209,8.0209,8.0209,8.0209,8.0209,8.0209,8.0209,8.0209,8.0209,8.0209,8.0209,8.0547,8.119,8.1934,8.2678,0.0,0.0,0.0,0.0,0.0,0.0,5.5964,0.0,5.4356,0.0,0.0,0.0,0.0,0.0,0.0,0.0,5.46,0.0,0.0,0.0,5.6664,6.0858,0.0,0.0,6.3396,6.3057,6.3057,6.4005,6.3226,6.299,6.3734,6.454,6.5524,6.6491,6.7472,6.8399,6.9368,6.9848,7.0257,7.0624,7.1101,7.1505,7.1835,7.2642,7.301,7.3083,7.4221,7.4955,7.5469,7.6276,7.6517,7.6432,7.6628,7.6628,7.6728,7.7181,7.7304,7.7304,7.7304,7.7304,7.7304,7.7304,7.7824,7.8413,7.8413,7.8351,7.816,7.7146,7.6331,7.5651,7.5127,7.5067,7.5168,7.5608,7.5709,7.5912,7.6724,7.713,7.7468,7.7908,7.8247,7.8686,7.9431,7.9566,7.9701,8.0141,8.0209,8.0209,8.0209,8.0209,8.0209,8.0209,8.0209,8.0209,8.0209,8.0209,8.0209,8.0209,8.0209,8.0209,8.0209,8.0209,8.0209,8.0209,8.0209,8.0209,8.0209,8.0209,8.0784,8.1934,8.1393,8.1968,5.6091,0.0,0.0,0.0,0.0,0.0,0.0,0.0,0.0,0.0,0.0,0.0,0.0,0.0,0.0,0.0,0.0,5.3551,0.0,5.2875,0.0,0.0,0.0,0.0,0.0,5.9708,5.981,6.0622,5.9742,5.9844,6.14,6.1975,6.3119,6.5001,6.611,6.7166,6.81,6.9039,6.9559,6.9779,7.0367,7.077,7.0991,7.1798,7.2165,7.2239,7.323,7.4147,7.4955,7.5763,7.6126,7.6264,7.7019,7.7304,7.7304,7.7304,7.7304,7.7304,7.7304,7.7304,7.7304,7.7304,7.7892,7.8589,7.8589,7.8477,7.8084,7.6908,7.5903,7.5048,7.4712,7.4627,7.4796,7.5506,7.5709,7.5845,7.6454,7.6893,7.7232,7.7333,7.7874,7.8416,7.8754,7.8991,7.9363,8.0073,8.0209,8.0209,8.0209,8.0209,8.0209,8.0209,8.0209,8.0209,8.0209,8.0209,8.0209,8.0209,8.0209,8.0209,8.0209,8.0209,8.0209,8.0209,8.0209,8.0209,8.0209,8.0209,8.0953,8.2374,8.1291,8.1866,0.0,0.0,0.0,5.818,0.0,0.0,0.0,0.0,5.8248,0.0,0.0,0.0,0.0,0.0,0.0,0.0,0.0,0.0,0.0,5.1894,5.2909,5.4532,0.0,0.0,0.0,5.5649,5.5987,0.0,5.5784,5.5344,5.893,5.9133,6.0223,6.261,6.4212,6.5561,6.6476,6.7303,6.8164,6.8935,6.8972,6.9376,7.0183,7.0991,7.1358,7.1431,7.301,7.4147,7.4955,7.5763,7.657,7.7243,7.7243,7.7304,7.7304,7.7304,7.7304,7.7304,7.7304,7.7304,7.7304,7.7304,7.7892,7.8589,7.8589,7.9113,7.934,7.7148,7.6533,7.6268,7.4969,7.4627,7.4796,7.5506,7.5709,7.5709,7.5743,7.6893,7.7536,7.6048,7.757,7.8855,7.8145,7.8619,7.9363,8.0073,8.0209,8.0209,8.0209,8.0209,8.0209,8.0209,8.0209,8.0209,8.0209,8.0209,8.0209,8.0209,8.0209,8.0209,8.0209,8.0209,8.0209,8.0209,8.0209,8.0209,8.0209,8.0209,8.0953,8.2408,8.2374,8.3152,0.0,0.0,5.9024,5.8217,0.0,0.0,0.0,0.0,0.0,0.0,0.0,0.0,0.0,0.0,0.0,0.0,0.0,0.0,0.0,5.1285,5.1217,0.0,0.0,0.0,0.0,0.0,0.0,0.0,5.2706,0.0,5.5243,5.6765,5.8569,6.0876,6.2541,6.4104,6.549,6.6368,6.7263,6.8091,6.8641,6.9045,6.9339,7.0146,7.0807,7.1358,7.1872,7.2863,7.4147,7.4404,7.5285,7.6533,7.6533,7.6827,7.7304,7.7304,7.7304,7.7304,7.7304,7.7304,7.7304,7.7304,7.7524,7.7745,7.7745,7.7778,7.751,7.5609,7.4976,7.4712,7.4071,7.3883,7.4187,7.5405,7.5709,7.5709,7.5709,7.6521,7.6961,7.5912,7.713,7.828,7.8044,7.8619,7.9363,8.0073,7.9769,7.9667,8.0141,8.0209,8.0209,8.0209,8.0209,8.0209,8.0209,8.0209,8.0209,8.0209,8.0209,8.0209,8.0209,8.0209,8.0209,8.0209,8.0209,8.0209,8.0209,8.0682,8.1426,8.2408,8.2915,8.3659,5.829,5.8584,0.0,5.8547,5.9024,0.0,5.8019,0.0,0.0,0.0,0.0,0.0,0.0,0.0,0.0,0.0,5.3413,5.2807,0.0,5.0845,0.0,0.0,0.0,0.0,0.0,0.0,0.0,0.0,0.0,0.0,0.0,5.4126,5.6359,5.8863,6.1077,6.2996,6.4574,6.5761,6.6852,6.7687,6.8238,6.8458,6.8495,6.9302,6.9963,7.0477,7.1064,7.2055,7.3303,7.356,7.4661,7.6093,7.6093,7.6607,7.7304,7.7304,7.7304,7.7304,7.7304,7.7304,7.7304,7.7304,7.7304,7.7304,7.7304,7.7158,7.6855,7.5943,7.507,7.4517,7.4816,7.4388,7.4187,7.5405,7.5709,7.5709,7.5709,7.6318,7.6657,7.5845,7.6927,7.7976,7.7976,7.8382,7.9058,8.004,7.9803,7.9667,8.0141,8.0209,8.0209,8.0209,8.0209,8.0209,8.0209,8.0209,8.0209,8.0209,8.0209,8.0209,8.0209,8.0209,8.0445,8.0987,8.0479,8.0445,8.0987,8.0919,8.1426,8.2408,8.2881,8.3659]},{"header":{"parameterUnit":"m.s-1","parameterCategory":1,"la1":30.6,"la2":29.2853,"lo1":-89.7004,"lo2":-87.6739,"dy":0.0162,"dx":0.0183,"nx":112,"ny":82,"refTime":"2023-04-16T12:00:00:Z","depth":0,"parameterNumber":3,"parameterNumberName":"V-component_of_WINDS"},"data":[0.0,0.0,0.0,0.0,0.0,0.0,0.0,0.0,0.0,0.0,0.0,0.0,0.0,0.0,0.0,0.0,0.0,0.0,0.0,0.0,0.0,0.0,0.0,0.0,0.0,0.0,0.0,0.0,0.0,0.0,0.0,0.0,0.0,0.0,0.0,0.0,0.0,0.0,0.0,0.0,0.0,0.0,0.0,0.0,0.0,0.0,0.0,0.0,0.0,0.0,0.0,0.0,0.0,0.0,0.0,0.0,0.0,0.0,0.0,0.0,0.0,0.0,0.0,0.0,0.0,0.0,0.0,0.0,0.0,0.0,0.0,0.0,0.0,0.0,0.0,0.0,0.0,0.0,0.0,0.0,0.0,0.0,0.0,0.0,0.0,0.0,0.0,0.0,0.0,0.0,-3.8065,-4.1831,-4.9188,-5.3833,-5.3833,-5.4486,-5.2026,-4.5296,0.0,0.0,0.0,0.0,0.0,0.0,0.0,0.0,0.0,0.0,0.0,0.0,0.0,0.0,0.0,0.0,0.0,0.0,0.0,0.0,0.0,0.0,0.0,0.0,0.0,0.0,0.0,0.0,0.0,0.0,0.0,0.0,0.0,0.0,0.0,0.0,0.0,0.0,0.0,0.0,0.0,0.0,0.0,0.0,0.0,0.0,0.0,0.0,0.0,0.0,0.0,0.0,0.0,0.0,0.0,0.0,0.0,0.0,0.0,0.0,0.0,0.0,0.0,0.0,0.0,0.0,0.0,0.0,0.0,0.0,0.0,0.0,0.0,0.0,0.0,0.0,0.0,0.0,0.0,0.0,0.0,0.0,0.0,0.0,0.0,0.0,0.0,0.0,0.0,0.0,0.0,0.0,0.0,0.0,0.0,0.0,0.0,0.0,0.0,0.0,0.0,0.0,0.0,0.0,-3.9948,-4.5648,-5.1172,-5.4436,-5.4436,-5.3306,-5.072,-4.6326,0.0,0.0,0.0,0.0,0.0,0.0,0.0,0.0,0.0,0.0,0.0,0.0,0.0,0.0,0.0,0.0,0.0,0.0,0.0,0.0,0.0,0.0,0.0,0.0,0.0,0.0,0.0,0.0,0.0,0.0,0.0,0.0,0.0,0.0,0.0,0.0,0.0,0.0,0.0,0.0,0.0,0.0,0.0,0.0,0.0,0.0,0.0,0.0,0.0,0.0,0.0,0.0,0.0,0.0,0.0,0.0,0.0,0.0,0.0,0.0,0.0,0.0,0.0,0.0,0.0,0.0,0.0,0.0,0.0,0.0,0.0,0.0,0.0,0.0,0.0,0.0,0.0,0.0,0.0,0.0,0.0,0.0,0.0,0.0,0.0,0.0,0.0,0.0,0.0,0.0,0.0,0.0,0.0,0.0,0.0,0.0,0.0,0.0,0.0,0.0,0.0,0.0,0.0,-4.0049,-4.2685,-4.7908,-5.185,-5.411,-5.411,-5.3406,-5.0946,-4.6175,-4.5095,0.0,0.0,0.0,0.0,0.0,0.0,0.0,0.0,0.0,0.0,0.0,0.0,0.0,0.0,0.0,0.0,0.0,0.0,0.0,0.0,0.0,0.0,0.0,0.0,0.0,0.0,0.0,0.0,0.0,0.0,0.0,0.0,0.0,0.0,0.0,0.0,0.0,0.0,0.0,0.0,0.0,0.0,0.0,0.0,0.0,0.0,0.0,0.0,0.0,0.0,0.0,0.0,0.0,0.0,0.0,0.0,0.0,0.0,0.0,0.0,0.0,0.0,0.0,0.0,0.0,0.0,0.0,0.0,0.0,0.0,0.0,0.0,0.0,0.0,0.0,0.0,0.0,0.0,0.0,0.0,0.0,0.0,0.0,0.0,0.0,0.0,0.0,0.0,0.0,0.0,0.0,0.0,0.0,0.0,0.0,0.0,0.0,0.0,0.0,0.0,0.0,0.0,-4.2986,-4.5171,-4.9339,-5.2126,-5.3708,-5.3708,-5.2854,-5.0368,-4.5773,-4.4091,0.0,0.0,0.0,0.0,0.0,0.0,0.0,0.0,0.0,0.0,0.0,0.0,0.0,0.0,0.0,0.0,0.0,0.0,0.0,0.0,0.0,0.0,0.0,0.0,0.0,0.0,0.0,0.0,0.0,0.0,0.0,0.0,0.0,0.0,0.0,0.0,0.0,0.0,0.0,0.0,0.0,0.0,0.0,0.0,0.0,0.0,0.0,0.0,0.0,0.0,0.0,0.0,0.0,0.0,0.0,0.0,0.0,0.0,0.0,0.0,0.0,0.0,0.0,0.0,0.0,0.0,0.0,0.0,0.0,0.0,0.0,0.0,0.0,0.0,0.0,0.0,0.0,0.0,0.0,0.0,0.0,0.0,0.0,0.0,0.0,0.0,0.0,0.0,0.0,0.0,0.0,0.0,0.0,0.0,0.0,0.0,0.0,0.0,0.0,0.0,0.0,0.0,-4.4016,-4.6602,-4.9992,-5.2377,-5.3708,-5.3708,-5.0393,-4.7506,-4.5598,-4.158,0.0,0.0,0.0,0.0,0.0,0.0,0.0,0.0,0.0,0.0,0.0,0.0,0.0,0.0,0.0,0.0,0.0,0.0,0.0,0.0,0.0,0.0,0.0,0.0,0.0,0.0,0.0,0.0,0.0,0.0,0.0,0.0,0.0,0.0,0.0,0.0,0.0,0.0,0.0,0.0,0.0,0.0,0.0,0.0,0.0,0.0,0.0,0.0,0.0,0.0,0.0,0.0,0.0,0.0,0.0,0.0,0.0,0.0,0.0,0.0,0.0,0.0,0.0,0.0,0.0,0.0,0.0,0.0,0.0,0.0,0.0,0.0,0.0,0.0,0.0,0.0,0.0,0.0,0.0,0.0,0.0,0.0,0.0,0.0,0.0,0.0,0.0,0.0,0.0,0.0,0.0,0.0,0.0,0.0,0.0,0.0,0.0,0.0,0.0,0.0,0.0,0.0,-4.4317,-4.6903,0.0,-5.2302,-5.3231,-5.3231,-5.1574,-4.8937,-4.5196,0.0,0.0,0.0,0.0,0.0,0.0,0.0,0.0,0.0,0.0,0.0,0.0,0.0,0.0,0.0,0.0,0.0,0.0,0.0,0.0,0.0,0.0,0.0,0.0,0.0,0.0,0.0,0.0,0.0,0.0,0.0,0.0,0.0,0.0,0.0,0.0,0.0,0.0,0.0,0.0,0.0,0.0,0.0,0.0,0.0,0.0,0.0,0.0,0.0,0.0,0.0,0.0,0.0,0.0,0.0,0.0,0.0,0.0,0.0,0.0,0.0,0.0,0.0,0.0,0.0,0.0,0.0,0.0,0.0,0.0,0.0,0.0,0.0,0.0,0.0,0.0,0.0,0.0,0.0,0.0,0.0,0.0,0.0,0.0,0.0,0.0,0.0,0.0,0.0,0.0,0.0,0.0,0.0,0.0,0.0,0.0,0.0,0.0,0.0,0.0,0.0,0.0,-4.2509,-4.4593,-4.7179,0.0,-5.2277,-5.2929,-5.2929,-5.0971,-4.836,-4.5095,0.0,0.0,0.0,0.0,0.0,0.0,0.0,0.0,0.0,0.0,0.0,0.0,0.0,0.0,0.0,0.0,0.0,0.0,0.0,0.0,0.0,0.0,0.0,0.0,0.0,0.0,0.0,0.0,0.0,0.0,0.0,0.0,0.0,0.0,0.0,0.0,0.0,0.0,0.0,0.0,0.0,0.0,0.0,0.0,0.0,0.0,0.0,0.0,0.0,0.0,0.0,0.0,0.0,0.0,0.0,0.0,0.0,0.0,0.0,0.0,0.0,0.0,0.0,0.0,0.0,0.0,0.0,0.0,0.0,0.0,0.0,0.0,0.0,0.0,0.0,0.0,0.0,0.0,0.0,0.0,0.0,0.0,0.0,0.0,0.0,0.0,0.0,0.0,0.0,0.0,0.0,0.0,0.0,0.0,0.0,0.0,0.0,0.0,0.0,0.0,0.0,0.0,-4.2534,-4.492,-4.7581,-5.0921,-5.2277,-5.2929,-5.2929,-4.7857,-4.492,0.0,0.0,0.0,0.0,0.0,0.0,0.0,0.0,0.0,0.0,0.0,0.0,0.0,0.0,0.0,0.0,0.0,0.0,0.0,0.0,0.0,0.0,0.0,0.0,0.0,0.0,0.0,0.0,0.0,0.0,0.0,0.0,0.0,0.0,0.0,0.0,0.0,0.0,0.0,0.0,0.0,0.0,0.0,0.0,0.0,0.0,0.0,0.0,0.0,0.0,0.0,0.0,0.0,0.0,0.0,0.0,0.0,0.0,0.0,0.0,0.0,0.0,0.0,0.0,0.0,0.0,0.0,0.0,0.0,0.0,0.0,0.0,0.0,0.0,0.0,0.0,0.0,0.0,0.0,0.0,0.0,0.0,0.0,0.0,0.0,0.0,0.0,0.0,0.0,0.0,0.0,0.0,0.0,0.0,0.0,0.0,0.0,0.0,0.0,0.0,0.0,0.0,0.0,-4.2082,-4.4694,-4.7431,-5.0368,-5.2026,-5.2929,-5.2929,-4.9967,-4.738,-4.5598,0.0,0.0,0.0,0.0,0.0,0.0,0.0,0.0,0.0,0.0,0.0,0.0,0.0,0.0,0.0,0.0,0.0,0.0,0.0,0.0,0.0,0.0,0.0,0.0,0.0,0.0,0.0,0.0,0.0,0.0,0.0,0.0,0.0,0.0,0.0,0.0,0.0,0.0,0.0,0.0,0.0,0.0,0.0,0.0,0.0,0.0,0.0,0.0,0.0,0.0,0.0,0.0,0.0,0.0,0.0,0.0,0.0,0.0,0.0,0.0,0.0,0.0,0.0,0.0,0.0,0.0,0.0,0.0,0.0,0.0,0.0,0.0,0.0,0.0,0.0,0.0,0.0,0.0,0.0,0.0,0.0,0.0,0.0,0.0,0.0,0.0,0.0,0.0,0.0,0.0,0.0,0.0,0.0,0.0,0.0,0.0,0.0,0.0,0.0,0.0,0.0,0.0,-4.2133,-4.4317,-4.6878,-5.0067,-5.1724,-5.2678,-5.2904,-5.067,-4.8083,-4.5321,0.0,0.0,0.0,0.0,0.0,0.0,0.0,0.0,0.0,0.0,0.0,0.0,0.0,0.0,0.0,0.0,0.0,0.0,0.0,0.0,0.0,0.0,0.0,0.0,0.0,0.0,0.0,0.0,0.0,0.0,0.0,0.0,0.0,0.0,0.0,0.0,0.0,0.0,0.0,0.0,0.0,0.0,0.0,0.0,0.0,0.0,0.0,0.0,0.0,0.0,0.0,0.0,0.0,0.0,0.0,0.0,0.0,0.0,0.0,0.0,0.0,0.0,0.0,0.0,0.0,0.0,0.0,0.0,0.0,0.0,0.0,0.0,0.0,0.0,0.0,0.0,0.0,0.0,0.0,0.0,0.0,0.0,0.0,0.0,0.0,0.0,0.0,0.0,0.0,0.0,0.0,0.0,0.0,0.0,0.0,0.0,0.0,0.0,0.0,0.0,0.0,0.0,-4.2484,-4.3865,-4.605,-4.9916,-5.1348,-5.2277,-5.2879,-5.0469,-4.7732,-4.4945,0.0,0.0,0.0,0.0,0.0,0.0,0.0,0.0,0.0,0.0,0.0,0.0,0.0,0.0,0.0,0.0,0.0,0.0,0.0,0.0,0.0,0.0,0.0,0.0,0.0,0.0,0.0,0.0,0.0,0.0,0.0,0.0,0.0,0.0,0.0,0.0,0.0,0.0,0.0,0.0,0.0,0.0,0.0,0.0,0.0,0.0,0.0,0.0,0.0,0.0,0.0,0.0,0.0,0.0,0.0,0.0,0.0,0.0,0.0,0.0,-2.6367,0.0,0.0,0.0,0.0,0.0,0.0,0.0,0.0,0.0,0.0,0.0,0.0,0.0,0.0,0.0,0.0,0.0,0.0,0.0,0.0,0.0,0.0,0.0,0.0,0.0,0.0,0.0,0.0,0.0,0.0,0.0,0.0,0.0,0.0,0.0,0.0,0.0,0.0,0.0,0.0,0.0,-4.2007,-4.3288,-4.5472,-4.9364,-5.077,-5.185,-5.2854,-5.1172,-4.8887,-4.6125,-4.3062,0.0,0.0,0.0,0.0,0.0,0.0,0.0,0.0,0.0,0.0,0.0,0.0,0.0,0.0,0.0,0.0,0.0,0.0,0.0,0.0,0.0,0.0,0.0,0.0,0.0,0.0,0.0,0.0,0.0,0.0,0.0,0.0,0.0,0.0,0.0,0.0,0.0,0.0,0.0,0.0,0.0,0.0,0.0,0.0,0.0,0.0,0.0,0.0,0.0,0.0,0.0,0.0,0.0,0.0,0.0,0.0,0.0,0.0,0.0,0.0,-2.7129,0.0,0.0,0.0,0.0,0.0,0.0,0.0,0.0,0.0,0.0,0.0,0.0,0.0,0.0,0.0,0.0,0.0,0.0,0.0,0.0,0.0,0.0,0.0,0.0,0.0,0.0,0.0,0.0,0.0,0.0,0.0,0.0,0.0,0.0,0.0,0.0,0.0,0.0,0.0,0.0,-4.1831,-4.2413,-4.4042,-4.8259,-5.0042,-5.1222,-5.2076,-5.1071,-4.9238,-4.6476,-4.4166,0.0,0.0,0.0,0.0,0.0,0.0,0.0,0.0,0.0,0.0,0.0,0.0,0.0,0.0,0.0,0.0,0.0,0.0,0.0,0.0,0.0,0.0,0.0,0.0,0.0,0.0,0.0,0.0,0.0,0.0,0.0,0.0,0.0,0.0,0.0,0.0,0.0,0.0,0.0,0.0,0.0,0.0,0.0,0.0,0.0,0.0,0.0,0.0,0.0,0.0,0.0,0.0,0.0,-3.0996,-3.1816,-3.2519,-3.293,-3.2793,-3.2109,-3.0664,-2.9101,-2.7676,-2.9023,0.0,0.0,0.0,0.0,0.0,0.0,0.0,0.0,0.0,0.0,0.0,0.0,0.0,0.0,0.0,0.0,0.0,0.0,0.0,0.0,0.0,0.0,0.0,0.0,-3.1113,-3.1016,-3.0293,0.0,0.0,0.0,0.0,0.0,0.0,0.0,0.0,0.0,0.0,0.0,-4.0843,-4.1071,-4.2535,-4.701,-4.911,-5.0444,-5.1222,-5.0921,-4.9565,-4.6903,-4.5698,-4.3489,0.0,0.0,0.0,0.0,0.0,0.0,0.0,0.0,0.0,0.0,0.0,0.0,0.0,0.0,0.0,0.0,0.0,0.0,0.0,0.0,0.0,0.0,0.0,0.0,0.0,0.0,0.0,0.0,0.0,0.0,0.0,0.0,-2.5566,-2.5566,0.0,0.0,0.0,0.0,0.0,0.0,0.0,0.0,0.0,0.0,0.0,0.0,0.0,-2.9551,-3.0215,-3.1484,-3.2012,-3.1836,-3.3066,-3.3711,-3.3828,-3.4258,-3.4609,-3.4863,-3.4648,0.0,-2.9766,-2.9629,0.0,0.0,0.0,0.0,0.0,0.0,0.0,0.0,0.0,0.0,0.0,0.0,0.0,0.0,0.0,0.0,0.0,0.0,0.0,0.0,0.0,0.0,-3.1289,-3.1406,-3.1992,-3.2519,0.0,-3.1836,-3.123,-3.0879,-3.0738,0.0,0.0,0.0,0.0,0.0,0.0,0.0,-3.7291,-3.9118,-4.1564,-4.5429,-4.7749,-4.9615,-5.1147,-5.1649,-5.0896,-4.8586,-4.7405,-4.5924,-4.394,-4.0501,0.0,0.0,0.0,0.0,0.0,0.0,0.0,0.0,0.0,0.0,0.0,0.0,0.0,0.0,0.0,0.0,0.0,0.0,0.0,0.0,0.0,0.0,0.0,0.0,0.0,0.0,0.0,0.0,0.0,-2.6641,-2.7168,-2.6211,-2.7324,-2.7637,0.0,0.0,0.0,0.0,0.0,0.0,0.0,0.0,0.0,-3.0449,-3.1523,-3.2168,-3.2305,-3.3613,-3.4394,-3.4707,-3.5742,-3.6367,-3.6621,-3.7031,-3.7344,-3.7539,-3.7539,-3.6387,-3.4414,-3.2773,-3.1387,-3.0273,0.0,0.0,0.0,0.0,-2.8848,-2.8965,-2.8633,-2.8652,-2.8828,-2.8965,0.0,0.0,0.0,0.0,0.0,0.0,0.0,0.0,0.0,0.0,-3.3301,-3.3301,-3.3965,-3.4609,-3.4609,-3.4121,-3.3203,0.0,-3.1074,-3.0918,-3.0898,0.0,0.0,0.0,0.0,-3.3792,-3.614,-3.726,-3.9281,-4.2696,-4.5677,-4.7816,-4.9133,-5.0737,-5.1222,-5.0243,-4.8837,-4.7456,-4.61,-4.3212,-4.1279,0.0,0.0,0.0,0.0,0.0,0.0,0.0,0.0,0.0,0.0,0.0,0.0,0.0,0.0,0.0,0.0,0.0,0.0,0.0,0.0,0.0,0.0,0.0,0.0,0.0,0.0,0.0,0.0,-2.7812,-2.8457,-2.6758,-2.873,-2.9316,0.0,0.0,0.0,0.0,0.0,0.0,-3.0137,-3.1172,-3.2109,-3.2969,-3.4238,-3.4844,-3.4746,-3.6055,-3.709,-3.7832,-3.8574,-3.9141,-3.957,-4.0,-4.0137,-4.0039,-4.0137,-3.9707,-3.8691,-3.5898,-3.373,-3.2168,-3.1836,-3.125,-3.0566,-3.0566,-3.0488,-3.041,-3.0508,-3.0469,-3.0351,-3.0273,-3.0312,-3.0234,-2.9375,0.0,0.0,0.0,0.0,-3.1894,-3.2109,-3.3672,-3.5254,-3.5469,-3.6191,-3.6836,-3.6836,-3.6328,-3.5137,0.0,-3.1992,-3.1719,-3.1289,0.0,0.0,0.0,0.0,-3.2546,-3.4826,-3.596,-3.7588,-4.0408,-4.4017,-4.655,-4.7322,-4.9865,-5.1272,-5.1272,-5.0243,-4.9188,-4.8234,-4.5924,-4.374,-4.1831,0.0,0.0,0.0,0.0,0.0,0.0,0.0,0.0,0.0,0.0,0.0,0.0,0.0,0.0,0.0,0.0,0.0,0.0,0.0,0.0,0.0,0.0,0.0,0.0,0.0,0.0,0.0,0.0,0.0,-2.7187,-2.998,0.0,0.0,0.0,0.0,-2.9414,-3.0566,-3.1484,-3.2012,-3.3223,-3.4316,-3.5195,-3.6465,-3.7519,-3.8301,-3.9609,-4.0488,-4.0957,-4.1387,-4.1836,-4.2246,-4.2676,-4.2656,-4.2285,-4.2695,-4.2402,-4.1348,-3.793,-3.623,-3.5644,-3.4394,-3.4394,-3.4922,-3.3691,-3.2969,-3.2519,-3.1719,-3.1191,-3.0976,-3.1777,-3.2305,-3.248,-3.1621,-3.166,0.0,0.0,-3.2383,-3.291,-3.373,-3.5254,-3.6777,-3.7578,-3.8418,-3.9043,-3.9043,-3.8066,-3.6562,0.0,-3.3281,-3.2598,-3.2168,0.0,-3.0819,-3.0368,-3.1015,-3.1701,-3.2312,-3.5293,-3.7803,-3.9368,-4.3435,-4.6275,-4.6798,-4.9643,-5.1272,-5.1272,-5.1699,-5.1674,-5.1096,-4.8435,-4.6426,-4.5271,-4.1555,0.0,0.0,0.0,0.0,0.0,0.0,0.0,0.0,0.0,0.0,0.0,0.0,0.0,0.0,0.0,0.0,0.0,0.0,0.0,0.0,0.0,0.0,0.0,0.0,0.0,0.0,0.0,0.0,-3.3176,-3.4852,0.0,-3.2441,-3.2109,-3.2168,-3.2441,-3.2891,-3.3828,-3.5391,-3.6426,-3.7754,-3.9473,-4.0215,-4.1016,-4.1875,-4.2344,-4.2656,-4.2793,-4.2949,-4.3105,-4.3242,-4.3418,-4.3398,-4.3262,-4.3418,-4.3144,-4.2519,-4.1308,-3.957,-3.7539,-3.625,-3.5605,-3.5371,-3.5176,-3.4824,-3.4473,-3.4434,-3.4141,-3.375,-3.3476,-3.3301,-3.3144,-3.2832,-3.2851,-3.3027,-3.332,-3.4101,-3.5,-3.5586,-3.7012,-3.8457,-3.9043,-3.9434,-3.9726,-4.0,-3.9492,-3.8652,-3.7578,-3.5801,-3.4238,-3.3516,-3.291,-3.2285,-3.1562,-3.1738,-3.209,-3.2519,-3.4425,-3.6082,-3.7582,-4.0656,-4.3418,-4.5462,-4.7678,-4.945,-5.0588,-5.0569,-5.0393,-5.0193,-4.8535,-4.6954,-4.5522,-4.3062,-4.1078,0.0,0.0,0.0,0.0,0.0,0.0,0.0,0.0,0.0,0.0,0.0,0.0,0.0,0.0,0.0,0.0,0.0,0.0,0.0,0.0,0.0,0.0,0.0,0.0,0.0,0.0,-3.6874,-3.667,-3.8969,-3.9365,-3.6367,-3.5898,-3.5879,-3.6035,-3.6309,-3.7207,-3.8926,-3.9707,-4.082,-4.2402,-4.2871,-4.3359,-4.3926,-4.4082,-4.416,-4.416,-4.416,-4.416,-4.416,-4.4297,-4.4297,-4.416,-4.4316,-4.4121,-4.3711,-4.3418,-4.2109,-4.0176,-3.8906,-3.7969,-3.7363,-3.748,-3.7168,-3.668,-3.666,-3.6484,-3.6094,-3.5234,-3.4844,-3.4707,-3.4551,-3.4609,-3.4824,-3.5254,-3.6094,-3.6973,-3.7422,-3.8574,-3.9726,-4.0039,-4.0215,-4.041,-4.0684,-4.041,-4.0019,-3.9707,-3.793,-3.6133,-3.5117,-3.459,-3.4004,-3.3144,-3.3027,-3.3223,-3.3809,-3.4746,-3.5801,-3.6973,-3.9351,-4.1678,-4.3565,-4.6127,-4.8098,-4.915,-4.9332,-4.9238,-4.9038,-4.8134,-4.7054,-4.5799,-4.3388,-4.1329,-3.9672,0.0,0.0,0.0,0.0,0.0,0.0,0.0,0.0,0.0,0.0,0.0,0.0,0.0,0.0,0.0,0.0,0.0,0.0,0.0,0.0,0.0,0.0,0.0,-3.1112,-3.6308,-3.9302,-3.7272,-4.2092,-4.3925,-3.9318,-3.9922,-4.0488,-4.0078,-4.082,-4.166,-4.248,-4.293,-4.3359,-4.3789,-4.4238,-4.4492,-4.4492,-4.4902,-4.5098,-4.5098,-4.5098,-4.5098,-4.5117,-4.5547,-4.5488,-4.5098,-4.5527,-4.5469,-4.498,-4.4121,-4.375,-4.3613,-4.2324,-4.1562,-4.1152,-4.0723,-4.0,-3.9121,-3.8281,-3.7988,-3.7851,-3.7031,-3.7051,-3.7305,-3.6894,-3.7051,-3.7461,-3.7871,-3.8301,-3.873,-3.9141,-3.9883,-4.0547,-4.0547,-4.0859,-4.1172,-4.1172,-4.084,-4.0547,-4.0547,-3.9531,-3.8262,-3.6973,-3.6387,-3.5801,-3.4902,-3.4766,0.0,-3.5937,-3.6426,-3.7012,-3.7851,-3.9841,-4.1205,-4.1347,-4.5072,-4.7322,-4.6751,-4.7838,-4.836,-4.7832,-4.7305,-4.6778,-4.625,-4.2459,-3.9697,-3.8065,0.0,0.0,0.0,0.0,0.0,0.0,0.0,0.0,0.0,0.0,0.0,0.0,0.0,0.0,0.0,0.0,0.0,0.0,0.0,0.0,0.0,0.0,-3.4218,-3.5438,-3.8854,-4.1709,-4.3055,-4.4603,-4.5143,-4.3789,-4.3769,-4.373,-4.3633,-4.3828,-4.4199,-4.4746,-4.4902,-4.5293,-4.6016,-4.6172,-4.6387,-4.6699,-4.6816,-4.6875,-4.6875,-4.6875,-4.6875,-4.6875,-4.7012,-4.6816,-4.6406,-4.6523,-4.6172,-4.5469,-4.5234,-4.4941,-4.4492,-4.2891,-4.2187,-4.2031,-4.1601,-4.0898,-4.0078,-3.9531,-3.9355,-3.9316,-3.9082,-3.9082,-3.916,-3.9043,-3.9082,-3.9199,-3.9316,-3.9668,-4.0019,-4.0137,-4.0566,-4.0996,-4.0996,-4.1094,-4.1172,-4.1172,-4.1074,-4.0996,-4.0996,-4.0703,-4.0039,-3.873,-3.8144,-3.7578,-3.6719,-3.6328,0.0,-3.6465,-3.6855,-3.7441,-3.8301,-3.9188,-4.0282,-4.1707,-4.2312,-4.3107,-4.438,-4.3743,-4.401,-4.5404,-4.4995,-4.4644,-4.4493,-4.1882,-4.0099,0.0,0.0,0.0,0.0,0.0,0.0,0.0,0.0,0.0,0.0,0.0,0.0,0.0,0.0,0.0,0.0,0.0,0.0,0.0,0.0,0.0,0.0,-3.4199,-3.7095,-3.9131,-4.1994,-4.4556,-4.6041,-4.739,-4.7734,-4.6915,-4.6504,-4.6289,-4.6113,-4.6094,-4.6211,-4.6465,-4.6465,-4.6699,-4.7187,-4.7207,-4.7324,-4.7578,-4.7578,-4.7578,-4.7578,-4.7578,-4.7578,-4.7578,-4.7383,-4.7168,-4.6933,-4.6933,-4.6562,-4.5937,-4.5937,-4.5683,0.0,0.0,0.0,0.0,0.0,-4.1641,-4.0996,-4.0586,-4.0312,-4.0137,-3.9961,-4.0019,-4.0156,-4.0156,-4.0293,-4.043,-4.043,-4.0605,-4.0801,-4.0801,-4.0976,-4.1172,-4.1172,-4.1172,-4.1172,-4.1172,-4.1172,-4.1172,-4.1172,-4.1172,0.0,-4.0156,-3.9668,-3.916,-3.8496,-3.8008,-3.7734,-3.7734,-3.7949,-3.8281,-3.8789,-3.9238,-3.9919,-4.1061,-4.1233,0.0,0.0,0.0,-4.2372,-4.3501,-4.3288,0.0,0.0,0.0,-4.1153,-4.0375,0.0,0.0,0.0,-3.7663,-3.7588,0.0,0.0,0.0,0.0,0.0,0.0,0.0,0.0,0.0,0.0,0.0,0.0,0.0,0.0,0.0,0.0,-3.7031,-3.9902,-4.25,-4.5373,-4.7154,-4.6954,-4.9527,-5.0433,-4.8522,-4.8359,-4.8203,-4.7832,-4.7754,-4.7734,-4.7734,0.0,0.0,0.0,0.0,-4.7734,-4.7734,-4.7734,-4.7734,-4.7734,-4.7734,-4.7734,-4.7715,-4.7324,-4.7129,-4.707,-4.707,-4.6836,-4.6445,-4.6445,-4.6191,-4.5762,-4.5234,-4.4492,-4.3613,-4.2851,-4.2266,-4.1816,-4.1387,0.0,0.0,-4.0176,-4.0293,-4.0586,-4.0586,-4.0859,-4.1172,-4.1172,-4.1172,-4.1172,-4.1172,-4.1172,-4.1172,-4.1172,-4.1172,-4.1172,-4.1172,-4.1172,-4.1172,-4.1172,-4.1172,-4.1172,-4.1172,-4.082,-4.0391,-4.0019,-3.957,-3.9277,-3.9277,-3.9277,-3.9297,-3.9336,0.0,0.0,-3.9961,-4.1061,-4.1167,-3.9929,-4.1565,-4.2471,-4.2077,-4.2223,-4.2333,-4.2333,-4.276,-4.2459,-4.143,-4.1003,-4.0501,-3.9948,-3.922,-3.8843,0.0,0.0,0.0,0.0,0.0,0.0,0.0,0.0,0.0,0.0,0.0,0.0,0.0,0.0,0.0,-3.668,-3.9707,-4.2578,-4.5195,-4.6914,-4.7879,-4.7441,-4.8882,-4.9815,-4.9277,-4.9277,-4.9238,-4.916,-4.8808,-4.8613,-4.8613,-4.8613,-4.8613,-4.8613,-4.8613,-4.8613,-4.8613,-4.8613,-4.8613,-4.8613,0.0,0.0,-4.8613,-4.8516,-4.8301,-4.7949,-4.7949,-4.7715,-4.7324,-4.7324,-4.707,-4.6582,-4.5469,-4.4492,-4.3691,-4.3516,-4.2969,-4.2246,-4.1816,-4.1621,-4.1484,-4.1055,-4.0976,-4.1055,-4.1055,-4.1113,0.0,-4.1172,-4.1172,-4.1172,-4.1172,-4.1172,-4.1172,-4.1172,-4.1172,-4.1172,-4.1172,-4.1172,-4.1172,-4.1172,-4.1172,-4.1172,-4.1172,-4.082,-4.0488,-4.041,-4.0039,-3.9766,-3.9766,-3.9766,-3.9902,-4.0234,-4.0351,-4.041,-4.041,-3.9948,-3.963,-3.9537,-4.1122,-4.1804,-4.1348,-4.2757,-4.3489,-4.3489,-4.3162,-4.266,-4.2007,-4.2333,-4.2208,-4.163,-3.9747,-3.8617,0.0,0.0,0.0,0.0,0.0,0.0,0.0,0.0,0.0,0.0,0.0,-3.1641,0.0,0.0,-3.6914,-3.9726,-4.2363,-4.4805,-4.6953,-4.8183,-4.8789,-4.8574,-4.9141,-4.9609,-4.9824,-4.9844,-4.9844,-4.9844,-4.9648,-4.9433,-4.9199,-4.9199,-4.9101,-4.8867,-4.8867,-4.8867,-4.8867,-4.8867,-4.8867,-4.8867,-4.8867,-4.8867,-4.8848,-4.8633,-4.8418,-4.8203,-4.8203,-4.7969,-4.7578,-4.7578,-4.7207,-4.6582,-4.6152,-4.5449,-4.4668,-4.4453,-4.3808,-4.3027,-4.2832,-4.248,-4.2051,-4.1621,-4.1484,-4.1445,-4.123,-4.1172,-4.1172,-4.1172,-4.1172,-4.1172,-4.1172,-4.1172,-4.1172,-4.1172,-4.1172,-4.1172,-4.1172,-4.1172,-4.1172,-4.1172,-4.1172,-4.1172,-4.1172,-4.0996,-4.084,-4.084,-4.0664,-4.0449,-4.0234,-4.041,-4.0527,-4.0527,-4.0723,-4.084,-4.084,-3.9844,-3.9539,-4.0199,-4.032,-4.1045,-4.2579,-4.2928,-4.3757,-4.5045,-4.4794,-4.4644,-4.4644,-4.492,-4.4769,-4.4192,-4.2811,-4.143,0.0,0.0,0.0,0.0,0.0,0.0,0.0,0.0,-3.1543,-3.3203,-3.3945,-3.4922,-3.6934,-3.8398,-4.0117,-4.2539,-4.4687,-4.6582,-4.8125,-4.9101,-4.9687,-4.9766,-4.9785,-4.9922,-5.0273,-5.0293,-5.0293,-5.0293,-5.0215,-5.0019,-4.9668,-4.9648,-4.9492,-4.9121,-4.9023,-4.9023,-4.9121,-4.8945,-4.8906,-4.8984,-4.8906,-4.8867,-4.8848,-4.8496,-4.834,-4.834,-4.834,-4.8144,-4.7812,-4.7656,-4.7168,-4.6562,-4.6738,-4.6387,-4.5742,-4.5312,-4.4648,-4.3945,-4.3867,-4.332,-4.2617,-4.2187,-4.1992,-4.1836,-4.1426,-4.1289,-4.1269,-4.1191,-4.1172,-4.1172,-4.1172,-4.1172,-4.1191,-4.1269,-4.1289,-4.1308,-4.1406,-4.1426,-4.1387,-4.1308,-4.1289,-4.1269,-4.1191,-4.1172,-4.1172,-4.1172,-4.1172,-4.1055,-4.0684,-4.0957,-4.1035,-4.0684,-4.0957,-4.1172,-4.1172,-4.0117,-3.9889,-4.0822,-3.9992,-4.0721,-4.364,-4.3402,-4.4271,-4.6291,-4.6784,-4.723,-4.7456,-4.7556,-4.728,-4.6602,-4.605,-4.4618,-2.9629,-2.918,-2.9355,-3.0859,-3.1289,-3.1973,0.0,0.0,-3.459,-3.5957,-3.6875,-3.7851,-3.9277,-4.0879,-4.2598,-4.4433,-4.6211,-4.7695,-4.8652,-4.9551,-5.0234,-5.0625,-5.0664,-5.0683,-5.0723,-5.0742,-5.0742,-5.0742,-5.0391,-5.0156,-5.0098,-5.0098,-5.0078,-5.0039,-4.9648,-4.9629,-5.0019,-4.9258,-4.9062,-4.9453,-4.9043,-4.8867,-4.8867,-4.8808,-4.8789,-4.8789,-4.8789,-4.875,-4.8652,-4.7891,-4.7519,-4.7363,-4.6641,-4.6308,-4.6191,-4.5762,-4.5293,-4.4824,-4.4453,-4.3984,-4.3496,-4.3066,-4.2676,-4.2285,-4.1855,-4.1738,-4.166,-4.1269,-4.1172,-4.1172,-4.1172,-4.1172,-4.1269,-4.1641,-4.1738,-4.1836,-4.2207,-4.2285,-4.2168,-4.1797,-4.1738,-4.1621,-4.123,-4.1172,-4.1172,-4.1172,-4.1172,-4.1152,-4.1113,-4.1152,-4.1152,-4.1113,-4.1152,-4.1172,-4.1172,-4.0684,-4.0351,-4.0597,-4.1126,-4.1704,-4.1989,-4.48,-4.631,-4.6645,-4.8756,-4.9515,-4.8586,-4.9088,-4.8761,-4.7707,-4.7179,-4.5748,-3.0937,-3.0937,0.0,0.0,-3.3398,-3.4805,-3.5898,-3.6562,-3.7402,-3.8965,-4.0156,-4.1328,-4.2637,-4.3867,-4.5078,0.0,-4.7324,-4.834,-4.9473,-4.9941,-5.0332,-5.0762,-5.1016,-5.1269,-5.1523,-5.1543,-5.1543,-5.1543,-5.1387,-5.1074,-5.0566,-5.0547,-5.043,-5.0195,-5.0,-5.0,-5.0176,-4.9805,-4.9726,-4.9902,-4.9453,-4.9258,-4.9238,-4.8984,-4.8867,-4.8867,-4.8867,-4.8711,-4.8476,-4.8359,-4.8027,-4.7578,-4.7461,-4.7266,-4.6992,-4.6562,-4.6133,-4.5742,-4.5566,-4.5215,-4.4687,-4.375,-4.332,-4.3008,-4.207,-4.1797,-4.1719,-4.1289,-4.1172,-4.1172,-4.1172,-4.1348,-4.1582,-4.1758,-4.1992,-4.2207,-4.2383,-4.2422,-4.2383,-4.2207,-4.2168,-4.2031,-4.1621,-4.1543,-4.1445,-4.1211,-4.1172,-4.1172,-4.1172,-4.1172,-4.1172,-4.1172,-4.1172,-4.1172,-4.1172,-4.1016,-4.0898,-4.0898,-4.1291,-4.1936,-4.3088,-4.4207,-4.5794,-4.8064,-4.8811,-4.9534,-5.0243,-5.0469,-5.0167,-4.9364,-4.9138,-4.8209,-3.1855,0.0,0.0,-3.4043,-3.5996,-3.7851,-3.834,-3.9336,-4.0605,-4.2109,-4.3242,-4.4297,-4.5351,-4.625,-4.707,-4.7812,-4.8398,-4.9121,-5.0195,-5.0351,-5.043,-5.0605,-5.0801,-5.1113,-5.168,-5.1953,-5.209,-5.209,-5.2187,-5.1992,-5.1367,-5.123,-5.1016,-5.0723,-5.0469,-5.041,-5.0527,-5.0293,-5.0176,-5.0176,-4.9726,-4.9453,-4.9336,-4.9004,-4.8867,-4.8867,-4.8867,-4.8672,-4.8398,-4.8594,-4.832,-4.7773,-4.7969,-4.7851,-4.7558,-4.7363,-4.6933,-4.6484,-4.6484,-4.6133,-4.5527,-4.4551,-4.416,-4.3848,-4.2676,-4.2324,-4.2187,-4.1543,-4.1348,-4.1348,-4.1348,-4.1562,-4.1855,-4.209,-4.2383,-4.2637,-4.2754,-4.2773,-4.2754,-4.2617,-4.2598,-4.248,-4.2051,-4.1973,-4.1875,-4.1562,-4.1523,-4.1426,-4.1211,-4.1172,-4.1172,-4.1172,-4.1172,-4.1172,-4.1172,-4.1172,-4.1172,-4.1172,-4.1172,-4.1753,-4.3207,-4.3481,-4.4906,-4.7643,-4.7865,-4.8887,-5.0641,-5.0641,-5.0563,-5.0419,-5.0419,-4.9992,0.0,0.0,-3.4629,-3.7148,-3.9101,-4.084,-4.25,-4.3574,-4.4473,-4.5351,-4.5898,-4.6348,-4.6797,-4.7578,-4.8301,-4.875,-4.9551,-5.0273,-5.0723,-5.0781,-5.0644,-5.0254,-4.9844,-4.9922,0.0,-5.1601,-5.209,-5.209,-5.2461,-5.2676,-5.2656,-5.2266,-5.2031,-5.2031,-5.1211,-5.0976,-5.1387,-5.0586,-5.0176,-5.0176,-4.9726,-4.9297,-4.8887,-4.8867,-4.8867,-4.8867,-4.8867,-4.8848,-4.8808,-4.8398,-4.8223,-4.8144,-4.7754,-4.7598,-4.7637,-4.8027,-4.7637,-4.6914,-4.6914,-4.6367,-4.5664,-4.5625,-4.5332,-4.4824,-4.3926,-4.3652,-4.3379,-4.2129,-4.1777,-4.1777,-4.1777,-4.1797,-4.2012,-4.2832,-4.3047,-4.3164,-4.3574,-4.3672,-4.3555,-4.3144,-4.3066,-4.291,-4.248,-4.2402,-4.2402,-4.2402,-4.2383,-4.209,-4.1269,-4.1172,-4.1172,-4.1172,-4.1172,-4.1172,-4.1172,-4.1172,-4.1172,-4.1172,-4.1172,-4.1172,-4.1327,-4.3055,-4.4075,-4.4226,-4.6124,-4.7774,-4.9129,-4.9129,-4.9616,-5.0419,-5.0419,-5.0393,-3.3691,0.0,-3.7969,-3.998,-4.2012,-4.373,-4.4609,-4.5469,-4.6074,-4.6094,-4.6211,-4.6269,-4.6113,-4.6797,-4.75,-4.793,-4.9238,-5.0332,-5.0742,-5.1289,-5.1172,-4.9902,-5.0371,0.0,0.0,0.0,0.0,-5.2441,-5.2891,-5.3008,-5.2734,-5.2851,-5.2676,-5.2109,-5.1797,-5.1582,-5.1426,-5.0879,-5.0586,-5.0586,-4.9863,-4.9297,-4.8867,-4.8867,-4.8867,-4.8867,-4.8867,-4.8867,-4.8848,-4.8691,-4.8633,-4.8633,-4.8476,-4.8418,-4.8437,-4.8594,-4.8281,-4.7773,-4.7773,-4.7402,-4.6855,-4.6269,-4.5801,-4.5293,-4.4433,-4.3945,-4.3555,-4.2851,-4.2441,-4.2207,-4.2207,-4.2207,-4.2363,-4.2949,-4.3086,-4.3183,-4.3613,-4.3945,-4.4023,-4.3574,-4.375,-4.3711,-4.2988,-4.2851,-4.2851,-4.2851,-4.2617,-4.2324,-4.2031,-4.1758,-4.1582,-4.1582,-4.1348,-4.1172,-4.1172,-4.1172,-4.1172,-4.1172,-4.1172,-4.1172,-4.1172,-4.1753,-4.2769,-4.4096,-4.4677,-4.591,-4.7653,-4.9109,-4.9623,-4.964,-5.0961,-5.1348,-3.6289,-3.8535,-4.084,-4.2891,-4.4687,-4.6055,-4.6484,-4.7109,-4.7402,-4.668,-4.6406,-4.6074,-4.5351,-4.541,-4.5898,-4.6953,-4.8066,-4.9258,-5.0605,-5.1016,-5.082,-4.9863,-5.0195,-5.0137,0.0,0.0,0.0,-5.2148,-5.3086,-5.3418,-5.2969,-5.3359,-5.3203,-5.2324,-5.2168,-5.1875,-5.1445,-5.1172,-5.0879,-5.0566,-4.9707,-4.9141,-4.8867,-4.8867,-4.8867,-4.8867,-4.8867,-4.8867,-4.8867,-4.8867,-4.8867,-4.8867,-4.8867,-4.8867,-4.8867,-4.8867,-4.8574,-4.8183,-4.8027,-4.7695,-4.7226,-4.6523,-4.6113,-4.5762,-4.5058,-4.4648,-4.4258,-4.3516,-4.3105,-4.2851,-4.2695,-4.2656,-4.2773,-4.3203,-4.3301,-4.3418,-4.3848,-4.4199,-4.4355,-4.4199,-4.4414,-4.4394,-4.3672,-4.3418,-4.3301,-4.3301,-4.3066,-4.2832,-4.2676,-4.2285,-4.2031,-4.2031,-4.1777,-4.1562,-4.1406,-4.1387,-4.1328,-4.1191,-4.1172,-4.1172,-4.1172,-4.1172,-4.1753,-4.3075,-4.3075,-4.3945,-4.5998,-4.7321,-4.8372,-4.9153,-5.0474,-5.1173,-3.9746,-4.1641,-4.3301,-4.5801,-4.709,-4.7812,-4.8183,-4.8535,-4.8418,-4.7109,-4.6406,-4.5644,0.0,0.0,-4.373,-4.582,-4.6387,-4.7578,-5.0488,-5.0254,-4.9922,0.0,0.0,0.0,0.0,0.0,0.0,-5.1406,0.0,-5.3808,-5.3418,-5.3848,-5.3672,-5.2734,-5.2324,-5.1894,-5.1445,-5.1406,-5.0976,-5.0137,-4.9297,-4.8887,-4.8867,-4.8867,-4.8867,-4.8867,-4.8867,-4.8867,-4.8867,-4.8867,-4.8867,-4.8867,-4.8867,-4.8867,-4.8867,-4.8867,-4.8574,-4.8144,-4.7734,-4.7285,-4.6855,-4.6465,-4.6328,-4.623,-4.584,-4.5703,-4.541,-4.416,-4.3769,-4.3652,-4.3242,-4.3105,-4.3183,-4.3633,-4.373,-4.3828,-4.4316,-4.4453,-4.457,-4.4961,-4.5019,-4.4902,-4.4473,-4.4043,-4.373,-4.3711,-4.3711,-4.3555,-4.3164,-4.2734,-4.2461,-4.2422,-4.2402,-4.2226,-4.1797,-4.1758,-4.1601,-4.1191,-4.1172,-4.1172,-4.1172,-4.1172,-4.1172,-4.1172,-4.1172,-4.2042,-4.3945,-4.4096,-4.5756,-4.8896,-4.892,-5.0084,-4.1758,-4.4297,-4.6582,-4.7891,-4.8867,-4.9453,-4.9238,-4.8535,-4.7461,-4.584,-4.3887,-4.1992,0.0,0.0,0.0,-4.418,-4.7598,0.0,-5.2031,-5.2891,0.0,0.0,0.0,-5.1758,-5.0586,-5.1055,0.0,0.0,-5.3086,-5.3633,-5.3848,-5.457,-5.4277,-5.2754,-5.2598,-5.2187,-5.1445,-5.1113,-5.0527,-4.9687,-4.9473,-4.918,-4.8867,-4.8867,-4.8867,-4.8867,-4.8867,-4.8867,-4.8867,-4.8867,-4.8867,-4.8867,-4.8867,-4.8867,-4.8867,-4.8867,-4.8574,-4.8144,-4.7734,-4.7285,-4.6914,-4.6797,-4.6562,-4.6289,-4.6172,-4.5918,-4.5605,-4.5273,-4.4707,-4.4199,-4.4082,-4.3574,-4.3281,-4.4043,-4.3965,-4.3926,-4.4707,-4.5117,-4.5293,-4.5058,-4.5019,-4.4902,-4.4473,-4.4297,-4.4101,-4.375,-4.3711,-4.3672,-4.3555,-4.3183,-4.2793,-4.2461,-4.2148,-4.1797,-4.1367,-4.1328,-4.1289,-4.1172,-4.1172,-4.1172,-4.1172,-4.1172,-4.1172,-4.1172,-4.1172,-4.1463,-4.1907,-4.3359,-4.4464,-4.5379,-4.6827,-4.8585,-4.4473,-4.6719,-4.8594,-4.9277,-4.9668,-4.959,-4.8379,-4.7402,-4.5937,-4.3066,-4.1172,0.0,0.0,0.0,0.0,0.0,0.0,0.0,-5.2148,-5.3398,-5.3808,0.0,-5.3359,0.0,-5.2031,-5.2363,-5.291,0.0,-5.3633,-5.3769,-5.4023,-5.4844,-5.4512,-5.2773,-5.2715,-5.2305,-5.1445,-5.1016,-5.0469,-4.9805,-4.9609,-4.9297,-4.8867,-4.8867,-4.8867,-4.8867,0.0,-4.8867,-4.8867,-4.8867,-4.8867,-4.8867,-4.8867,-4.8867,-4.8867,-4.8867,-4.8574,-4.8144,-4.7734,-4.7285,-4.6894,-4.6719,-4.6504,-4.6308,-4.6308,-4.6133,-4.5918,-4.5723,-4.5332,-4.4922,-4.4726,-4.4297,-4.4062,-4.4551,-4.4473,-4.4473,-4.5156,-4.5508,-4.5664,-4.5605,-4.543,-4.5234,-4.5,-4.4805,-4.459,-4.4316,-4.4121,-4.4004,-4.4004,-4.3633,-4.3262,-4.3008,-4.2773,-4.2461,-4.2051,-4.2012,-4.1933,-4.1738,-4.1543,-4.1445,-4.1445,-4.1269,-4.1172,-4.1172,-4.1172,-4.1172,-4.1172,-4.235,-4.3207,-4.4096,-4.5276,-4.6735,-4.7383,-4.8926,-5.0019,-5.0351,-5.0098,-4.9199,-4.6973,-4.584,-4.4043,-3.9824,0.0,-3.7266,-3.5254,-3.6406,-3.8555,-4.1269,0.0,-4.8262,-5.1836,-5.3086,-5.3808,-5.4316,-5.4414,-5.4258,-5.375,-5.3711,-5.4023,-5.4785,-5.4453,-5.4199,-5.4199,-5.4902,-5.4512,-5.2773,-5.2656,-5.2246,-5.1445,-5.1016,-5.0586,-5.0176,-4.9726,-4.9297,-4.8867,-4.8867,-4.8867,-4.8867,-4.8867,-4.8867,-4.8867,-4.8867,-4.8867,-4.8867,-4.8867,-4.8867,-4.8867,-4.8867,-4.8574,-4.8164,-4.7793,-4.7383,-4.6933,-4.6465,-4.6308,-4.6308,-4.6308,-4.6308,-4.623,-4.5859,-4.5723,-4.5586,-4.5215,-4.5058,-4.5039,-4.5098,-4.5117,-4.5234,-4.5664,-4.5762,-4.5859,-4.623,-4.6016,-4.5742,-4.5683,-4.5371,-4.5098,-4.5039,-4.4668,-4.4394,-4.4394,-4.3984,-4.3691,-4.3633,-4.3613,-4.3457,-4.3027,-4.2988,-4.2832,-4.2461,-4.209,-4.1894,-4.1894,-4.1523,-4.1308,-4.125,-4.125,-4.123,-4.1172,-4.1172,-4.2042,-4.3663,-4.3663,-4.4677,-4.9433,-5.0918,-5.209,-5.1816,-5.1426,-5.0449,-4.793,-4.5098,0.0,0.0,-3.5859,-3.3887,-3.2461,-3.4473,-3.7422,-4.0742,0.0,0.0,0.0,0.0,-5.5254,0.0,0.0,0.0,0.0,0.0,0.0,0.0,0.0,-5.5078,-5.5078,-5.5234,-5.4512,-5.2773,-5.2383,-5.1953,-5.1445,-5.1016,-5.0586,-5.0176,-4.9726,-4.9297,-4.8867,-4.8867,-4.8867,-4.8867,-4.8867,0.0,-4.8867,-4.8867,-4.8867,-4.8867,-4.8867,-4.8867,-4.8867,-4.8867,-4.8574,-4.8203,-4.8125,-4.7812,-4.7344,-4.6562,-4.6308,-4.6308,-4.6308,-4.6308,-4.6289,-4.6211,-4.5937,-4.5664,-4.5586,-4.5293,-4.5117,-4.5469,-4.5566,-4.5683,-4.6113,-4.6191,-4.6211,-4.6289,-4.625,-4.6094,-4.5742,-4.5605,-4.5449,-4.5078,-4.4668,-4.4394,-4.4394,-4.3984,-4.3574,-4.3223,-4.3183,-4.3008,-4.2578,-4.2539,-4.25,-4.2441,-4.2363,-4.2324,-4.2324,-4.2246,-4.2051,-4.1699,-4.1699,-4.1523,-4.1172,-4.1172,-4.1308,-4.1773,-4.1773,-4.279,-5.1328,-5.2422,-5.3301,-5.2851,-5.1758,-4.9805,-4.6074,0.0,0.0,0.0,-3.3125,-3.1836,-3.0996,0.0,0.0,0.0,0.0,0.0,0.0,0.0,0.0,0.0,0.0,0.0,0.0,0.0,0.0,0.0,0.0,-5.5879,-5.5644,-5.5,-5.4043,-5.2754,-5.2305,-5.1875,-5.1445,-5.123,-5.082,-5.0176,-4.9961,-4.9512,-4.8867,-4.8867,-4.8867,-4.8867,-4.8867,-4.8867,-4.8867,-4.8867,-4.8867,-4.8867,-4.8867,-4.8867,-4.8867,-4.8867,-4.873,-4.8516,-4.8281,-4.8066,-4.7793,-4.7168,-4.6816,-4.6621,-4.6621,-4.6621,-4.6621,-4.6621,-4.6641,-4.6621,-4.6387,-4.6172,-4.6016,-4.5996,-4.5996,-4.6055,-4.625,-4.6308,-4.6308,-4.6308,-4.6484,-4.6562,-4.6367,-4.6328,-4.625,-4.6055,-4.5469,-4.498,-4.4746,-4.4336,-4.3906,-4.3457,-4.3398,-4.332,-4.3105,-4.3086,-4.3086,-4.3086,-4.2891,-4.2754,-4.2754,-4.2539,-4.2324,-4.2129,-4.1914,-4.1699,-4.1504,-4.1289,-4.1172,-4.1172,-4.1172,-4.1773,-5.2871,-5.3828,-5.459,-5.4043,-5.2168,-4.9199,-4.4453,-4.0996,0.0,0.0,-3.0898,-3.0351,-3.0,0.0,0.0,0.0,0.0,0.0,0.0,0.0,0.0,0.0,0.0,0.0,0.0,0.0,0.0,0.0,0.0,0.0,-5.5957,-5.4805,-5.3769,-5.2871,-5.2441,-5.1973,-5.1445,-5.1348,-5.0918,-5.0176,-5.0078,-4.9629,-4.8867,-4.8867,-4.8867,-4.8867,-4.8867,-4.8867,-4.8867,-4.8867,-4.8867,-4.8867,-4.8867,-4.8867,-4.8867,-4.8867,-4.8867,-4.8808,-4.8476,-4.834,-4.8301,-4.7969,-4.75,-4.707,-4.707,-4.707,-4.707,-4.707,-4.7246,-4.7383,-4.7129,-4.6933,-4.6719,-4.6387,-4.6308,-4.6308,-4.6308,-4.6308,-4.6328,-4.6426,-4.6699,-4.6953,-4.7051,-4.707,-4.7031,-4.6933,-4.6289,-4.5644,-4.5215,-4.4805,-4.4394,-4.4023,-4.3808,-4.375,-4.3848,-4.3848,-4.3887,-4.3984,-4.3672,-4.3496,-4.3496,-4.3086,-4.2812,-4.2695,-4.2285,-4.1992,-4.1797,-4.1562,-4.1387,-4.1308,-4.1308,-4.1308,-5.3789,-5.539,-5.6719,-5.5898,-5.3496,-5.0078,-4.5351,0.0,0.0,-3.1855,-2.9961,-2.9082,-2.9043,0.0,0.0,0.0,0.0,-4.1523,0.0,0.0,0.0,0.0,0.0,0.0,0.0,0.0,0.0,0.0,0.0,0.0,-5.5937,-5.5098,-5.4219,-5.332,-5.2871,-5.2266,-5.1445,-5.1055,-5.0625,-5.0176,-4.9785,-4.9336,-4.8867,-4.8867,-4.8867,-4.8867,-4.8867,-4.8867,0.0,-4.8867,-4.8867,-4.8867,-4.8867,-4.8867,-4.8867,-4.8867,-4.8867,-4.8848,-4.8808,-4.8808,-4.8789,-4.875,-4.8183,-4.7519,-4.7519,-4.7519,-4.7519,-4.7519,-4.7266,-4.707,-4.7422,-4.6953,-4.6348,-4.6308,-4.6308,-4.6308,-4.6308,-4.6308,-4.6426,-4.6797,-4.6894,-4.7051,-4.7441,-4.7519,-4.7383,-4.6992,-4.6543,-4.6094,-4.5664,-4.5234,-4.4961,-4.4902,-4.418,-4.3867,-4.4297,-4.4336,-4.4492,-4.4883,-4.4863,-4.4844,-4.4844,-4.4433,-4.4023,-4.3594,-4.3183,-4.2578,-4.1797,-4.2148,-4.2109,-4.1738,-4.1738,-4.1738,-5.3945,-5.5976,-5.7402,-5.6543,-5.3476,-4.9433,-4.4687,0.0,-3.5,-3.0937,-2.9277,-2.8613,-2.8867,-2.9199,-3.0371,0.0,-3.4199,0.0,-4.2383,0.0,0.0,0.0,0.0,0.0,0.0,0.0,0.0,0.0,0.0,0.0,-5.5918,-5.5137,-5.4394,-5.3789,-5.3086,-5.2422,-5.1836,-5.1387,-5.0976,-5.0547,-5.0117,-4.9687,-4.9258,-4.8984,-4.8867,-4.8867,-4.8867,-4.8867,0.0,-4.8867,-4.8867,-4.8867,-4.8867,-4.8867,-4.8867,-4.8867,-4.8867,-4.8867,-4.8867,-4.8867,-4.8867,-4.8867,-4.8633,-4.8301,-4.8047,-4.7773,-4.7637,-4.7891,-4.8027,-4.8066,-4.7988,-4.7324,-4.6621,-4.6367,-4.6308,-4.6308,-4.6308,-4.6308,-4.6426,-4.6855,-4.7148,-4.7461,-4.7891,-4.7949,-4.7812,-4.7383,-4.6953,-4.6445,-4.5762,-4.5527,-4.5312,-4.5058,-4.4473,-4.4297,-4.4746,-4.4551,-4.457,-4.5,-4.5019,-4.5019,-4.5019,-4.4863,-4.457,-4.4141,-4.3691,-4.3164,-4.2558,-4.2226,-4.209,-4.2168,-4.1914,-4.1933,-5.3008,-5.5566,-5.7344,-5.6738,-5.3359,-4.8926,0.0,-3.9101,-3.4297,-3.0371,-2.8887,-2.8379,-2.8672,-2.8391,-2.8933,-3.1289,-3.1494,-3.3335,-3.8965,-4.123,0.0,0.0,0.0,0.0,0.0,0.0,0.0,0.0,0.0,0.0,-5.5742,-5.4941,-5.4355,-5.4043,-5.3164,-5.2519,-5.209,-5.1641,-5.123,-5.0801,-5.0371,-4.9941,-4.9512,-4.9062,-4.8867,-4.8867,-4.8867,-4.8867,0.0,-4.8867,-4.8867,-4.8867,-4.8867,-4.8867,-4.8867,-4.8867,-4.8769,-4.8691,-4.8808,-4.8769,-4.8691,-4.8808,-4.8769,-4.8633,-4.8457,-4.8183,-4.8027,-4.832,-4.8613,-4.8691,-4.8008,-4.748,-4.6973,-4.6426,-4.6308,-4.6308,-4.6308,-4.6308,-4.6426,-4.6855,-4.7285,-4.7715,-4.8125,-4.832,-4.8262,-4.7832,-4.75,-4.7051,-4.6328,-4.6133,-4.5937,-4.5625,-4.5098,-4.4902,-4.5195,-4.4941,-4.4961,-4.5371,-4.541,-4.541,-4.541,-4.5156,-4.4883,-4.459,-4.4004,-4.3496,-4.3086,-4.2598,-4.2461,-4.2617,-4.2324,-4.2266,-5.0762,-5.3984,-5.6601,-5.6582,-5.3359,-4.8926,-4.416,-3.9101,-3.4297,-3.0371,-2.8887,-2.8301,-2.8301,-2.7306,-2.738,-2.9831,-3.0635,-3.2873,-3.836,-4.1797,0.0,0.0,0.0,0.0,0.0,0.0,0.0,0.0,0.0,0.0,-5.5312,-5.4492,-5.4043,-5.4023,-5.3164,-5.2519,-5.209,-5.1641,-5.123,-5.0801,-5.0371,-4.9941,-4.9512,-4.9062,-4.8867,-4.8867,-4.8867,-4.8867,0.0,-4.8867,-4.8867,-4.8867,-4.8867,-4.8867,-4.8867,-4.8867,-4.8594,-4.8281,-4.8711,-4.8574,-4.8281,-4.8711,-4.8574,-4.8301,-4.873,-4.8848,-4.8848,-4.8848,-4.8848,-4.8555,-4.7266,-4.7246,-4.7363,-4.6504,-4.6308,-4.6308,-4.6308,-4.6308,-4.6426,-4.6855,-4.7285,-4.7715,-4.8125,-4.8574,-4.8711,-4.8262,-4.8203,-4.8047,-4.7617,-4.7187,-4.6914,-4.6914,-4.6152,-4.5664,-4.5664,-4.5664,-4.584,-4.6269,-4.6289,-4.6289,-4.6289,-4.5469,-4.5019,-4.5019,-4.416,-4.3496,-4.3086,-4.3496,-4.3476,-4.3066,-4.3066,-4.2832,-4.5254,-4.8027,-5.0293,-4.9707,-4.7422,-4.4394,-4.082,-3.7148,-3.3555,-3.0254,-2.8887,-2.8301,-2.8301,-2.7968,-2.8588,-3.1093,-3.1745,-3.3181,-3.7012,0.0,0.0,0.0,0.0,0.0,0.0,0.0,0.0,0.0,0.0,0.0,-5.4902,-5.4043,-5.3711,-5.4023,-5.3164,-5.2519,-5.209,-5.1641,-5.1367,-5.123,-5.0508,-5.0098,-4.9941,-4.7441,-4.6149,-4.6149,-4.6149,-4.6149,-4.6336,-4.8088,-4.8867,-4.8867,-4.8867,-4.8867,-4.8867,-4.8867,-4.8769,-4.8672,-4.8808,-4.8769,-4.8672,-4.8808,-4.8769,-4.8672,-4.8808,-4.8652,-4.8476,-4.8769,-4.8867,-4.8633,-4.7637,-4.748,-4.7363,-4.6504,-4.6308,-4.6308,-4.6308,-4.6308,-4.6426,-4.6855,-4.7285,-4.7715,-4.8125,-4.8574,-4.8711,-4.8281,-4.8203,-4.8047,-4.7637,-4.7461,-4.7266,-4.6953,-4.6699,-4.6426,-4.6133,-4.584,-4.5859,-4.6269,-4.6308,-4.6308,-4.6308,-4.5762,-4.5332,-4.5039,-4.4473,-4.3965,-4.3496,-4.3359,-4.3203,-4.3086,-4.3379,-4.3281,0.0,-4.3711,-4.5781,-4.541,-4.3711,0.0,-3.8711,-3.5644,-3.2637,-3.0098,-2.8887,-2.8174,-2.7618,-2.7082,-2.7568,-2.9713,-2.9628,-3.0846,-3.551,0.0,0.0,0.0,0.0,0.0,0.0,0.0,0.0,0.0,0.0,0.0,-5.4473,-5.375,-5.3418,-5.3535,-5.2851,-5.2344,-5.209,-5.1484,-5.1191,-5.1191,-5.0332,-4.9941,-4.9902,-4.6463,-4.4984,-4.4984,-4.4984,-4.44,0.0,-4.7493,-4.8273,-4.7493,-4.8478,-4.8867,-4.8867,-4.8867,-4.875,-4.8633,-4.8808,-4.875,-4.8633,-4.8808,-4.8867,-4.8867,-4.8867,-4.8672,-4.8516,-4.8789,-4.8867,-4.8652,-4.7793,-4.7578,-4.7363,-4.6504,-4.6426,-4.6543,-4.6543,-4.6543,-4.6621,-4.6875,-4.7285,-4.7656,-4.793,-4.8457,-4.8769,-4.8496,-4.8457,-4.8359,-4.8086,-4.793,-4.7715,-4.7441,-4.7266,-4.707,-4.6816,-4.625,-4.6016,-4.6289,-4.6308,-4.6308,-4.6308,-4.5898,-4.5547,-4.5273,-4.4844,-4.4414,-4.3965,-4.3535,-4.332,-4.332,-4.3574,-4.3555,0.0,-4.0391,0.0,0.0,0.0,0.0,-3.7305,-3.4375,0.0,-2.9883,-2.8867,-2.7853,-2.6427,-2.5241,-2.4952,-2.6501,-2.5463,-2.697,-3.4127,-3.666,0.0,0.0,0.0,0.0,0.0,0.0,0.0,0.0,0.0,0.0,-5.38,-5.3535,-5.3086,-5.2476,-5.2246,-5.2031,-5.2031,-5.1211,-5.082,-5.084,-4.9941,-4.9551,-4.9363,-4.6164,-4.4796,0.0,-4.4589,-4.3054,-4.1332,-4.6523,-4.712,-4.5173,-4.7883,-4.8867,-4.8867,-4.8867,-4.8594,-4.8301,-4.8672,-4.8574,-4.832,-4.873,-4.8867,-4.8867,-4.8867,-4.8867,-4.8867,-4.8867,-4.8867,-4.8652,-4.7793,-4.7578,-4.7363,-4.6504,-4.6621,-4.6914,-4.6894,-4.6933,-4.6973,-4.6933,-4.7305,-4.7617,-4.7617,-4.832,-4.8867,-4.8867,-4.8867,-4.8867,-4.8867,-4.8496,-4.8242,-4.8203,-4.7851,-4.7617,-4.7578,-4.6816,-4.6348,-4.6348,-4.6328,-4.6308,-4.6308,-4.5898,-4.5683,-4.5683,-4.5254,-4.4824,-4.4433,-4.3984,-4.375,-4.375,-4.373,-4.3711,-3.2012,0.0,-3.4668,-3.4434,-3.4258,-3.3828,0.0,0.0,0.0,0.0,0.0,0.0,0.0,-2.6002,-2.5979,-2.7037,-2.6869,-2.7947,-3.1686,0.0,0.0,0.0,0.0,0.0,0.0,0.0,0.0,0.0,0.0,-5.3224,-5.0567,-5.1735,-5.1294,-4.9128,-5.0777,-5.1582,-5.1582,-5.1074,-5.0957,-5.1269,-5.0078,-4.9707,-4.9811,-4.4548,-4.2099,-4.1907,-3.9981,-3.8816,-3.8636,-4.3832,-4.5567,-4.5173,-4.7883,-4.8867,-4.8867,-4.8867,-4.8789,-4.8672,-4.8437,-4.8516,-4.873,-4.8828,-4.8867,-4.8867,-4.8867,-4.8867,-4.8867,-4.8867,-4.8867,-4.8652,-4.7793,-4.7578,-4.7363,-4.6504,-4.6621,-4.6836,-4.6523,-4.6973,-4.7324,-4.6992,-4.7539,-4.8066,-4.8066,-4.8496,-4.8867,-4.8867,-4.8867,-4.8867,-4.8867,-4.8769,-4.8574,-4.8242,-4.8125,-4.793,-4.7617,-4.709,-4.6777,-4.6777,-4.6484,-4.6308,-4.6308,-4.5898,-4.5683,-4.5683,-4.5254,-4.498,-4.4883,-4.4453,-4.4238,-4.4219,-4.3867,-4.3711,-2.9902,-3.0723,-3.1523,-3.1289,-3.1406,-3.1465,0.0,0.0,0.0,0.0,0.0,0.0,0.0,0.0,0.0,-2.599,-2.5533,-2.6602,0.0,0.0,0.0,0.0,0.0,0.0,0.0,0.0,0.0,0.0,0.0,-5.2546,-4.9562,-4.9844,-4.9598,-4.796,-4.8823,-4.9931,-5.1133,-5.0723,-5.0527,-5.0547,-4.9648,-4.8756,-4.7591,-4.3261,-4.0577,-3.9431,-3.787,-3.6706,-3.5932,-4.229,-4.4211,-4.3642,-4.7493,-4.8867,-4.8867,-4.8867,-4.8867,-4.8828,-4.8594,-4.8672,-4.8867,-4.8867,-4.8867,-4.8867,-4.8867,-4.8867,-4.8867,-4.8867,-4.8867,-4.8652,-4.7793,-4.7578,-4.7422,-4.6738,-4.6914,-4.7226,-4.7187,-4.7539,-4.7793,-4.7558,-4.7891,-4.8203,-4.8203,-4.8574,-4.8867,-4.8867,-4.8867,-4.8867,-4.8867,-4.8867,-4.8769,-4.8535,-4.8496,-4.8418,-4.8183,-4.7598,-4.7148,-4.6933,-4.6543,-4.6308,-4.6308,-4.6094,-4.5957,-4.5957,-4.5547,-4.5312,-4.5312,-4.4902,-4.459,-4.4394,-4.4141,-4.3906,-2.9629,-3.0215,-3.0742,-3.0547,-3.0488,-3.0488,0.0,0.0,0.0,0.0,0.0,0.0,0.0,0.0,0.0,0.0,0.0,0.0,0.0,0.0,0.0,0.0,0.0,0.0,0.0,0.0,0.0,0.0,0.0,-5.2151,-4.8765,-4.7993,-4.7361,-4.6557,-4.6664,-4.7674,-5.0011,-5.0064,-4.9922,-4.9629,-4.9101,-4.7531,-4.5074,-4.2324,-3.9803,-3.7312,0.0,0.0,-3.4,-4.093,-4.2863,-4.1716,-4.6523,-4.8478,-4.8867,-4.8867,-4.8867,-4.8867,-4.8867,-4.8808,-4.8769,-4.8828,-4.8867,-4.8867,-4.8867,-4.8867,-4.8867,-4.8867,-4.8867,-4.8672,-4.7871,-4.7637,-4.7461,-4.7031,-4.7266,-4.7656,-4.7949,-4.8105,-4.8183,-4.8125,-4.8164,-4.8203,-4.8203,-4.8574,-4.8867,-4.8867,-4.8867,-4.8867,-4.8867,-4.8867,-4.8867,-4.8867,-4.8867,-4.8867,-4.8867,-4.8125,-4.75,-4.7051,-4.6562,-4.6308,-4.6308,-4.6308,-4.6308,-4.6308,-4.5957,-4.5781,-4.5781,-4.5332,-4.4941,-4.459,-4.4453,-4.418,-2.9902,-3.0195,-3.0039,-2.8965,-2.8691,-2.8691,0.0,0.0,0.0,0.0,0.0,0.0,0.0,0.0,0.0,0.0,0.0,0.0,0.0,0.0,0.0,0.0,0.0,0.0,0.0,0.0,0.0,0.0,0.0,-5.0434,-4.5072,-4.617,-4.4954,-4.0326,-4.4128,-4.6332,-4.6389,-4.848,-4.9785,-5.0058,-4.9238,-4.7702,-4.5507,-4.2443,-3.9787,-3.71,0.0,-3.38,-3.36,-3.7085,-3.9593,-4.1524,-4.4418,-4.6915,-4.8867,-4.8867,-4.8867,-4.8867,-4.8867,-4.8613,-4.8359,-4.873,-4.8867,-4.8867,-4.8867,-4.8867,-4.8867,-4.8867,-4.8867,-4.875,-4.8242,-4.7851,-4.7461,-4.7031,-4.7266,-4.75,-4.7187,-4.7695,-4.8105,-4.7754,-4.7969,-4.8203,-4.8203,-4.8574,-4.8867,-4.8867,-4.8867,-4.8867,-4.8867,-4.8867,-4.8867,-4.8867,-4.8867,-4.8867,-4.8867,-4.8398,-4.793,-4.75,-4.6738,-4.6308,-4.6308,-4.6308,-4.6308,-4.6308,-4.623,-4.6211,-4.6211,-4.5781,-4.5547,-4.5469,-4.4726,-4.4355,-2.9394,-2.9336,-2.9199,-2.9297,-2.9512,-2.9629,0.0,0.0,0.0,0.0,0.0,0.0,0.0,0.0,0.0,0.0,0.0,0.0,0.0,0.0,0.0,0.0,0.0,0.0,0.0,0.0,0.0,0.0,-5.2871,-4.991,-4.399,-4.4276,-4.2891,-3.8725,-4.1949,-4.443,-4.5616,-4.793,-4.9258,-4.9453,-4.9043,-4.6841,-4.3139,-4.1799,-3.901,-3.5153,0.0,-3.3414,-3.36,-3.6115,-3.8831,-4.1524,-4.4021,-4.6523,-4.8867,-4.8867,-4.8867,-4.8867,-4.8867,-4.873,-4.8594,-4.8789,-4.8867,-4.8867,-4.8867,-4.8867,-4.8867,-4.8867,-4.8867,-4.875,-4.832,-4.8066,-4.7871,-4.7676,-4.7773,-4.793,-4.7969,-4.8086,-4.8144,-4.7949,-4.7891,-4.793,-4.8164,-4.8379,-4.8594,-4.8828,-4.8867,-4.8867,-4.8867,-4.8867,-4.8867,-4.8867,-4.8867,-4.8867,-4.8867,-4.8457,-4.8027,-4.7617,-4.6777,-4.6406,-4.6641,-4.6426,-4.6308,-4.6308,-4.6308,-4.6308,-4.6308,-4.6113,-4.5898,-4.5664,-4.5273,-4.4961,-2.9023,-2.8848,-2.8848,-2.9922,0.0,0.0,0.0,0.0,0.0,0.0,0.0,0.0,0.0,0.0,0.0,0.0,0.0,0.0,0.0,0.0,0.0,0.0,0.0,0.0,0.0,0.0,0.0,-5.3047,-5.2363,-4.9479,-4.3607,-4.2974,-4.1016,-3.7402,-3.9423,-4.1957,-4.469,-4.6897,-4.8273,-4.8867,-4.8867,-4.6542,-4.2099,-4.1524,-3.8636,-3.4186,-3.36,-3.3414,-3.3614,-3.5536,-3.8246,-4.1332,-4.3262,-4.6149,-4.8867,-4.8867,-4.8867,-4.8867,-4.8867,-4.8867,-4.8848,-4.873,-4.8769,-4.8848,-4.873,-4.8769,-4.8867,-4.8867,-4.8867,-4.8789,-4.8437,-4.8281,-4.8183,-4.8086,-4.8125,-4.8242,-4.8379,-4.8301,-4.8183,-4.8086,-4.7793,-4.7676,-4.8008,-4.8144,-4.832,-4.8652,-4.8789,-4.8867,-4.8867,-4.8867,-4.8867,-4.8867,-4.8867,-4.8867,-4.8867,-4.8457,-4.8105,-4.7891,-4.707,-4.6699,-4.6914,-4.6621,-4.6445,-4.6445,-4.6348,-4.6308,-4.6308,-4.6308,-4.6133,-4.582,-4.5723,-4.5508,-2.9316,-2.9492,-2.959,0.0,0.0,0.0,0.0,0.0,0.0,0.0,0.0,0.0,0.0,0.0,0.0,0.0,0.0,0.0,0.0,0.0,0.0,0.0,0.0,0.0,0.0,0.0,-5.2558,-5.2207,-5.1738,-4.8871,-4.324,-4.236,-3.9621,-3.4314,-3.6332,-3.8862,-4.1574,-4.4039,-4.6523,-4.8867,-4.8867,-4.7493,-4.4589,-4.2307,-3.9609,-3.6889,-3.4372,-3.3414,-3.3414,-3.36,-3.6706,-4.1139,-4.1365,-4.4436,-4.8867,-4.8867,-4.8867,-4.8867,-4.8867,-4.8867,-4.8789,-4.8379,-4.8535,-4.8789,-4.8379,-4.8535,-4.8867,-4.8867,-4.8867,-4.8848,-4.8808,-4.8516,-4.8105,-4.7715,-4.793,-4.8008,-4.7226,-4.7676,-4.8086,-4.7695,-4.7598,-4.7598,-4.7617,-4.7949,-4.8223,-4.8242,-4.8594,-4.8867,-4.8867,-4.8867,-4.8867,-4.8867,-4.8867,-4.8867,-4.8867,-4.8457,-4.8359,-4.875,-4.7969,-4.7324,-4.6953,-4.6894,-4.6875,-4.6875,-4.6504,-4.6308,-4.6308,-4.6308,-4.6289,-4.625,-4.5859,-4.5664,-2.9082,-2.9551,-3.0137,0.0,0.0,0.0,0.0,0.0,0.0,0.0,0.0,0.0,0.0,0.0,0.0,0.0,0.0,0.0,0.0,0.0,0.0,0.0,0.0,0.0,0.0,-4.7077,-4.9252,-5.0706,-5.0742,-4.886,-4.4904,-4.2842,-4.0038,-3.6133,-3.678,-3.7689,-3.8847,-4.2881,-4.5567,-4.6523,-4.8088,-4.7493,-4.4984,-4.2307,-3.9803,-3.7115,-3.4585,-3.3414,-3.3414,-3.3414,-3.6509,-4.1524,-4.4814,-4.712,-4.8867,-4.8867,-4.8867,-4.8867,-4.8867,-4.8867,-4.8828,-4.8672,-4.873,-4.8828,-4.8672,-4.873,-4.8867,-4.8867,-4.8867,-4.8867,-4.8867,-4.873,-4.8574,-4.8418,-4.8496,-4.8516,-4.8203,-4.8164,-4.8164,-4.8008,-4.7539,-4.7266,-4.7539,-4.7715,-4.791,-4.8164,-4.8574,-4.8867,-4.8867,-4.8867,-4.8867,-4.8867,-4.8867,-4.8867,-4.8867,-4.8711,-4.8574,-4.8457,-4.7656,-4.7344,-4.7715,-4.6973,-4.666,-4.6933,-4.6523,-4.6308,-4.6308,-4.6308,-4.6308,-4.6289,-4.6133,-4.6055,-2.8691,-2.9043,-2.9609,-3.0488,0.0,0.0,0.0,0.0,0.0,0.0,0.0,0.0,0.0,0.0,0.0,0.0,0.0,0.0,0.0,0.0,0.0,0.0,0.0,0.0,-4.0841,-4.4211,-4.7002,-4.8786,-4.966,-4.8671,-4.5825,-4.3152,-4.0238,-3.7478,-3.6524,-3.6539,-3.7312,-4.0754,-4.3434,-4.4984,-4.6728,-4.7102,-4.613,-4.2553,-4.0078,-3.8261,-3.4871,-3.328,-3.328,-3.328,-3.6305,-4.1381,-4.5722,-4.808,-4.8672,-4.8808,-4.8867,-4.8867,-4.8867,-4.8769,-4.8633,-4.8496,-4.8535,-4.8633,-4.8496,-4.8652,-4.8867,-4.8867,-4.8867,-4.8867,-4.8867,-4.8867,-4.8828,-4.8691,-4.875,-4.8789,-4.8516,-4.8437,-4.8379,-4.8242,-4.7734,-4.7383,-4.7558,-4.7695,-4.7832,-4.7988,-4.8496,-4.8867,-4.8867,-4.8867,-4.8867,-4.8867,-4.8867,-4.8867,-4.8867,-4.8867,-4.873,-4.8437,-4.7734,-4.7598,-4.8183,-4.7363,-4.6973,-4.7129,-4.6719,-4.6426,-4.6308,-4.6308,-4.6308,-4.6308,-4.6308,-4.6308,-2.8184,-2.8008,-2.7891,0.0,0.0,0.0,0.0,0.0,0.0,0.0,0.0,0.0,0.0,0.0,0.0,0.0,0.0,0.0,0.0,0.0,0.0,0.0,-3.6235,-3.7924,-3.8455,-4.3214,-4.6193,-4.6386,-4.8178,-4.8347,-4.5807,-4.2895,-3.9981,-3.7463,-3.4756,-3.4571,-3.7282,-3.7267,-3.9771,-4.4966,-4.4966,-4.6317,-4.8643,-4.3239,-4.0792,-4.093,-3.5405,-3.2973,-3.2973,-3.2973,-3.5851,-4.0474,-4.3484,-4.6111,-4.8262,-4.8691,-4.8848,-4.8848,-4.8848,-4.8574,-4.8125,-4.7715,-4.7851,-4.8125,-4.7715,-4.8183,-4.8848,-4.8867,-4.8867,-4.8867,-4.8867,-4.8848,-4.875,-4.8301,-4.8535,-4.8633,-4.7773,-4.8262,-4.873,-4.8301,-4.8203,-4.8066,-4.7656,-4.793,-4.8066,-4.7656,-4.832,-4.8867,-4.8867,-4.8867,-4.8867,-4.8867,-4.8867,-4.8867,-4.8867,-4.8867,-4.8867,-4.8867,-4.8457,-4.8203,-4.8203,-4.8203,-4.8008,-4.7578,-4.7148,-4.6719,-4.6308,-4.6308,-4.6308,-4.6308,-4.6308,-4.6308,-2.9082,-2.9101,0.0,0.0,0.0,0.0,0.0,0.0,0.0,0.0,0.0,0.0,0.0,0.0,0.0,0.0,0.0,0.0,0.0,0.0,-3.6681,-3.6231,-3.5294,-3.5536,-3.7383,-4.0692,-4.3417,-4.5345,-4.7759,-4.8672,-4.8075,-4.3712,-4.0832,-3.9804,-3.5405,-3.3395,-3.3948,-3.5836,-3.7348,-3.9053,-4.2446,-4.5779,-4.8643,-4.3239,-4.0834,-4.0552,-3.509,-3.2679,-3.2861,-3.4559,-3.7341,-4.0441,-4.2997,-4.568,-4.7812,-4.8242,-4.8223,-4.8008,-4.8301,-4.8125,-4.7754,-4.7617,-4.7656,-4.7793,-4.7969,-4.8203,-4.8457,-4.8769,-4.8867,-4.8867,-4.8867,-4.8633,-4.8359,-4.8242,-4.8535,-4.8711,-4.8144,-4.8457,-4.8828,-4.8691,-4.8418,-4.8164,-4.8047,-4.8125,-4.8164,-4.8047,-4.8496,-4.8867,-4.8867,-4.8867,-4.8867,-4.8867,-4.8867,-4.8867,-4.8867,-4.8867,-4.8867,-4.8867,-4.873,-4.8535,-4.8223,-4.7617,-4.7246,-4.7129,-4.6699,-4.6426,-4.6308,-4.6308,-4.6308,-4.6308,-4.6308,-4.6308,-2.9101,0.0,0.0,0.0,0.0,0.0,0.0,0.0,0.0,0.0,0.0,0.0,0.0,0.0,0.0,0.0,0.0,0.0,0.0,0.0,-3.8751,-3.7057,-3.5672,-3.497,-3.5548,-3.7989,-4.077,-4.3262,-4.5943,-4.7883,-4.8848,-4.484,-4.1968,-4.0784,-3.6476,-3.367,-3.2545,-3.4045,-3.5366,-3.6486,-4.0424,-4.4064,-4.6795,-4.2225,-4.0436,-4.0174,-3.476,-3.2372,-3.2552,-3.3929,-3.5921,-3.8537,-4.1084,-4.376,-4.6067,-4.7431,-4.7793,-4.7617,-4.7871,-4.7676,-4.7324,-4.7324,-4.7324,-4.7363,-4.7617,-4.7812,-4.8008,-4.8281,-4.8359,-4.8359,-4.8359,-4.8164,-4.8008,-4.8164,-4.8418,-4.8535,-4.8262,-4.8555,-4.8867,-4.8867,-4.8652,-4.8418,-4.8242,-4.834,-4.8398,-4.8223,-4.8574,-4.8867,-4.8867,-4.8867,-4.8867,-4.8867,-4.8867,-4.8867,-4.8867,-4.8867,-4.8867,-4.8867,-4.8867,-4.8672,-4.8223,-4.7715,-4.7363,-4.7187,-4.6777,-4.6465,-4.6308,-4.6308,-4.6308,-4.6308,-4.6308,-4.6308,0.0,0.0,0.0,0.0,0.0,0.0,0.0,0.0,0.0,0.0,0.0,0.0,0.0,0.0,0.0,0.0,0.0,0.0,0.0,0.0,-4.1896,-3.7058,-3.6564,-3.5608,-3.313,-3.5505,-3.8185,-4.0656,-4.3347,-4.6019,-4.8342,-4.5872,-4.3199,-4.0685,-3.7737,-3.4924,-3.2425,-3.2425,-3.3547,-3.5985,-3.8386,-4.1001,-4.3265,-4.093,-3.9839,-3.934,-3.4183,-3.2011,-3.1957,-3.173,-3.3079,-3.5449,-3.8168,-4.0892,-4.3542,-4.6171,-4.7281,-4.7461,-4.75,-4.7246,-4.6875,-4.6875,-4.6875,-4.6875,-4.6914,-4.7207,-4.7519,-4.7578,-4.7578,-4.7578,-4.7578,-4.7558,-4.7617,-4.8008,-4.8144,-4.8203,-4.8164,-4.8516,-4.8867,-4.8867,-4.8867,-4.873,-4.834,-4.8594,-4.873,-4.832,-4.8613,-4.8867,-4.8867,-4.8867,-4.8867,-4.8867,-4.8867,-4.8867,-4.8867,-4.8867,-4.8867,-4.8867,-4.8867,-4.8672,-4.8281,-4.8183,-4.7949,-4.7519,-4.709,-4.668,-4.6308,-4.6308,-4.6308,-4.6308,-4.6308,-4.6308,0.0,0.0,0.0,0.0,0.0,0.0,0.0,0.0,0.0,0.0,0.0,0.0,0.0,0.0,0.0,0.0,0.0,0.0,0.0,-4.4411,-4.2171,-3.9658,-3.7501,-3.5275,-3.2821,-3.4975,-3.6904,-3.7463,-4.1612,-4.4433,-4.5004,-4.4177,-4.2671,-3.9938,-3.7257,-3.4391,-3.1517,-3.1503,-3.1692,-3.2418,-3.4537,-3.7067,-3.9536,-4.15,-4.0173,-3.5883,-3.271,-3.1289,-3.1089,-3.1249,-3.2631,-3.4591,-3.5654,-3.8498,-4.2528,-4.3481,-4.4913,-4.6621,-4.6953,-4.6797,-4.6445,-4.6445,-4.6445,-4.6504,-4.6816,-4.6992,-4.7148,-4.748,-4.7578,-4.7578,-4.7578,-4.7324,-4.709,-4.7187,-4.7715,-4.8105,-4.7793,-4.832,-4.8867,-4.8867,-4.8867,-4.8828,-4.873,-4.8789,-4.8828,-4.873,-4.8808,-4.8867,-4.8867,-4.8867,-4.8867,-4.8867,-4.8867,-4.8867,-4.8867,-4.8867,-4.8867,-4.8867,-4.8867,-4.8808,-4.873,-4.8066,-4.7519,-4.707,-4.666,-4.6387,-4.6308,-4.6308,-4.6308,-4.6308,-4.6308,-4.6308,0.0,0.0,0.0,0.0,0.0,0.0,0.0,0.0,0.0,0.0,0.0,0.0,0.0,0.0,0.0,0.0,0.0,0.0,-4.6016,-4.5274,-4.3628,-4.1058,-3.8933,-3.6753,-3.3993,-3.4262,-3.5188,-3.631,-3.8749,-4.0798,-4.2116,-4.3064,-4.1665,-3.7798,-3.727,-3.5039,-3.0822,-3.0942,-3.0942,-3.0808,-3.3292,-3.6411,-3.9819,-4.0393,-3.8547,-3.4438,-3.2094,-3.0929,-3.0808,-3.0955,-3.1642,-3.276,-3.4182,-3.6318,-3.9004,-4.1551,-4.3383,-4.4687,-4.6191,-4.6484,-4.6308,-4.6308,-4.6308,-4.6308,-4.6328,-4.6328,-4.6387,-4.6601,-4.666,-4.6719,-4.6914,-4.6797,-4.6621,-4.6621,-4.7129,-4.7539,-4.7324,-4.7949,-4.8535,-4.8535,-4.8711,-4.8867,-4.8867,-4.8867,-4.8867,-4.8867,-4.8867,-4.8867,-4.8867,-4.8867,-4.8867,-4.8867,-4.8867,-4.8867,-4.8867,-4.8867,-4.8867,-4.8867,-4.8867,-4.8867,-4.8867,-4.8223,-4.7773,-4.7539,-4.6914,-4.6601,-4.6601,-4.6406,-4.6308,-4.6308,-4.6308,-4.6308,0.0,0.0,0.0,0.0,0.0,0.0,0.0,0.0,0.0,0.0,0.0,0.0,0.0,0.0,0.0,0.0,0.0,-4.584,-4.5117,-4.5625,-4.4913,-4.1731,-4.0155,-3.8023,-3.5189,-3.3253,-3.3175,-3.5222,-3.5777,-3.7115,-3.9226,-4.1657,-4.0601,-3.562,-3.7217,-3.5809,-3.0287,-3.0474,-3.0448,-3.0207,-3.293,-3.658,-4.0624,-3.8433,-3.6547,-3.4532,-3.2183,-3.0894,-3.0501,-3.0595,-3.0608,-3.0751,-3.2799,-3.4078,-3.5213,-3.9693,-4.1904,-4.2796,-4.5163,-4.6074,-4.6094,-4.6172,-4.6133,-4.6035,-4.5762,-4.5625,-4.5586,-4.5644,-4.5683,-4.5781,-4.6191,-4.6308,-4.6308,-4.6308,-4.6562,-4.6836,-4.6914,-4.7539,-4.8125,-4.8203,-4.8555,-4.8867,-4.8867,-4.8867,-4.8867,-4.8867,-4.8867,-4.8828,-4.875,-4.8808,-4.8828,-4.875,-4.8808,-4.8867,-4.8867,-4.8867,-4.8867,-4.8867,-4.8867,-4.8867,-4.8867,-4.8516,-4.832,-4.832,-4.7402,-4.6933,-4.6933,-4.6504,-4.6308,-4.6308,-4.6308,-4.6308,0.0,0.0,0.0,0.0,0.0,0.0,0.0,0.0,0.0,0.0,0.0,0.0,0.0,0.0,0.0,0.0,-4.541,-4.5156,-4.5039,-4.5117,-4.4262,-4.1659,-3.947,-3.7029,-3.4486,-3.2421,-3.1208,-3.1566,-3.3538,-3.4908,-3.5577,-3.9584,-3.9676,-3.5089,-3.6626,-3.5233,-2.998,-2.9766,-2.9646,-2.9606,-3.2047,-3.4454,-3.6808,-3.6323,-3.6198,-3.6427,-3.3725,-3.1218,-2.9312,-2.982,-2.9887,-2.9713,-3.0569,-3.2209,-3.4529,-3.7172,-3.9687,-4.1978,-4.43,-4.5195,-4.5254,-4.5644,-4.5508,-4.5254,-4.5586,-4.541,-4.5195,-4.5566,-4.5683,-4.5781,-4.6191,-4.6308,-4.6308,-4.6308,-4.6348,-4.6484,-4.6855,-4.7324,-4.7773,-4.8144,-4.8555,-4.8867,-4.8867,-4.8867,-4.8867,-4.8867,-4.8867,-4.873,-4.834,-4.8613,-4.8711,-4.834,-4.8633,-4.8867,-4.8867,-4.8867,-4.8867,-4.8867,-4.8867,-4.8867,-4.8867,-4.8808,-4.8769,-4.8769,-4.7558,-4.6933,-4.6933,-4.6504,-4.6308,-4.6308,-4.6308,-4.6308,0.0,0.0,0.0,0.0,0.0,0.0,0.0,0.0,0.0,0.0,0.0,0.0,0.0,0.0,0.0,-4.4316,-4.4668,-4.4766,-4.4043,-4.457,-4.4485,-4.2932,-4.1006,-3.8811,-3.5939,-3.3799,-3.1959,-3.0724,-3.1609,-3.2197,-3.2338,-3.5576,-3.5744,-3.2011,-3.3998,-3.3081,-2.9192,-2.9219,-2.9232,-2.9232,-3.0253,-3.1944,-3.4111,-3.4925,-3.5708,-3.6187,-3.3505,-3.1181,-2.9058,-2.9312,-2.9352,-2.9259,-2.9526,-3.052,-3.2033,-3.4472,-3.7074,-3.986,-4.2352,-4.3957,-4.5058,-4.5254,-4.5176,-4.5019,-4.498,-4.4824,-4.4707,-4.4902,-4.5117,-4.541,-4.584,-4.6133,-4.6308,-4.6308,-4.6308,-4.6348,-4.6543,-4.6914,-4.7402,-4.8086,-4.8359,-4.8574,-4.8808,-4.8867,-4.8867,-4.8867,-4.8867,-4.8691,-4.8262,-4.8379,-4.8418,-4.8223,-4.8379,-4.8594,-4.8828,-4.8867,-4.8867,-4.8867,-4.8867,-4.8867,-4.8867,-4.8613,-4.8496,-4.8496,-4.793,-4.7637,-4.7637,-4.6973,-4.6777,-4.7012,-4.6777,-4.6777,0.0,0.0,0.0,0.0,0.0,0.0,0.0,0.0,0.0,0.0,0.0,0.0,0.0,0.0,-4.4082,-4.3223,-4.3808,-4.4062,-4.3203,-4.3906,-4.4316,-4.3769,-4.2087,-4.0079,-3.7776,-3.494,-3.263,-3.107,-3.0366,-3.006,-3.014,-3.2333,-3.2279,-2.9676,-3.1714,-3.1396,-2.8604,-2.8751,-2.8858,-2.8925,-2.8845,-3.0024,-3.2429,-3.3573,-3.4371,-3.4612,-3.3457,-3.1306,-2.8818,-2.8898,-2.8938,-2.8938,-2.9005,-2.9312,-3.0055,-3.2544,-3.4777,-3.698,-3.9548,-4.1867,-4.3821,-4.3936,-4.4257,-4.4648,-4.4453,-4.4316,-4.4277,-4.4492,-4.4785,-4.5156,-4.5703,-4.6074,-4.6308,-4.6308,-4.6308,-4.6308,-4.6308,-4.6641,-4.7148,-4.791,-4.8047,-4.8223,-4.8769,-4.8769,-4.873,-4.8848,-4.8867,-4.8691,-4.8262,-4.8301,-4.8281,-4.8066,-4.8242,-4.8457,-4.8672,-4.8789,-4.8867,-4.8867,-4.8867,-4.8867,-4.8867,-4.8437,-4.8203,-4.8203,-4.8105,-4.8047,-4.8047,-4.7305,-4.709,-4.7402,-4.709,-4.7051,0.0,0.0,0.0,0.0,0.0,0.0,0.0,0.0,0.0,0.0,0.0,0.0,0.0,-4.2285,-4.2676,-4.3027,-4.2793,-4.2676,-4.3027,-4.3144,-4.3301,-4.3672,-4.1323,-3.9569,-3.9515,-3.5145,-3.2282,-3.2282,-3.0274,-2.9232,-2.9513,-3.1469,-3.1599,-2.9649,-3.1095,-3.0933,-2.8604,-2.8323,-2.8337,-2.8631,-2.8323,-2.9481,-3.19,-3.1738,-3.1602,-3.1768,-3.374,-3.2113,-2.8217,-2.8511,-2.8631,-2.8657,-2.8938,-2.9058,-2.9286,-3.1946,-3.3105,-3.3527,-3.6075,-3.8597,-4.0554,-4.0953,-4.2368,-4.3848,-4.4277,-4.4082,-4.3926,-4.4766,-4.5,-4.5215,-4.6055,-4.6289,-4.6308,-4.6308,-4.6308,-4.6308,-4.6308,-4.6641,-4.707,-4.7519,-4.7617,-4.7871,-4.8711,-4.8516,-4.8379,-4.8789,-4.8867,-4.8691,-4.8262,-4.8574,-4.8516,-4.7695,-4.834,-4.8672,-4.8281,-4.8613,-4.8867,-4.8867,-4.8867,-4.8867,-4.8867,-4.8437,-4.8203,-4.8203,-4.7812,-4.7617,-4.7617,-4.7148,-4.6933,-4.6973,-4.6933,-4.6738,0.0,0.0,0.0,0.0,0.0,0.0,0.0,0.0,0.0,0.0,0.0,0.0,-4.1426,-4.1953,-4.2305,-4.1914,-4.2168,-4.2383,-4.2266,-4.2734,-4.3125,-4.3281,-4.2471,-4.126,-3.9467,-3.7431,-3.5046,-3.2218,-3.1233,-3.0296,-2.8911,-2.9652,-2.9556,-2.8617,-2.9239,-2.9116,-2.831,-2.8203,-2.8203,-2.831,-2.819,-2.8683,-2.9607,-3.0803,-3.0578,-2.9453,-3.1557,-3.091,-2.815,-2.827,-2.831,-2.8323,-2.8417,-2.8591,-2.895,-2.9707,-3.1224,-3.2789,-3.3969,-3.6808,-4.0101,-4.0349,-4.1938,-4.373,-4.3906,-4.3828,-4.3828,-4.4453,-4.4824,-4.5156,-4.5742,-4.6113,-4.6308,-4.6308,-4.6308,-4.6308,-4.6308,-4.6426,-4.666,-4.707,-4.7168,-4.7441,-4.8301,-4.8301,-4.8359,-4.8789,-4.8867,-4.8691,-4.8262,-4.834,-4.8223,-4.7637,-4.7851,-4.7969,-4.7812,-4.8203,-4.8437,-4.8437,-4.8711,-4.8867,-4.8867,-4.8183,-4.7793,-4.7793,-4.7383,-4.7305,-4.7578,-4.7148,-4.707,-4.7344,-4.7051,-4.7148,0.0,0.0,0.0,0.0,0.0,0.0,0.0,0.0,0.0,0.0,0.0,-4.084,-4.1113,-4.1621,-4.1816,-4.1269,-4.1641,-4.1953,-4.1816,-4.2285,-4.2695,-4.2851,-4.2734,-4.2017,-4.0242,-3.9011,-3.713,-3.4013,-3.2539,0.0,-2.9606,-2.8784,-2.835,-2.815,-2.8136,-2.8136,-2.8136,-2.8136,-2.8136,-2.8136,-2.8136,-2.8136,-2.8305,-2.9607,-2.9607,-2.8305,-3.0426,-3.0592,-2.9286,-2.8473,-2.8628,-2.9118,-2.8473,-2.827,-2.847,-2.8564,-2.9727,-3.1295,-3.1426,-3.4656,-3.8698,-3.8944,-4.1175,-4.3711,-4.3711,-4.3711,-4.3808,-4.4258,-4.459,-4.4941,-4.5527,-4.5996,-4.6308,-4.6308,-4.6308,-4.6308,-4.6308,-4.6308,-4.6426,-4.6855,-4.6816,-4.6992,-4.7851,-4.7988,-4.8144,-4.8574,-4.8769,-4.875,-4.8457,-4.8301,-4.8047,-4.7617,-4.7578,-4.7519,-4.7383,-4.7871,-4.8203,-4.8203,-4.8476,-4.8633,-4.8633,-4.7812,-4.7363,-4.7363,-4.6933,-4.6855,-4.7148,-4.7012,-4.707,-4.7363,-4.7207,-4.7539,0.0,0.0,0.0,0.0,0.0,0.0,0.0,0.0,0.0,0.0,-3.9238,-4.0117,-4.0996,-4.1172,-4.1172,-4.1172,-4.1172,-4.1308,-4.1719,-4.1797,-4.1953,-4.2363,-4.2051,-4.1797,-4.1797,-3.944,-3.7896,-3.7896,-3.4002,-3.1557,-3.1392,-2.9453,-2.8136,-2.8136,-2.8136,-2.8136,-2.8123,-2.8123,-2.8123,-2.8123,-2.8123,-2.8136,-2.8136,-2.8136,-2.8136,-2.8305,-3.0426,-3.1407,-3.1227,-2.9286,-2.9607,-3.1241,-2.9118,-2.8305,-2.8177,-2.8484,-2.8591,-2.8631,-2.8925,-3.2259,-3.6269,-3.6286,-3.9581,-4.3507,-4.3507,-4.3691,-4.3808,-4.4258,-4.4394,-4.459,-4.543,-4.5976,-4.6289,-4.6289,-4.6289,-4.6308,-4.6308,-4.6308,-4.6426,-4.6836,-4.6582,-4.6562,-4.7422,-4.7578,-4.7715,-4.8144,-4.8574,-4.8867,-4.8867,-4.8476,-4.8047,-4.7617,-4.7578,-4.7383,-4.6953,-4.7676,-4.8164,-4.8164,-4.8183,-4.8203,-4.8203,-4.7383,-4.6933,-4.6953,-4.6523,-4.6308,-4.6308,-4.6719,-4.6914,-4.6914,-4.7383,-4.7793,-2.9453,0.0,0.0,0.0,0.0,0.0,0.0,0.0,0.0,-3.6953,-3.8125,-3.9297,-4.0488,-4.0957,-4.1172,-4.1172,-4.1172,-4.1211,-4.1328,-4.1601,-4.1836,-4.1953,-4.1875,-4.1797,-4.1797,-4.0917,-3.9688,0.0,-3.6762,-3.4651,-3.1557,-2.9453,-2.8136,-2.8136,-2.8136,-2.8043,-2.7829,-2.7816,-2.7816,-2.7816,-2.7816,-2.7936,-2.8136,-2.8136,-2.8136,-2.8305,-2.8796,-2.9941,-3.1392,-3.2546,-3.2381,-3.1407,-3.0744,-2.9607,-2.815,-2.8243,-2.827,-2.831,-2.8617,-3.0766,-3.3198,-3.3461,-3.6812,-4.0842,-4.0842,-4.2245,-4.3808,-4.4258,-4.4394,-4.4531,-4.5058,-4.5742,-4.623,-4.5918,-4.6074,-4.6308,-4.6308,-4.6308,-4.6328,-4.6445,-4.6387,-4.6484,-4.7012,-4.7383,-4.7715,-4.8144,-4.8574,-4.8867,-4.8867,-4.8476,-4.8047,-4.7617,-4.7305,-4.6933,-4.6504,-4.6973,-4.7285,-4.7285,-4.7578,-4.7891,-4.8203,-4.7383,-4.707,-4.7402,-4.668,-4.6308,-4.6308,-4.6426,-4.6484,-4.6484,-4.7246,-4.7637,0.0,0.0,0.0,0.0,0.0,0.0,-3.1268,-3.2266,-3.3437,0.0,-3.582,-3.7207,-3.8867,-3.9531,-4.0,-4.0547,-4.0644,-4.0762,-4.1113,-4.1387,-4.1543,-4.1543,-4.1543,-4.1543,-4.1543,-4.1308,-4.0685,-3.9374,-3.839,-3.5943,-3.1557,-3.026,-2.9063,-2.7963,-2.7963,-2.7816,-2.7522,-2.7522,-2.7522,-2.7522,-2.7642,-2.7789,-2.7963,-2.8083,-2.8136,-2.8305,-2.9118,-3.026,-3.1557,-3.4813,-3.4164,-3.1392,-3.1392,-3.0093,-2.8136,-2.8136,-2.8136,-2.8163,-2.835,-2.9973,-3.2068,-3.2279,-3.4919,-3.8417,-3.9425,-4.0842,-4.2321,-4.3799,-4.4258,-4.4453,-4.4707,-4.5273,-4.5703,-4.5469,-4.5586,-4.582,-4.5996,-4.6035,-4.6094,-4.6269,-4.6308,-4.6387,-4.6621,-4.7031,-4.7402,-4.7637,-4.8203,-4.8594,-4.8594,-4.8203,-4.7851,-4.7617,-4.7031,-4.6562,-4.6328,-4.6699,-4.6933,-4.6933,-4.7168,-4.7422,-4.7656,-4.7031,-4.6777,-4.7031,-4.6562,-4.6308,-4.6308,-4.6308,-4.6387,-4.6582,-4.7266,-4.7676,0.0,0.0,0.0,0.0,0.0,0.0,-2.9757,-3.047,-3.1152,0.0,-3.3184,-3.4629,-3.6699,-3.7461,-3.8144,-3.9277,-3.9629,-4.0059,-4.0976,-4.1152,-4.1152,-4.1113,-4.1152,-4.1172,-4.1172,-4.1172,-4.1172,-4.1172,-3.9198,-3.623,-3.2273,-3.1647,-3.0389,-2.7973,-2.7808,-2.7509,-2.7215,-2.7215,-2.7215,-2.7228,-2.7482,-2.7615,-2.7655,-2.7963,-2.8096,-2.8265,-3.0245,-3.1076,-3.1392,-3.546,-3.4975,-3.1392,-3.1722,-3.026,-2.8136,-2.8136,-2.8136,-2.8136,-2.8136,-2.9621,-3.1658,-3.1658,-3.3364,-3.5891,-3.8618,-3.9609,-4.0418,-4.2895,-4.4043,-4.4394,-4.4336,-4.4668,-4.5019,-4.4961,-4.5,-4.5137,-4.5586,-4.5683,-4.5801,-4.623,-4.6308,-4.6308,-4.6308,-4.6641,-4.6933,-4.6933,-4.7617,-4.8144,-4.8144,-4.7773,-4.75,-4.75,-4.6777,-4.6308,-4.6308,-4.6641,-4.6855,-4.6855,-4.6855,-4.6875,-4.6933,-4.6523,-4.6328,-4.6367,-4.6328,-4.6308,-4.6308,-4.6308,-4.6504,-4.6875,-4.7363,-4.7773,0.0,0.0,0.0,0.0,0.0,0.0,-2.8674,-2.9846,-3.123,0.0,-3.3144,-3.4004,-3.5488,-3.6387,-3.6894,-3.6797,-3.793,-3.9258,-4.0488,-4.0957,-4.1035,-4.0684,-4.0957,-4.1172,-4.1172,-4.1172,-4.1172,-4.1172,-3.9198,-3.7292,-3.5713,-3.2777,-3.0691,-2.9895,-2.8139,-2.7215,-2.6907,-2.6907,-2.6907,-2.6907,-2.6961,-2.7121,-2.7362,-2.7655,-2.7789,-2.7802,-2.8533,-2.8796,-2.895,-3.1557,-3.2217,-3.1557,-3.3349,-3.1737,-2.8136,-2.8136,-2.8136,-2.8136,-2.8136,-2.8514,-2.8878,-2.8878,-3.073,-3.3197,-3.5875,-3.8049,-4.0418,-4.2895,-4.4043,-4.4316,-4.3926,-4.4433,-4.4941,-4.4609,-4.4785,-4.5137,-4.5586,-4.5683,-4.5801,-4.623,-4.6308,-4.6308,-4.6308,-4.6641,-4.6933,-4.6933,-4.7363,-4.7695,-4.7695,-4.7324,-4.7051,-4.7051,-4.6601,-4.6308,-4.6308,-4.6367,-4.6426,-4.6426,-4.6426,-4.6582,-4.6914,-4.6523,-4.6465,-4.6797,-4.6465,-4.6308,-4.6308,-4.6308,-4.6348,-4.6445,-4.7226,-4.7617,0.0,0.0,0.0,-2.4976,0.0,0.0,0.0,-2.9028,-3.041,-3.1055,-3.1348,-3.1973,-3.3496,-3.4141,-3.4707,-3.5566,-3.623,-3.709,-3.8418,-3.9512,-4.0117,-3.9883,-4.0059,-4.0195,-4.0195,-4.041,-4.0527,-4.0527,-3.9567,-3.826,-3.6741,-3.4844,-3.2729,-3.0196,-2.9094,-2.8005,-2.66,-2.66,-2.66,-2.6613,-2.6747,-2.6894,-2.7054,-2.7348,-2.7482,-2.7495,-2.7789,-2.7923,-2.809,-3.052,-3.1392,-3.1557,-3.2694,-3.1076,-2.8136,-2.8136,-2.8136,-2.8136,-2.8136,-2.8136,-2.8136,-2.8136,-2.9061,-3.0576,-3.3398,-3.6963,-4.0359,-4.1584,-4.2997,-4.4004,-4.3769,-4.4023,-4.4316,-4.4101,-4.4219,-4.4551,-4.5215,-4.5351,-4.5547,-4.6191,-4.6308,-4.6308,-4.6308,-4.6484,-4.6621,-4.6621,-4.6973,-4.7246,-4.7246,-4.707,-4.6933,-4.6933,-4.6562,-4.6308,-4.6308,-4.6308,-4.6308,-4.6308,-4.6308,-4.6406,-4.6601,-4.6426,-4.6406,-4.6621,-4.6406,-4.6308,-4.6308,-4.6308,-4.6308,-4.6328,-4.6953,-4.7383,0.0,0.0,0.0,0.0,0.0,-2.5797,0.0,0.0,0.0,-2.9824,-2.9824,0.0,0.0,0.0,0.0,-3.4141,0.0,0.0,0.0,-3.7187,0.0,-3.8789,-3.8691,-3.8711,-3.9043,-3.9277,-3.9492,-3.9746,-3.9531,-3.8648,-3.6989,-3.6533,-3.4333,-3.0282,-2.9814,-2.846,-2.6226,-2.6226,-2.6253,-2.6306,-2.6547,-2.668,-2.6747,-2.7041,-2.7175,-2.7201,-2.7549,-2.7696,-2.7888,-2.9964,-3.0744,-3.0744,-3.1241,-3.026,-2.8796,-2.8305,-2.8136,-2.8136,-2.8136,-2.8136,-2.8136,-2.8136,-2.8555,-2.9395,-3.1734,-3.5759,-3.9769,-4.009,-4.1639,-4.3176,-4.3526,-4.3711,-4.3711,-4.3711,-4.3711,-4.3926,-4.4726,-4.4961,-4.5234,-4.5918,-4.6133,-4.6211,-4.6289,-4.6308,-4.6308,-4.6308,-4.6601,-4.6816,-4.6816,-4.6816,-4.6816,-4.6816,-4.6504,-4.6308,-4.6308,-4.6308,-4.6308,-4.6308,-4.6308,-4.6308,-4.6308,-4.6308,-4.6308,-4.6308,-4.6308,-4.6308,-4.6308,-4.6308,-4.6348,-4.6426,-4.6855,-4.7285,0.0,0.0,0.0,0.0,-2.2792,0.0,0.0,0.0,-2.9009,-3.049,0.0,0.0,0.0,0.0,0.0,0.0,0.0,0.0,-3.2754,-3.3828,-3.5371,-3.7285,-3.6836,-3.6973,-3.8496,-3.8008,-3.8066,-3.9199,-3.8223,-3.7611,-3.7673,-3.6035,-3.3891,-3.1285,-2.9529,-2.7582,-2.5611,-2.5611,-2.5745,-2.6012,-2.6039,-2.6186,-2.6453,-2.6734,-2.6867,-2.6907,-2.7455,-2.7696,-2.7722,-2.8338,-2.8642,-2.8796,-3.0592,-3.1241,-3.0744,-2.8964,-2.8136,-2.8136,-2.8136,-2.8136,-2.8136,-2.8136,-3.0001,-3.2148,-3.2379,-3.4735,-3.769,-3.9734,-4.0427,-4.1118,-4.3195,-4.3711,-4.3711,-4.3711,-4.3711,-4.3848,-4.4355,-4.4766,-4.5058,-4.5156,-4.5488,-4.5859,-4.623,-4.6308,-4.6308,-4.6308,-4.6348,-4.6367,-4.6367,-4.6367,-4.6367,-4.6367,-4.6328,-4.6308,-4.6308,-4.6308,-4.6308,-4.6308,-4.6308,-4.6308,-4.6308,-4.6308,-4.6308,-4.6308,-4.6308,-4.6308,-4.6308,-4.6308,-4.6504,-4.6875,-4.7305,-4.7734,0.0,0.0,0.0,0.0,0.0,0.0,-2.5652,0.0,-2.8902,0.0,0.0,0.0,0.0,0.0,0.0,0.0,-3.1523,0.0,0.0,0.0,-3.2715,-3.5137,0.0,0.0,-3.6601,-3.6406,-3.6406,-3.6953,-3.6504,-3.6367,-3.6797,-3.6329,-3.5023,-3.3151,-3.1105,-2.921,-2.715,-2.6115,-2.5571,-2.5705,-2.5879,-2.6026,-2.6146,-2.644,-2.6573,-2.66,-2.7014,-2.7281,-2.7468,-2.7762,-2.8799,-3.0107,-2.9607,-2.9607,-2.9453,-2.8473,-2.8136,-2.8136,-2.8136,-2.8136,-2.8136,-2.8136,-2.9097,-3.0296,-3.0296,-3.3258,-3.6654,-3.7419,-3.9736,-4.215,-4.3156,-4.334,-4.3398,-4.3652,-4.3711,-4.3828,-4.4297,-4.4531,-4.4726,-4.498,-4.5176,-4.543,-4.5859,-4.5937,-4.6016,-4.6269,-4.6308,-4.6308,-4.6308,-4.6308,-4.6308,-4.6308,-4.6308,-4.6308,-4.6308,-4.6308,-4.6308,-4.6308,-4.6308,-4.6308,-4.6308,-4.6308,-4.6308,-4.6308,-4.6308,-4.6308,-4.6308,-4.6308,-4.6641,-4.7305,-4.6992,-4.7324,-2.2378,0.0,0.0,0.0,0.0,0.0,0.0,0.0,0.0,0.0,0.0,0.0,0.0,0.0,0.0,0.0,0.0,-3.0918,0.0,-3.0527,0.0,0.0,0.0,0.0,0.0,-3.4473,-3.4531,-3.5,-3.4492,-3.4551,-3.5449,-3.5781,-3.5349,-3.3837,-3.2066,-3.008,-2.8208,-2.6157,-2.5317,-2.5398,-2.5611,-2.5758,-2.5838,-2.6132,-2.6266,-2.6293,-2.6653,-2.6987,-2.7281,-2.7575,-2.8841,-3.0426,-2.8796,-2.8136,-2.8136,-2.8136,-2.8136,-2.8136,-2.8136,-2.8136,-2.8136,-2.8136,-2.835,-2.8604,-2.8604,-3.1309,-3.4561,-3.5455,-3.8258,-4.1386,-4.2702,-4.3086,-4.3183,-4.3594,-4.3711,-4.3789,-4.4141,-4.4394,-4.459,-4.4648,-4.4961,-4.5273,-4.5469,-4.5605,-4.582,-4.623,-4.6308,-4.6308,-4.6308,-4.6308,-4.6308,-4.6308,-4.6308,-4.6308,-4.6308,-4.6308,-4.6308,-4.6308,-4.6308,-4.6308,-4.6308,-4.6308,-4.6308,-4.6308,-4.6308,-4.6308,-4.6308,-4.6308,-4.6738,-4.7558,-4.6933,-4.7266,0.0,0.0,0.0,-2.1176,0.0,0.0,0.0,0.0,-2.5327,0.0,0.0,0.0,0.0,0.0,0.0,0.0,0.0,0.0,0.0,-2.9961,-3.0547,-3.1484,0.0,0.0,0.0,-3.2129,-3.2324,0.0,-3.2207,-3.1953,-3.4023,-3.4141,-3.3726,-3.2593,-3.1145,-2.9361,-2.7535,-2.5667,-2.481,-2.509,-2.5104,-2.5251,-2.5545,-2.5838,-2.5972,-2.5999,-2.6573,-2.6987,-2.7281,-2.7575,-2.7869,-2.8305,-2.8305,-2.8136,-2.8136,-2.8136,-2.8136,-2.8136,-2.8136,-2.8136,-2.8136,-2.8136,-2.835,-2.8604,-2.8604,-2.899,-3.0059,-3.455,-3.5891,-3.6992,-4.177,-4.3086,-4.3183,-4.3594,-4.3711,-4.3711,-4.373,-4.4394,-4.4766,-4.3906,-4.4785,-4.5527,-4.5117,-4.5391,-4.582,-4.623,-4.6308,-4.6308,-4.6308,-4.6308,-4.6308,-4.6308,-4.6308,-4.6308,-4.6308,-4.6308,-4.6308,-4.6308,-4.6308,-4.6308,-4.6308,-4.6308,-4.6308,-4.6308,-4.6308,-4.6308,-4.6308,-4.6308,-4.6738,-4.7578,-4.7558,-4.8008,0.0,0.0,-2.1483,-2.1189,0.0,0.0,0.0,0.0,0.0,0.0,0.0,0.0,0.0,0.0,0.0,0.0,0.0,0.0,0.0,-2.9609,-2.957,0.0,0.0,0.0,0.0,0.0,0.0,0.0,-3.043,0.0,-3.1894,-3.2773,-3.3475,-3.3918,-3.2557,-3.092,-2.9329,-2.749,-2.5988,-2.4783,-2.4983,-2.513,-2.5237,-2.5531,-2.5772,-2.5972,-2.6159,-2.652,-2.6987,-2.7081,-2.7402,-2.7856,-2.7856,-2.7963,-2.8136,-2.8136,-2.8136,-2.8136,-2.8136,-2.8136,-2.8136,-2.8136,-2.8217,-2.8297,-2.8297,-2.9662,-3.1513,-3.4258,-3.6164,-3.8273,-4.1694,-4.2656,-4.2832,-4.3535,-4.3711,-4.3711,-4.3711,-4.418,-4.4433,-4.3828,-4.4531,-4.5195,-4.5058,-4.5391,-4.582,-4.623,-4.6055,-4.5996,-4.6269,-4.6308,-4.6308,-4.6308,-4.6308,-4.6308,-4.6308,-4.6308,-4.6308,-4.6308,-4.6308,-4.6308,-4.6308,-4.6308,-4.6308,-4.6308,-4.6308,-4.6308,-4.6308,-4.6582,-4.7012,-4.7578,-4.7871,-4.8301,-2.1216,-2.1323,0.0,-2.1309,-2.1483,0.0,-2.2708,0.0,0.0,0.0,0.0,0.0,0.0,0.0,0.0,0.0,-3.0374,-3.0488,0.0,-2.9355,0.0,0.0,0.0,0.0,0.0,0.0,0.0,0.0,0.0,0.0,0.0,-3.125,-3.2539,-3.3984,-3.2818,-3.158,-3.0111,-2.8423,-2.6502,-2.4636,-2.4836,-2.4917,-2.493,-2.5224,-2.5464,-2.5651,-2.5865,-2.6226,-2.668,-2.6774,-2.7175,-2.7696,-2.7696,-2.7883,-2.8136,-2.8136,-2.8136,-2.8136,-2.8136,-2.8136,-2.8136,-2.8136,-2.8136,-2.8136,-2.8136,-2.9425,-3.1051,-3.3218,-3.5606,-3.7968,-4.0834,-4.2087,-4.2832,-4.3535,-4.3711,-4.3711,-4.3711,-4.4062,-4.4258,-4.3789,-4.4414,-4.5019,-4.5019,-4.5254,-4.5644,-4.6211,-4.6074,-4.5996,-4.6269,-4.6308,-4.6308,-4.6308,-4.6308,-4.6308,-4.6308,-4.6308,-4.6308,-4.6308,-4.6308,-4.6308,-4.6308,-4.6308,-4.6445,-4.6758,-4.6465,-4.6445,-4.6758,-4.6719,-4.7012,-4.7578,-4.7851,-4.8301]}]]